[[{"header":{"parameterUnit":"m.s-1","parameterCategory":1,"la1":30.6,"la2":29.2853,"lo1":-89.7004,"lo2":-87.6739,"dy":0.0162,"dx":0.0183,"nx":112,"ny":82,"refTime":"2023-08-02T18:00:00:Z","depth":0,"parameterNumber":2,"parameterNumberName":"U-component_of_WINDS"},"data":[0.0,0.0,0.0,0.0,0.0,0.0,0.0,0.0,0.0,0.0,0.0,0.0,0.0,0.0,0.0,0.0,0.0,0.0,0.0,0.0,0.0,0.0,0.0,0.0,0.0,0.0,0.0,0.0,0.0,0.0,0.0,0.0,0.0,0.0,0.0,0.0,0.0,0.0,0.0,0.0,0.0,0.0,0.0,0.0,0.0,0.0,0.0,0.0,0.0,0.0,0.0,0.0,0.0,0.0,0.0,0.0,0.0,0.0,0.0,0.0,0.0,0.0,0.0,0.0,0.0,0.0,0.0,0.0,0.0,0.0,0.0,0.0,0.0,0.0,0.0,0.0,0.0,0.0,0.0,0.0,0.0,0.0,0.0,0.0,0.0,0.0,0.0,0.0,0.0,0.0,-3.0455,-2.9879,-3.0242,-3.0561,-3.0585,-3.068,-3.0536,-3.0023,0.0,0.0,0.0,0.0,0.0,0.0,0.0,0.0,0.0,0.0,0.0,0.0,0.0,0.0,0.0,0.0,0.0,0.0,0.0,0.0,0.0,0.0,0.0,0.0,0.0,0.0,0.0,0.0,0.0,0.0,0.0,0.0,0.0,0.0,0.0,0.0,0.0,0.0,0.0,0.0,0.0,0.0,0.0,0.0,0.0,0.0,0.0,0.0,0.0,0.0,0.0,0.0,0.0,0.0,0.0,0.0,0.0,0.0,0.0,0.0,0.0,0.0,0.0,0.0,0.0,0.0,0.0,0.0,0.0,0.0,0.0,0.0,0.0,0.0,0.0,0.0,0.0,0.0,0.0,0.0,0.0,0.0,0.0,0.0,0.0,0.0,0.0,0.0,0.0,0.0,0.0,0.0,0.0,0.0,0.0,0.0,0.0,0.0,0.0,0.0,0.0,0.0,0.0,0.0,-3.1398,-3.1302,-3.1246,-3.1285,-3.1398,-3.1949,-3.1981,-3.1358,0.0,0.0,0.0,0.0,0.0,0.0,0.0,0.0,0.0,0.0,0.0,0.0,0.0,0.0,0.0,0.0,0.0,0.0,0.0,0.0,0.0,0.0,0.0,0.0,0.0,0.0,0.0,0.0,0.0,0.0,0.0,0.0,0.0,0.0,0.0,0.0,0.0,0.0,0.0,0.0,0.0,0.0,0.0,0.0,0.0,0.0,0.0,0.0,0.0,0.0,0.0,0.0,0.0,0.0,0.0,0.0,0.0,0.0,0.0,0.0,0.0,0.0,0.0,0.0,0.0,0.0,0.0,0.0,0.0,0.0,0.0,0.0,0.0,0.0,0.0,0.0,0.0,0.0,0.0,0.0,0.0,0.0,0.0,0.0,0.0,0.0,0.0,0.0,0.0,0.0,0.0,0.0,0.0,0.0,0.0,0.0,0.0,0.0,0.0,0.0,0.0,0.0,0.0,-3.1124,-3.1489,-3.1197,-3.1643,-3.1694,-3.1114,-3.1628,-3.1648,-3.0781,-3.0192,0.0,0.0,0.0,0.0,0.0,0.0,0.0,0.0,0.0,0.0,0.0,0.0,0.0,0.0,0.0,0.0,0.0,0.0,0.0,0.0,0.0,0.0,0.0,0.0,0.0,0.0,0.0,0.0,0.0,0.0,0.0,0.0,0.0,0.0,0.0,0.0,0.0,0.0,0.0,0.0,0.0,0.0,0.0,0.0,0.0,0.0,0.0,0.0,0.0,0.0,0.0,0.0,0.0,0.0,0.0,0.0,0.0,0.0,0.0,0.0,0.0,0.0,0.0,0.0,0.0,0.0,0.0,0.0,0.0,0.0,0.0,0.0,0.0,0.0,0.0,0.0,0.0,0.0,0.0,0.0,0.0,0.0,0.0,0.0,0.0,0.0,0.0,0.0,0.0,0.0,0.0,0.0,0.0,0.0,0.0,0.0,0.0,0.0,0.0,0.0,0.0,0.0,-3.1192,-3.1488,-3.1098,-3.1796,-3.1918,-3.0981,-3.1338,-3.1259,-3.0498,-3.0209,0.0,0.0,0.0,0.0,0.0,0.0,0.0,0.0,0.0,0.0,0.0,0.0,0.0,0.0,0.0,0.0,0.0,0.0,0.0,0.0,0.0,0.0,0.0,0.0,0.0,0.0,0.0,0.0,0.0,0.0,0.0,0.0,0.0,0.0,0.0,0.0,0.0,0.0,0.0,0.0,0.0,0.0,0.0,0.0,0.0,0.0,0.0,0.0,0.0,0.0,0.0,0.0,0.0,0.0,0.0,0.0,0.0,0.0,0.0,0.0,0.0,0.0,0.0,0.0,0.0,0.0,0.0,0.0,0.0,0.0,0.0,0.0,0.0,0.0,0.0,0.0,0.0,0.0,0.0,0.0,0.0,0.0,0.0,0.0,0.0,0.0,0.0,0.0,0.0,0.0,0.0,0.0,0.0,0.0,0.0,0.0,0.0,0.0,0.0,0.0,0.0,0.0,-3.1728,-3.1743,-3.1817,-3.1888,-3.1888,-3.1804,-3.186,-3.1845,-3.1756,-3.0846,0.0,0.0,0.0,0.0,0.0,0.0,0.0,0.0,0.0,0.0,0.0,0.0,0.0,0.0,0.0,0.0,0.0,0.0,0.0,0.0,0.0,0.0,0.0,0.0,0.0,0.0,0.0,0.0,0.0,0.0,0.0,0.0,0.0,0.0,0.0,0.0,0.0,0.0,0.0,0.0,0.0,0.0,0.0,0.0,0.0,0.0,0.0,0.0,0.0,0.0,0.0,0.0,0.0,0.0,0.0,0.0,0.0,0.0,0.0,0.0,0.0,0.0,0.0,0.0,0.0,0.0,0.0,0.0,0.0,0.0,0.0,0.0,0.0,0.0,0.0,0.0,0.0,0.0,0.0,0.0,0.0,0.0,0.0,0.0,0.0,0.0,0.0,0.0,0.0,0.0,0.0,0.0,0.0,0.0,0.0,0.0,0.0,0.0,0.0,0.0,0.0,0.0,-3.1537,-3.158,0.0,-3.1493,-3.1595,-3.0851,-3.1102,-3.1219,-3.0925,0.0,0.0,0.0,0.0,0.0,0.0,0.0,0.0,0.0,0.0,0.0,0.0,0.0,0.0,0.0,0.0,0.0,0.0,0.0,0.0,0.0,0.0,0.0,0.0,0.0,0.0,0.0,0.0,0.0,0.0,0.0,0.0,0.0,0.0,0.0,0.0,0.0,0.0,0.0,0.0,0.0,0.0,0.0,0.0,0.0,0.0,0.0,0.0,0.0,0.0,0.0,0.0,0.0,0.0,0.0,0.0,0.0,0.0,0.0,0.0,0.0,0.0,0.0,0.0,0.0,0.0,0.0,0.0,0.0,0.0,0.0,0.0,0.0,0.0,0.0,0.0,0.0,0.0,0.0,0.0,0.0,0.0,0.0,0.0,0.0,0.0,0.0,0.0,0.0,0.0,0.0,0.0,0.0,0.0,0.0,0.0,0.0,0.0,0.0,0.0,0.0,0.0,-3.0657,-3.1043,-3.1131,0.0,-3.1043,-3.1146,-3.0341,-3.0628,-3.0732,-3.0417,0.0,0.0,0.0,0.0,0.0,0.0,0.0,0.0,0.0,0.0,0.0,0.0,0.0,0.0,0.0,0.0,0.0,0.0,0.0,0.0,0.0,0.0,0.0,0.0,0.0,0.0,0.0,0.0,0.0,0.0,0.0,0.0,0.0,0.0,0.0,0.0,0.0,0.0,0.0,0.0,0.0,0.0,0.0,0.0,0.0,0.0,0.0,0.0,0.0,0.0,0.0,0.0,0.0,0.0,0.0,0.0,0.0,0.0,0.0,0.0,0.0,0.0,0.0,0.0,0.0,0.0,0.0,0.0,0.0,0.0,0.0,0.0,0.0,0.0,0.0,0.0,0.0,0.0,0.0,0.0,0.0,0.0,0.0,0.0,0.0,0.0,0.0,0.0,0.0,0.0,0.0,0.0,0.0,0.0,0.0,0.0,0.0,0.0,0.0,0.0,0.0,0.0,-3.0568,-3.0447,-3.0387,-3.0568,-3.0598,-3.0598,-3.0598,-3.0598,-3.0598,0.0,0.0,0.0,0.0,0.0,0.0,0.0,0.0,0.0,0.0,0.0,0.0,0.0,0.0,0.0,0.0,0.0,0.0,0.0,0.0,0.0,0.0,0.0,0.0,0.0,0.0,0.0,0.0,0.0,0.0,0.0,0.0,0.0,0.0,0.0,0.0,0.0,0.0,0.0,0.0,0.0,0.0,0.0,0.0,0.0,0.0,0.0,0.0,0.0,0.0,0.0,0.0,0.0,0.0,0.0,0.0,0.0,0.0,0.0,0.0,0.0,0.0,0.0,0.0,0.0,0.0,0.0,0.0,0.0,0.0,0.0,0.0,0.0,0.0,0.0,0.0,0.0,0.0,0.0,0.0,0.0,0.0,0.0,0.0,0.0,0.0,0.0,0.0,0.0,0.0,0.0,0.0,0.0,0.0,0.0,0.0,0.0,0.0,0.0,0.0,0.0,0.0,0.0,-3.0568,-3.0538,-3.0538,-3.0598,-3.0598,-3.0598,-3.0598,-3.0598,-3.0598,-3.0598,0.0,0.0,0.0,0.0,0.0,0.0,0.0,0.0,0.0,0.0,0.0,0.0,0.0,0.0,0.0,0.0,0.0,0.0,0.0,0.0,0.0,0.0,0.0,0.0,0.0,0.0,0.0,0.0,0.0,0.0,0.0,0.0,0.0,0.0,0.0,0.0,0.0,0.0,0.0,0.0,0.0,0.0,0.0,0.0,0.0,0.0,0.0,0.0,0.0,0.0,0.0,0.0,0.0,0.0,0.0,0.0,0.0,0.0,0.0,0.0,0.0,0.0,0.0,0.0,0.0,0.0,0.0,0.0,0.0,0.0,0.0,0.0,0.0,0.0,0.0,0.0,0.0,0.0,0.0,0.0,0.0,0.0,0.0,0.0,0.0,0.0,0.0,0.0,0.0,0.0,0.0,0.0,0.0,0.0,0.0,0.0,0.0,0.0,0.0,0.0,0.0,0.0,-3.0568,-3.0598,-3.0598,-3.0598,-3.0598,-3.0598,-3.0598,-3.0598,-3.0598,-3.0598,0.0,0.0,0.0,0.0,0.0,0.0,0.0,0.0,0.0,0.0,0.0,0.0,0.0,0.0,0.0,0.0,0.0,0.0,0.0,0.0,0.0,0.0,0.0,0.0,0.0,0.0,0.0,0.0,0.0,0.0,0.0,0.0,0.0,0.0,0.0,0.0,0.0,0.0,0.0,0.0,0.0,0.0,0.0,0.0,0.0,0.0,0.0,0.0,0.0,0.0,0.0,0.0,0.0,0.0,0.0,0.0,0.0,0.0,0.0,0.0,0.0,0.0,0.0,0.0,0.0,0.0,0.0,0.0,0.0,0.0,0.0,0.0,0.0,0.0,0.0,0.0,0.0,0.0,0.0,0.0,0.0,0.0,0.0,0.0,0.0,0.0,0.0,0.0,0.0,0.0,0.0,0.0,0.0,0.0,0.0,0.0,0.0,0.0,0.0,0.0,0.0,0.0,-3.0639,-3.0683,-3.0726,-3.0726,-3.0726,-3.0726,-3.0726,-3.0698,-3.0655,-3.0655,0.0,0.0,0.0,0.0,0.0,0.0,0.0,0.0,0.0,0.0,0.0,0.0,0.0,0.0,0.0,0.0,0.0,0.0,0.0,0.0,0.0,0.0,0.0,0.0,0.0,0.0,0.0,0.0,0.0,0.0,0.0,0.0,0.0,0.0,0.0,0.0,0.0,0.0,0.0,0.0,0.0,0.0,0.0,0.0,0.0,0.0,0.0,0.0,0.0,0.0,0.0,0.0,0.0,0.0,0.0,0.0,0.0,0.0,0.0,0.0,-3.1959,0.0,0.0,0.0,0.0,0.0,0.0,0.0,0.0,0.0,0.0,0.0,0.0,0.0,0.0,0.0,0.0,0.0,0.0,0.0,0.0,0.0,0.0,0.0,0.0,0.0,0.0,0.0,0.0,0.0,0.0,0.0,0.0,0.0,0.0,0.0,0.0,0.0,0.0,0.0,0.0,0.0,-3.0902,-3.1332,-3.16,-3.16,-3.16,-3.16,-3.16,-3.1315,-3.1166,-3.1166,-3.0797,0.0,0.0,0.0,0.0,0.0,0.0,0.0,0.0,0.0,0.0,0.0,0.0,0.0,0.0,0.0,0.0,0.0,0.0,0.0,0.0,0.0,0.0,0.0,0.0,0.0,0.0,0.0,0.0,0.0,0.0,0.0,0.0,0.0,0.0,0.0,0.0,0.0,0.0,0.0,0.0,0.0,0.0,0.0,0.0,0.0,0.0,0.0,0.0,0.0,0.0,0.0,0.0,0.0,0.0,0.0,0.0,0.0,0.0,0.0,0.0,-3.2452,0.0,0.0,0.0,0.0,0.0,0.0,0.0,0.0,0.0,0.0,0.0,0.0,0.0,0.0,0.0,0.0,0.0,0.0,0.0,0.0,0.0,0.0,0.0,0.0,0.0,0.0,0.0,0.0,0.0,0.0,0.0,0.0,0.0,0.0,0.0,0.0,0.0,0.0,0.0,0.0,-3.139,-3.1718,-3.1917,-3.1917,-3.1917,-3.1917,-3.1917,-3.1715,-3.1593,-3.1593,-3.1372,0.0,0.0,0.0,0.0,0.0,0.0,0.0,0.0,0.0,0.0,0.0,0.0,0.0,0.0,0.0,0.0,0.0,0.0,0.0,0.0,0.0,0.0,0.0,0.0,0.0,0.0,0.0,0.0,0.0,0.0,0.0,0.0,0.0,0.0,0.0,0.0,0.0,0.0,0.0,0.0,0.0,0.0,0.0,0.0,0.0,0.0,0.0,0.0,0.0,0.0,0.0,0.0,0.0,-3.3311,-3.35,-3.3844,-3.3844,-3.3844,-3.3844,-3.3844,-3.3709,-3.3499,-3.3438,0.0,0.0,0.0,0.0,0.0,0.0,0.0,0.0,0.0,0.0,0.0,0.0,0.0,0.0,0.0,0.0,0.0,0.0,0.0,0.0,0.0,0.0,0.0,0.0,-3.2408,-3.1797,-3.2003,0.0,0.0,0.0,0.0,0.0,0.0,0.0,0.0,0.0,0.0,0.0,-3.1904,-3.2075,-3.2146,-3.2146,-3.2146,-3.2146,-3.2146,-3.2065,-3.2008,-3.2008,-3.1942,-3.174,0.0,0.0,0.0,0.0,0.0,0.0,0.0,0.0,0.0,0.0,0.0,0.0,0.0,0.0,0.0,0.0,0.0,0.0,0.0,0.0,0.0,0.0,0.0,0.0,0.0,0.0,0.0,0.0,0.0,0.0,0.0,0.0,-3.2979,-3.263,0.0,0.0,0.0,0.0,0.0,0.0,0.0,0.0,0.0,0.0,0.0,0.0,0.0,-3.3218,-3.3433,-3.3528,-3.3869,-3.4482,-3.4585,-3.4863,-3.525,-3.525,-3.525,-3.525,-3.525,0.0,-3.3469,-3.3191,0.0,0.0,0.0,0.0,0.0,0.0,0.0,0.0,0.0,0.0,0.0,0.0,0.0,0.0,0.0,0.0,0.0,0.0,0.0,0.0,0.0,0.0,-3.2504,-3.218,-3.2376,-3.2637,0.0,-3.2052,-3.1563,-3.1775,-3.1782,0.0,0.0,0.0,0.0,0.0,0.0,0.0,-3.2269,-3.277,-3.3108,-3.3108,-3.3108,-3.3108,-3.3108,-3.2738,-3.2514,-3.2514,-3.2136,-3.1874,-3.1821,-3.1983,0.0,0.0,0.0,0.0,0.0,0.0,0.0,0.0,0.0,0.0,0.0,0.0,0.0,0.0,0.0,0.0,0.0,0.0,0.0,0.0,0.0,0.0,0.0,0.0,0.0,0.0,0.0,0.0,0.0,-3.3084,-3.2905,-3.3159,-3.2796,-3.2791,0.0,0.0,0.0,0.0,0.0,0.0,0.0,0.0,0.0,-3.3304,-3.2988,-3.2881,-3.3072,-3.3528,-3.4016,-3.4591,-3.4986,-3.5354,-3.5716,-3.5598,-3.5563,-3.5549,-3.5336,-3.4888,-3.4332,-3.413,-3.382,-3.3425,0.0,0.0,0.0,0.0,-3.2511,-3.2511,-3.2511,-3.2374,-3.2198,-3.2278,0.0,0.0,0.0,0.0,0.0,0.0,0.0,0.0,0.0,0.0,-3.3178,-3.3216,-3.3249,-3.3349,-3.3747,-3.3664,-3.3278,0.0,-3.2069,-3.1752,-3.1579,0.0,0.0,0.0,0.0,-3.2216,-3.2848,-3.3122,-3.329,-3.329,-3.329,-3.329,-3.329,-3.3093,-3.2994,-3.2994,-3.2891,-3.2681,-3.2312,-3.261,-3.2374,0.0,0.0,0.0,0.0,0.0,0.0,0.0,0.0,0.0,0.0,0.0,0.0,0.0,0.0,0.0,0.0,0.0,0.0,0.0,0.0,0.0,0.0,0.0,0.0,0.0,0.0,0.0,0.0,-3.3235,-3.3114,-3.3602,-3.3049,-3.3018,0.0,0.0,0.0,0.0,0.0,0.0,-3.3094,-3.3056,-3.3118,-3.3239,-3.3018,-3.2992,-3.3187,-3.3716,-3.4268,-3.4796,-3.5243,-3.5652,-3.5949,-3.5805,-3.5769,-3.574,-3.5425,-3.5259,-3.5131,-3.4787,-3.4283,-3.3805,-3.3716,-3.3597,-3.3542,-3.3347,-3.3417,-3.3542,-3.3347,-3.3107,-3.2883,-3.3018,-3.2839,-3.2585,-3.2894,0.0,0.0,0.0,0.0,-3.3187,-3.3047,-3.3334,-3.3764,-3.4119,-3.3942,-3.3799,-3.4303,-3.4393,-3.4142,0.0,-3.2771,-3.2462,-3.2272,0.0,0.0,0.0,0.0,-3.2883,-3.3241,-3.329,-3.329,-3.329,-3.329,-3.329,-3.329,-3.329,-3.329,-3.329,-3.3501,-3.3393,-3.2877,-3.3221,-3.3001,-3.2094,0.0,0.0,0.0,0.0,0.0,0.0,0.0,0.0,0.0,0.0,0.0,0.0,0.0,0.0,0.0,0.0,0.0,0.0,0.0,0.0,0.0,0.0,0.0,0.0,0.0,0.0,0.0,0.0,0.0,-3.3347,-3.2938,0.0,0.0,0.0,0.0,-3.2739,-3.2739,-3.2668,-3.2453,-3.2987,-3.3242,-3.3121,-3.3817,-3.4283,-3.4499,-3.4724,-3.5096,-3.5653,-3.5646,-3.5877,-3.6186,-3.6186,-3.6186,-3.6186,-3.6142,-3.5964,-3.5568,-3.4339,-3.3839,-3.377,-3.3452,-3.3687,-3.4192,-3.3528,-3.3687,-3.4158,-3.3542,-3.3403,-3.3563,-3.3563,-3.3762,-3.4027,-3.4245,-3.4279,0.0,0.0,-3.4022,-3.4016,-3.3874,-3.3868,-3.3896,-3.3917,-3.3882,-3.3882,-3.3931,-3.343,-3.3192,0.0,-3.4317,-3.4332,-3.3054,0.0,-3.3579,-3.2805,-3.3215,-3.3564,-3.3332,-3.329,-3.329,-3.329,-3.329,-3.329,-3.329,-3.329,-3.329,-3.329,-3.3501,-3.3591,-3.3563,-3.3879,-3.3748,-3.3163,-3.2652,0.0,0.0,0.0,0.0,0.0,0.0,0.0,0.0,0.0,0.0,0.0,0.0,0.0,0.0,0.0,0.0,0.0,0.0,0.0,0.0,0.0,0.0,0.0,0.0,0.0,0.0,0.0,0.0,-3.3143,-3.2739,0.0,-3.281,-3.3113,-3.3239,-3.3102,-3.3436,-3.3594,-3.3383,-3.3574,-3.3734,-3.3861,-3.4142,-3.4403,-3.4606,-3.5169,-3.5591,-3.5766,-3.615,-3.6423,-3.6523,-3.6409,-3.6332,-3.6304,-3.6062,-3.5855,-3.5686,-3.4975,-3.4709,-3.4709,-3.4564,-3.4419,-3.4249,-3.4495,-3.4182,-3.3687,-3.4016,-3.3908,-3.364,-3.3868,-3.4108,-3.4312,-3.438,-3.4414,-3.438,-3.4312,-3.4312,-3.423,-3.4074,-3.404,-3.4005,-3.3931,-3.3985,-3.404,-3.404,-3.4263,-3.4578,-3.4828,-3.4537,-3.4254,-3.4296,-3.477,-3.4916,-3.4325,-3.4372,-3.4228,-3.3563,-3.3501,-3.3431,-3.3326,-3.329,-3.329,-3.329,-3.329,-3.3361,-3.3466,-3.3675,-3.3793,-3.3793,-3.4108,-3.4129,-3.3797,-3.3729,-3.2929,0.0,0.0,0.0,0.0,0.0,0.0,0.0,0.0,0.0,0.0,0.0,0.0,0.0,0.0,0.0,0.0,0.0,0.0,0.0,0.0,0.0,0.0,0.0,0.0,0.0,0.0,-3.3199,-3.328,-3.2935,-3.2837,-3.3152,-3.3527,-3.3649,-3.351,-3.3867,-3.4023,-3.3908,-3.4097,-3.4283,-3.4476,-3.4835,-3.506,-3.5214,-3.5871,-3.6221,-3.6235,-3.6615,-3.6786,-3.6786,-3.6654,-3.6615,-3.6601,-3.6314,-3.621,-3.6221,-3.6203,-3.6219,-3.6139,-3.5469,-3.52,-3.5281,-3.5549,-3.5218,-3.4649,-3.4753,-3.4538,-3.4229,-3.4461,-3.4671,-3.4845,-3.4845,-3.4845,-3.4845,-3.4845,-3.5018,-3.5156,-3.4727,-3.4831,-3.5004,-3.4915,-3.4776,-3.4761,-3.5283,-3.5674,-3.5974,-3.6237,-3.5454,-3.491,-3.5407,-3.593,-3.5978,-3.5142,-3.5287,-3.5139,-3.4079,-3.4113,-3.4079,-3.3667,-3.3632,-3.3542,-3.3312,-3.315,-3.324,-3.3591,-3.3648,-3.377,-3.3971,-3.4108,-3.4128,-3.3991,-3.3874,-3.3018,-3.143,0.0,0.0,0.0,0.0,0.0,0.0,0.0,0.0,0.0,0.0,0.0,0.0,0.0,0.0,0.0,0.0,0.0,0.0,0.0,0.0,0.0,0.0,0.0,-3.3964,-3.3375,-3.3266,-3.3821,-3.3583,-3.3543,-3.4107,-3.4036,-3.3935,-3.3935,-3.3962,-3.3962,-3.3962,-3.4504,-3.4829,-3.4843,-3.5864,-3.6432,-3.646,-3.6867,-3.7049,-3.7049,-3.7021,-3.7021,-3.7021,-3.6993,-3.6978,-3.6978,-3.6978,-3.6978,-3.7056,-3.7863,-3.8202,-3.8011,-3.6046,-3.6143,-3.7276,-3.6591,-3.6772,-3.7094,-3.5769,-3.5337,-3.541,-3.5484,-3.5557,-3.5717,-3.5753,-3.5753,-3.5753,-3.5753,-3.6336,-3.6761,-3.5956,-3.6336,-3.6936,-3.6936,-3.6336,-3.6194,-3.7681,-3.7458,-3.7164,-3.7883,-3.7209,-3.6414,-3.6289,-3.68,-3.6708,-3.5204,-3.5976,0.0,-3.4828,-3.5091,-3.5124,-3.4413,-3.4346,-3.407,-3.3417,-3.2942,-3.2959,-3.3597,-3.3398,-3.3513,-3.4099,-3.3908,-3.3805,-3.3805,-3.308,-3.2236,-3.1349,0.0,0.0,0.0,0.0,0.0,0.0,0.0,0.0,0.0,0.0,0.0,0.0,0.0,0.0,0.0,0.0,0.0,0.0,0.0,0.0,0.0,0.0,-3.4803,-3.4579,-3.4316,-3.414,-3.4142,-3.3878,-3.3794,-3.3971,-3.4339,-3.4545,-3.4545,-3.4951,-3.5195,-3.5195,-3.5344,-3.5709,-3.6293,-3.6782,-3.7342,-3.7908,-3.8234,-3.8396,-3.8382,-3.7864,-3.7639,-3.7639,-3.7189,-3.6978,-3.6978,-3.6978,-3.6978,-3.7056,-3.7863,-3.8202,-3.8136,-3.7587,-3.7689,-3.8048,-3.7853,-3.7645,-3.7451,-3.7139,-3.6399,-3.5812,-3.6926,-3.657,-3.592,-3.703,-3.6976,-3.6676,-3.7218,-3.7511,-3.7647,-3.7443,-3.7511,-3.7681,-3.7681,-3.7511,-3.7477,-3.7916,-3.7849,-3.7916,-3.8594,-3.8493,-3.8105,-3.7592,-3.7614,-3.7387,-3.6492,-3.6615,0.0,-3.5529,-3.5512,-3.5464,-3.5124,-3.5175,-3.5142,-3.4843,-3.4884,-3.4821,-3.4543,-3.4582,-3.4501,-3.4332,-3.4264,-3.4094,-3.3805,-3.266,-3.2157,0.0,0.0,0.0,0.0,0.0,0.0,0.0,0.0,0.0,0.0,0.0,0.0,0.0,0.0,0.0,0.0,0.0,0.0,0.0,0.0,0.0,0.0,-3.5643,-3.5558,-3.5366,-3.49,-3.4551,-3.4594,-3.4467,-3.4446,-3.4626,-3.4965,-3.5168,-3.5168,-3.575,-3.609,-3.609,-3.6334,-3.6715,-3.7304,-3.7538,-3.7924,-3.8504,-3.8779,-3.8902,-3.8902,-3.8522,-3.8313,-3.8299,-3.7974,-3.7625,-3.7372,-3.7372,-3.7217,-3.7095,-3.8211,-3.8657,0.0,0.0,0.0,0.0,0.0,-3.907,-3.8755,-3.848,-3.7937,-3.7453,-3.8287,-3.8007,-3.7489,-3.8287,-3.8232,-3.7987,-3.8426,-3.8785,-3.8956,-3.8633,-3.877,-3.9057,-3.9057,-3.8785,-3.8702,-3.936,-3.9259,-3.9259,-3.9953,-3.9879,0.0,-3.9156,-3.8884,-3.8469,-3.7795,-3.7872,-3.7639,-3.6655,-3.6735,-3.6596,-3.5879,-3.5897,-3.5802,-3.5514,-3.5451,0.0,0.0,0.0,-3.4614,-3.4182,-3.4025,0.0,0.0,0.0,-3.2124,-3.2503,0.0,0.0,0.0,-3.0893,-3.0446,0.0,0.0,0.0,0.0,0.0,0.0,0.0,0.0,0.0,0.0,0.0,0.0,0.0,0.0,0.0,0.0,-3.6359,-3.6563,-3.6166,-3.5258,-3.4764,-3.5143,-3.5172,-3.5298,-3.5669,-3.571,-3.575,-3.5818,-3.6307,-3.6632,-3.67,0.0,0.0,0.0,0.0,-3.845,-3.8699,-3.8975,-3.9113,-3.9113,-3.9043,-3.9015,-3.9015,-3.8944,-3.8593,-3.8004,-3.8004,-3.7695,-3.7307,-3.87,-3.9343,-3.9448,-3.9535,-3.9925,-4.0512,-4.0581,-4.0581,-4.0409,-3.9783,0.0,0.0,-3.9626,-3.9626,-3.9611,-3.9626,-3.9555,-3.952,-3.9591,-4.0135,-4.0531,-3.9804,-4.0135,-4.0665,-4.0665,-4.0115,-3.9909,-4.1307,-4.1107,-4.0836,-4.1474,-4.1114,-4.0704,-4.0704,-4.0198,-3.9566,-3.8963,-3.9219,-3.9109,-3.8044,-3.8309,-3.812,-3.6878,0.0,0.0,-3.5988,-3.5522,-3.5539,-3.6183,-3.5149,-3.4307,-3.3894,-3.3563,-3.3164,-3.2775,-3.2444,-3.2241,-3.2218,-3.2218,-3.2218,-3.2205,-3.1639,-3.1083,0.0,0.0,0.0,0.0,0.0,0.0,0.0,0.0,0.0,0.0,0.0,0.0,0.0,0.0,0.0,-3.6771,-3.6584,-3.6445,-3.6365,-3.5853,-3.5491,-3.5573,-3.5587,-3.5628,-3.5696,-3.571,-3.5913,-3.6388,-3.6537,-3.6822,-3.7282,-3.7431,-3.7844,-3.8606,-3.8833,-3.9295,-4.0023,-4.0223,-4.0336,-4.0336,0.0,0.0,-3.9592,-3.9127,-3.8846,-3.8719,-3.8719,-3.8649,-3.8575,-3.8982,-3.9594,-4.0339,-4.0922,-4.0888,-4.0581,-4.1174,-4.1005,-4.0581,-4.1189,-4.06,-3.9824,-4.1127,-4.0724,-3.9984,-4.1194,-4.1142,0.0,-4.1376,-4.1655,-4.1769,-4.159,-4.1588,-4.162,-4.162,-4.139,-4.1225,-4.1555,-4.1489,-4.1423,-4.1555,-4.1494,-4.1399,-4.1399,-4.0372,-3.9503,-3.9377,-3.944,-3.9424,-3.9188,-3.9235,-3.9188,-3.8921,-3.8525,-3.8208,-3.8101,-3.7755,-3.7393,-3.6996,-3.5871,-3.4907,-3.4298,-3.3908,-3.3563,-3.3199,-3.281,-3.248,-3.2218,-3.2218,-3.2218,-3.2218,-3.2096,-3.168,0.0,0.0,0.0,0.0,0.0,0.0,0.0,0.0,0.0,0.0,0.0,-3.669,0.0,0.0,-3.6993,-3.685,-3.6589,-3.6365,-3.6246,-3.5938,-3.571,-3.571,-3.571,-3.5832,-3.613,-3.6157,-3.6402,-3.7026,-3.7338,-3.765,-3.7919,-3.826,-3.8733,-3.9367,-3.9511,-3.9878,-4.0544,-4.0659,-4.0702,-4.0702,-4.0378,-4.0238,-4.0224,-3.9929,-3.9855,-3.9994,-3.9994,-4.0075,-4.0163,-4.0619,-4.1304,-4.2119,-4.2496,-4.2003,-4.1107,-4.144,-4.139,-4.114,-4.1686,-4.144,-4.0992,-4.1835,-4.164,-4.1211,-4.19,-4.1835,-4.1623,-4.2013,-4.2109,-4.2109,-4.2109,-4.2061,-4.2012,-4.2012,-4.1931,-4.1818,-4.1768,-4.1752,-4.1703,-4.1621,-4.1588,-4.1588,-4.1588,-4.1004,-4.0546,-4.0546,-4.0546,-4.0435,-4.0087,-4.0056,-3.9914,-3.9534,-3.9249,-3.9166,-3.9349,-3.9039,-3.8418,-3.7359,-3.643,-3.561,-3.4938,-3.4201,-3.3736,-3.3563,-3.2988,-3.2596,-3.2444,-3.2277,-3.2218,-3.2218,-3.2218,-3.2055,0.0,0.0,0.0,0.0,0.0,0.0,0.0,0.0,-3.738,-3.707,-3.6978,-3.6978,-3.6978,-3.6978,-3.6915,-3.6707,-3.6524,-3.6325,-3.6126,-3.5858,-3.5764,-3.5927,-3.594,-3.6117,-3.6551,-3.6755,-3.7081,-3.7607,-3.8109,-3.8464,-3.8586,-3.9047,-3.9526,-3.9996,-3.9996,-4.0213,-4.0702,-4.0702,-4.0702,-4.0702,-4.0702,-4.0702,-4.0702,-4.0859,-4.1067,-4.1262,-4.1423,-4.1543,-4.1625,-4.2392,-4.3014,-4.3481,-4.3655,-4.2995,-4.1983,-4.1841,-4.1715,-4.1621,-4.1833,-4.198,-4.2093,-4.2158,-4.2286,-4.2381,-4.2238,-4.2206,-4.2206,-4.2206,-4.2206,-4.2206,-4.2206,-4.2174,-4.2142,-4.2142,-4.2142,-4.2045,-4.1931,-4.1898,-4.1833,-4.1621,-4.1588,-4.1588,-4.1588,-4.1588,-4.1588,-4.1588,-4.1588,-4.1399,-4.0862,-4.0798,-4.0561,-3.9977,-3.9787,-3.9786,-3.9983,-3.9801,-3.9084,-3.7684,-3.7093,-3.6366,-3.5432,-3.4558,-3.3962,-3.3701,-3.3129,-3.2739,-3.2596,-3.2336,-3.2218,-3.2218,-3.2218,-3.2218,-3.7182,-3.7175,-3.691,-3.6278,-3.657,-3.6996,0.0,0.0,-3.707,-3.7017,-3.6978,-3.6978,-3.6978,-3.6978,-3.6915,-3.6707,-3.6524,-3.6325,-3.6126,-3.5858,-3.6008,-3.6757,-3.6866,-3.6798,-3.6605,-3.7303,-3.7932,-3.8274,-3.8383,-3.864,-3.9169,-3.9264,-3.9526,-3.9996,-3.9996,-4.0213,-4.0702,-4.0702,-4.0702,-4.0702,-4.0702,-4.0702,-4.0744,-4.1506,-4.1879,-4.193,-4.2657,-4.2667,-4.2263,-4.3037,-4.3091,-4.2731,-4.3431,-4.3592,-4.3406,-4.2789,-4.2157,-4.1621,-4.1833,-4.1898,-4.1963,-4.2254,-4.2381,-4.2413,-4.2492,-4.2539,-4.2539,-4.2539,-4.2539,-4.2539,-4.2539,-4.2476,-4.2381,-4.2381,-4.2254,-4.2045,-4.1931,-4.1898,-4.1833,-4.1621,-4.1588,-4.1588,-4.1588,-4.1588,-4.1588,-4.1588,-4.1588,-4.1557,-4.1494,-4.1478,-4.1446,-4.1367,-4.083,-4.0341,-4.0031,-4.0236,-3.9822,-3.8457,-3.8319,-3.739,-3.5479,-3.527,-3.4629,-3.3374,-3.3269,-3.2895,-3.2241,-3.2218,-3.2218,-3.2218,-3.2218,-3.2218,-3.7636,0.0,0.0,0.0,-3.7063,-3.6978,-3.6978,-3.6978,-3.6978,-3.6978,-3.6978,-3.6978,-3.6978,-3.6978,-3.6993,0.0,-3.6628,-3.6365,-3.6286,-3.6373,-3.6593,-3.6948,-3.7883,-3.8297,-3.7918,-3.832,-3.8675,-3.8884,-3.9084,-3.9193,-3.9292,-3.9305,-3.9438,-3.9804,-3.9922,-4.0184,-4.0515,-4.0616,-4.0702,-4.0702,-4.0702,-4.0702,-4.0744,-4.159,-4.2548,-4.3491,-4.4358,-4.456,-4.4372,-4.4699,-4.4674,-4.4444,-4.478,-4.467,-4.4211,-4.3548,-4.309,-4.2837,-4.3055,-4.2852,-4.2553,-4.2864,-4.2719,-4.2413,-4.2571,-4.2602,-4.2602,-4.2602,-4.2602,-4.2602,-4.2602,-4.2571,-4.2508,-4.2508,-4.2429,-4.2349,-4.2238,-4.2109,-4.198,-4.1817,-4.167,-4.1588,-4.1588,-4.1588,-4.1588,-4.1588,-4.1588,-4.1588,-4.1588,-4.1588,-4.1588,-4.1588,-4.1531,-4.1247,-4.0702,-4.0945,-4.0714,-3.9734,-3.9306,-3.8512,-3.725,-3.6457,-3.5558,-3.4543,-3.3707,-3.3143,-3.2824,-3.2422,-3.2218,-3.2218,-3.2218,-3.2218,-3.7978,0.0,0.0,-3.7738,-3.7316,-3.6978,-3.6978,-3.6978,-3.6978,-3.6978,-3.6978,-3.6978,-3.6978,-3.6978,-3.694,-3.6836,-3.6589,-3.6365,-3.6325,-3.6714,-3.7112,-3.7387,-3.8672,-3.9423,-3.9261,-3.936,-3.9454,-3.9486,-3.9642,-3.9598,-3.9407,-3.9349,-3.9438,-3.9774,-3.9922,-4.014,-4.0471,-4.0873,-4.1071,-4.1057,-4.1296,-4.1408,-4.1408,-4.2304,-4.3491,-4.488,-4.5536,-4.5807,-4.5807,-4.5807,-4.5807,-4.5807,-4.5807,-4.5476,-4.4954,-4.4445,-4.4018,-4.3722,-4.3876,-4.3561,-4.3168,-4.3469,-4.3136,-4.2655,-4.2767,-4.2716,-4.2602,-4.2602,-4.2602,-4.2602,-4.2602,-4.2602,-4.2602,-4.2602,-4.2602,-4.2571,-4.2413,-4.2286,-4.2125,-4.1931,-4.1784,-4.167,-4.1621,-4.1588,-4.1588,-4.1588,-4.1588,-4.1588,-4.1588,-4.1588,-4.1588,-4.1588,-4.1916,-4.1917,-4.1421,-4.1687,-4.1549,-4.0867,-4.0331,-3.9704,-3.8821,-3.7682,-3.6574,-3.5571,-3.4244,-3.343,-3.3129,-3.2516,-3.2218,-3.2218,-3.2218,-3.2218,0.0,0.0,-3.7495,-3.7123,-3.6993,-3.6978,-3.6978,-3.6978,-3.6978,-3.6978,-3.6978,-3.6978,-3.6978,-3.6978,-3.6875,-3.647,-3.6405,-3.6325,-3.6126,-3.6633,-3.7346,-3.8352,-3.9075,-3.9731,0.0,-4.0371,-4.0227,-3.9996,-3.9818,-3.97,-3.97,-3.9452,-3.9526,-3.9966,-3.9996,-4.0213,-4.0702,-4.1548,-4.1949,-4.199,-4.2761,-4.3106,-4.3145,-4.4036,-4.4918,-4.5771,-4.5771,-4.5807,-4.5807,-4.5807,-4.5807,-4.5807,-4.5807,-4.5807,-4.5776,-4.576,-4.4855,-4.3687,-4.3722,-4.3671,-4.3725,-4.3897,-4.3639,-4.3214,-4.3346,-4.3025,-4.2602,-4.2602,-4.2602,-4.2602,-4.2602,-4.2602,-4.2602,-4.2602,-4.2602,-4.2571,-4.2413,-4.2381,-4.2286,-4.1963,-4.1898,-4.1833,-4.1621,-4.1588,-4.1588,-4.1588,-4.1588,-4.1588,-4.1588,-4.1588,-4.1588,-4.1588,-4.1916,-4.2093,-4.2077,-4.2381,-4.2294,-4.1612,-4.1533,-4.0918,-3.9518,-3.8807,-3.7622,-3.591,-3.482,-3.3768,-3.2739,-3.2372,-3.2218,-3.2218,-3.2218,-3.2218,-3.8381,0.0,-3.7709,-3.8138,-3.765,-3.7091,-3.7498,-3.7274,-3.6978,-3.6978,-3.6978,-3.6978,-3.6978,-3.6978,-3.6954,-3.6797,-3.6707,-3.6603,-3.6524,-3.7369,-3.8103,-3.8463,-3.9578,0.0,0.0,0.0,0.0,-4.0039,-3.9922,-3.9848,-3.97,-3.9452,-3.9438,-3.9818,-3.9922,-4.014,-4.0515,-4.0901,-4.1423,-4.199,-4.2801,-4.35,-4.4074,-4.4358,-4.4971,-4.5807,-4.5807,-4.5807,-4.5807,-4.5807,-4.5807,-4.5807,-4.5807,-4.5807,-4.5807,-4.5807,-4.5523,-4.5076,-4.5076,-4.478,-4.442,-4.4595,-4.4238,-4.3703,-4.3457,-4.3267,-4.3041,-4.27,-4.2602,-4.2602,-4.2602,-4.2602,-4.2602,-4.2602,-4.2602,-4.2571,-4.2413,-4.2318,-4.2158,-4.1931,-4.1784,-4.167,-4.1621,-4.1588,-4.1588,-4.1588,-4.1588,-4.1588,-4.1588,-4.1588,-4.167,-4.1784,-4.1996,-4.2142,-4.2286,-4.2476,-4.2489,-4.2294,-4.2278,-4.1845,-4.0934,-4.0259,-3.9393,-3.8304,-3.6592,-3.5533,-3.5146,-3.4106,-3.3575,-3.3575,-3.3575,-3.3575,-3.8135,-3.7965,-3.777,-3.8126,-3.7751,-3.7358,-3.754,-3.7274,-3.6978,-3.6978,-3.6978,-3.6978,-3.6978,-3.6978,-3.6993,-3.6875,-3.6786,-3.6721,-3.6721,-3.7738,-3.8532,-3.8628,-3.9845,-4.0702,0.0,0.0,0.0,-4.0257,-4.0083,-3.9922,-3.9818,-3.9584,-3.9703,-4.0257,-4.0488,-4.0859,-4.1381,-4.1852,-4.2493,-4.3373,-4.3881,-4.4434,-4.4955,-4.4955,-4.5284,-4.5807,-4.5807,-4.5807,-4.5807,-4.5807,-4.5807,-4.5807,-4.5807,-4.5807,-4.5807,-4.5807,-4.5807,-4.5807,-4.5807,-4.5507,-4.5096,-4.5239,-4.4849,-4.4254,-4.384,-4.3538,-4.3283,-4.2733,-4.2602,-4.2602,-4.2602,-4.2602,-4.2602,-4.2602,-4.2602,-4.2571,-4.2508,-4.2333,-4.2158,-4.2012,-4.185,-4.167,-4.1621,-4.1588,-4.1588,-4.1588,-4.1588,-4.1588,-4.1588,-4.1588,-4.167,-4.1866,-4.2029,-4.2174,-4.2381,-4.2508,-4.2602,-4.2602,-4.2602,-4.2392,-4.197,-4.1307,-4.0626,-3.9898,-3.8206,-3.7016,-3.6394,-3.5377,-3.4651,-3.4312,-3.4312,-3.4312,-3.7586,-3.7717,-3.7751,-3.7175,-3.747,-3.7751,-3.7161,-3.7007,-3.6978,-3.6978,-3.6978,-3.6978,0.0,0.0,-3.6954,-3.6747,-3.6721,-3.6721,-3.6721,-3.771,-3.8586,0.0,0.0,0.0,0.0,0.0,0.0,-4.0702,0.0,-3.9996,-3.9996,-3.9818,-4.0227,-4.1296,-4.1518,-4.2123,-4.3185,-4.4074,-4.4918,-4.5735,-4.5771,-4.5807,-4.5807,-4.5807,-4.5807,-4.5807,-4.5807,-4.5807,-4.5807,-4.5807,-4.5807,-4.5807,-4.5807,-4.5807,-4.5807,-4.5807,-4.5807,-4.5807,-4.5807,-4.5807,-4.5807,-4.5807,-4.5425,-4.4907,-4.4377,-4.3825,-4.3283,-4.2733,-4.2602,-4.2602,-4.2602,-4.2602,-4.2602,-4.2602,-4.2602,-4.2602,-4.2602,-4.2476,-4.2318,-4.2109,-4.198,-4.1833,-4.1621,-4.1588,-4.1588,-4.1588,-4.1588,-4.1588,-4.1588,-4.1588,-4.167,-4.1866,-4.1996,-4.2174,-4.2381,-4.2508,-4.2602,-4.2602,-4.2602,-4.2602,-4.2602,-4.1986,-4.1351,-4.0721,-3.9644,-3.8269,-3.6598,-3.6235,-3.551,-3.4457,-3.4457,-3.4442,-3.7148,-3.7507,-3.7864,-3.7709,-3.7793,-3.7864,-3.7709,-3.7316,-3.6978,-3.6978,-3.6978,-3.6978,0.0,0.0,0.0,-3.6915,-3.6915,0.0,-3.6915,-3.7573,0.0,-3.8846,0.0,-4.0196,-4.0659,-4.0702,0.0,0.0,-4.0457,-4.0298,-4.0298,-4.0067,-4.0402,-4.1476,-4.1545,-4.2123,-4.3185,-4.4074,-4.4601,-4.4843,-4.5484,-4.5807,-4.5807,-4.5807,-4.5807,-4.5807,-4.5807,-4.5807,-4.5807,-4.5807,-4.5807,-4.5807,-4.5807,-4.5807,-4.5807,-4.5807,-4.5807,-4.5807,-4.5807,-4.5807,-4.5807,-4.5807,-4.5353,-4.4681,-4.4327,-4.3757,-4.3152,-4.2702,-4.2602,-4.2602,-4.2602,-4.2602,-4.2602,-4.2602,-4.2602,-4.2571,-4.2476,-4.2318,-4.2125,-4.198,-4.1801,-4.167,-4.1621,-4.1588,-4.1588,-4.1588,-4.1588,-4.1588,-4.1588,-4.1588,-4.167,-4.1866,-4.1931,-4.2077,-4.2381,-4.2445,-4.2508,-4.2602,-4.2602,-4.2602,-4.2602,-4.2424,-4.2265,-4.2092,-4.1102,-4.023,-3.9529,-3.8627,-3.7684,-3.6687,-3.6687,-3.6413,-3.6978,-3.7428,-3.7835,-3.7569,-3.7695,-3.7835,-3.7569,-3.7231,-3.6978,-3.6978,-3.6978,0.0,-3.6978,0.0,0.0,0.0,0.0,0.0,-3.6978,-3.7512,-3.8145,0.0,-3.9451,0.0,-4.0531,-4.0986,-4.1212,0.0,-4.1001,-4.0773,-4.0442,-4.0873,-4.1407,-4.2,-4.2489,-4.3264,-4.432,-4.4843,-4.5083,-4.5083,-4.5573,-4.5807,-4.5807,-4.5807,-4.5807,-4.5807,0.0,-4.5807,-4.5807,-4.5807,-4.5807,-4.5807,-4.5807,-4.5807,-4.5807,-4.5807,-4.5807,-4.5807,-4.5807,-4.5602,-4.5333,-4.5333,-4.5049,-4.4563,-4.384,-4.3451,-4.3102,-4.2654,-4.2539,-4.2602,-4.2602,-4.2602,-4.2602,-4.2602,-4.2602,-4.2571,-4.2413,-4.2238,-4.2013,-4.1817,-4.167,-4.1588,-4.1588,-4.1588,-4.1588,-4.1588,-4.1588,-4.1588,-4.1588,-4.1588,-4.167,-4.1866,-4.1947,-4.2093,-4.2381,-4.2445,-4.2508,-4.2602,-4.2602,-4.2602,-4.2602,-4.2602,-4.2602,-4.2602,-4.2042,-4.1373,-4.0593,-4.0007,-3.9073,-3.7938,-3.7646,-3.7292,-3.6964,-3.7428,-3.7751,-3.7133,-3.7442,-3.7737,-3.7133,-3.6978,-3.6978,-3.6978,0.0,-3.6978,-3.6978,-3.6978,-3.6978,-3.6978,0.0,-3.6978,-3.6978,-3.7442,-3.8046,-3.8818,-3.938,-3.9859,-4.0416,-4.1395,-4.1893,-4.1684,-4.1877,-4.1616,-4.0801,-4.1961,-4.2746,-4.2866,-4.3881,-4.4858,-4.5771,-4.5807,-4.5807,-4.5807,-4.5807,-4.5807,-4.5807,-4.5807,-4.5807,-4.5807,-4.5807,-4.576,-4.5665,-4.5776,-4.576,-4.5665,-4.5776,-4.5807,-4.5807,-4.5807,-4.5807,-4.5807,-4.5697,-4.5254,-4.4717,-4.4717,-4.4591,-4.4246,-4.3198,-4.2952,-4.2957,-4.2526,-4.2476,-4.2571,-4.2602,-4.2602,-4.2602,-4.2602,-4.2602,-4.2571,-4.2445,-4.2238,-4.2013,-4.1654,-4.1588,-4.1588,-4.1588,-4.1588,-4.1588,-4.1588,-4.1588,-4.1588,-4.1588,-4.1588,-4.167,-4.1833,-4.198,-4.2142,-4.2349,-4.2508,-4.2571,-4.2602,-4.2602,-4.2602,-4.2602,-4.2602,-4.2602,-4.2602,-4.2602,-4.1964,-4.072,-4.072,-4.0018,-3.8631,-3.8046,-3.7677,-3.6838,-3.7428,-3.7751,-3.7133,-3.7442,-3.7737,-3.7133,-3.6978,0.0,0.0,-3.6978,-3.6978,-3.6978,-3.6978,-3.6978,-3.6978,0.0,0.0,0.0,0.0,-3.7569,0.0,0.0,0.0,0.0,0.0,0.0,0.0,0.0,-4.3554,-4.2534,-4.2881,-4.3437,-4.4151,-4.5046,-4.5609,-4.5807,-4.5807,-4.5807,-4.5807,-4.5807,-4.5807,-4.5807,-4.5807,-4.5807,-4.5807,-4.5807,0.0,-4.4954,-4.5555,-4.546,-4.4954,-4.557,-4.5807,-4.5807,-4.5807,-4.5807,-4.5728,-4.5112,-4.4828,-4.4717,-4.4717,-4.3959,-4.3029,-4.2912,-4.2551,-4.2155,-4.2366,-4.2413,-4.2476,-4.2571,-4.2602,-4.2602,-4.2602,-4.2602,-4.2602,-4.2571,-4.2302,-4.2013,-4.1654,-4.1588,-4.1588,-4.1588,-4.1588,-4.1588,-4.1588,-4.1588,-4.1588,-4.1588,-4.1588,-4.1621,-4.167,-4.1817,-4.198,-4.2142,-4.2318,-4.2476,-4.2602,-4.2602,-4.2602,-4.2602,-4.2602,-4.2602,-4.2602,-4.2602,-4.2205,-4.1447,-4.1447,-4.069,-3.9305,-3.9198,-3.8569,-3.6908,-3.7203,-3.7358,-3.7063,-3.7203,-3.7358,-3.7063,0.0,0.0,0.0,-3.6978,-3.6978,-3.6978,0.0,0.0,0.0,0.0,0.0,0.0,0.0,0.0,0.0,0.0,0.0,0.0,0.0,0.0,0.0,0.0,-4.4564,-4.3121,-4.3491,-4.4128,-4.4971,-4.5426,-4.5698,-4.5807,-4.5807,-4.5807,-4.5807,-4.5807,-4.5807,-4.5807,-4.5807,-4.5807,-4.5792,-4.5396,-4.5049,-4.4717,-4.4717,-4.4512,-4.4211,-4.4591,-4.4938,-4.5238,-4.5238,-4.5238,-4.5191,-4.4828,-4.4243,-4.3658,-4.3658,-4.3216,-4.2649,-4.2305,-4.2071,-4.1931,-4.2077,-4.227,-4.2413,-4.2476,-4.2539,-4.2602,-4.2602,-4.2539,-4.2476,-4.2365,-4.2158,-4.1915,-4.1654,-4.1588,-4.1588,-4.1588,-4.1588,-4.1588,-4.1588,-4.1588,-4.1588,-4.1588,-4.1588,-4.1588,-4.1588,-4.1784,-4.1947,-4.2077,-4.227,-4.2476,-4.2602,-4.2602,-4.2602,-4.2602,-4.2602,-4.2602,-4.2602,-4.2602,-4.2365,-4.1851,-4.1851,-4.1349,-4.0337,-3.9962,-3.9351,-3.6712,-3.6796,-3.6824,-3.695,-3.6978,-3.6978,-3.6978,-3.6978,0.0,0.0,-3.6978,-3.6978,-3.6978,0.0,-3.6978,0.0,0.0,0.0,0.0,0.0,0.0,0.0,0.0,0.0,0.0,0.0,0.0,0.0,0.0,0.0,-4.3827,-4.422,-4.4821,-4.5552,-4.5552,-4.5625,-4.5807,-4.5807,-4.5807,-4.5807,-4.5807,-4.5807,-4.5807,-4.5807,-4.5728,-4.5539,-4.4954,-4.4543,-4.4243,-4.388,-4.3627,-4.3485,-4.3658,-4.4003,-4.4496,-4.4496,-4.4496,-4.448,-4.4322,-4.3579,-4.2663,-4.2505,-4.2457,-4.2347,-4.1762,-4.1703,-4.1833,-4.1898,-4.2109,-4.2349,-4.2381,-4.2508,-4.2602,-4.2602,-4.2508,-4.2333,-4.2142,-4.198,-4.1833,-4.1621,-4.1588,-4.1588,-4.1588,-4.1588,-4.1588,-4.1588,-4.1588,-4.1588,-4.1588,-4.1588,-4.1588,-4.1588,-4.1817,-4.2012,-4.2142,-4.2349,-4.2476,-4.2602,-4.2602,-4.2602,-4.2602,-4.2602,-4.2602,-4.2602,-4.2602,-4.2445,-4.2109,-4.2109,-4.1785,-4.1174,-4.0607,-4.008,-3.5892,-3.6188,-3.6314,-3.6838,-3.6978,-3.6978,-3.6978,0.0,0.0,-3.6978,-3.6978,-3.6978,-3.6978,-3.6978,-3.6978,0.0,0.0,-3.6978,0.0,0.0,0.0,0.0,0.0,0.0,0.0,0.0,0.0,0.0,0.0,0.0,-4.5573,-4.5463,-4.5499,-4.5771,-4.5771,-4.5771,-4.5807,-4.5807,-4.5807,-4.5807,-4.5807,-4.5807,-4.5807,-4.5807,-4.5444,-4.4812,-4.4733,-4.4006,0.0,-4.345,-4.3342,-4.2837,-4.3469,-4.3734,-4.3782,-4.3785,-4.3785,-4.3687,-4.3105,-4.2789,-4.2584,-4.1904,-4.1683,-4.1683,-4.1604,-4.1621,-4.167,-4.1866,-4.2012,-4.2174,-4.2349,-4.2508,-4.2602,-4.2602,-4.2508,-4.2333,-4.2142,-4.198,-4.1833,-4.1621,-4.1588,-4.1588,-4.1588,-4.1588,-4.1588,-4.1588,-4.1588,-4.1588,-4.1588,-4.1588,-4.1588,-4.1588,-4.1883,-4.2142,-4.2349,-4.2508,-4.2602,-4.2602,-4.2602,-4.2602,-4.2602,-4.2602,-4.2602,-4.2602,-4.2602,-4.2445,-4.2109,-4.2109,-4.1916,-4.1555,-4.1176,-4.0649,-3.5878,-3.6429,-3.6696,-3.6513,-3.7096,-3.7596,-3.7095,0.0,-3.7596,-3.7095,-3.7744,-3.8271,-3.781,-3.8098,-3.8368,0.0,0.0,0.0,0.0,0.0,0.0,0.0,0.0,0.0,0.0,0.0,0.0,0.0,0.0,0.0,-4.5807,-4.5735,-4.5698,-4.5807,-4.5807,-4.5807,-4.5807,-4.5807,-4.5807,-4.5807,-4.5807,-4.5807,-4.5792,-4.5349,-4.4986,-4.467,-4.3848,-4.3184,0.0,-4.2505,-4.2284,-4.2047,-4.2331,-4.271,-4.3105,-4.309,-4.309,-4.3058,-4.2774,-4.2394,-4.1983,-4.1683,-4.1588,-4.1588,-4.1588,-4.1588,-4.1621,-4.1703,-4.1899,-4.2109,-4.2206,-4.2413,-4.2602,-4.2602,-4.2571,-4.2445,-4.2142,-4.2061,-4.1931,-4.1654,-4.1588,-4.1588,-4.1588,-4.1588,-4.1588,-4.1588,-4.1588,-4.1588,-4.1588,-4.1588,-4.167,-4.1784,-4.1801,-4.1916,-4.2206,-4.227,-4.2381,-4.2602,-4.2602,-4.2602,-4.2602,-4.2602,-4.2602,-4.2602,-4.2602,-4.2523,-4.2397,-4.2397,-4.2238,-4.1883,-4.1555,-4.1149,-3.6202,-3.6921,-3.7368,-3.6844,-3.763,-3.836,0.0,0.0,-3.836,-3.7796,-3.8554,-3.9139,-3.862,-3.8972,-3.9305,0.0,0.0,-3.9305,0.0,0.0,0.0,0.0,0.0,0.0,0.0,0.0,0.0,0.0,0.0,0.0,-4.5807,-4.5807,-4.5807,-4.5807,-4.5807,-4.5807,-4.5807,-4.5807,-4.5807,-4.5807,-4.5807,-4.5697,-4.5476,-4.4954,-4.4496,-4.4069,-4.3105,-4.2568,0.0,-4.181,-4.1588,-4.1588,-4.1588,-4.1904,-4.2363,-4.2363,-4.2363,-4.2363,-4.2363,-4.2015,-4.1588,-4.1588,-4.1588,-4.1588,-4.1588,-4.1621,-4.1703,-4.172,-4.1948,-4.2206,-4.2238,-4.2429,-4.2602,-4.2602,-4.2539,-4.2381,-4.2142,-4.2013,-4.1883,-4.1654,-4.1588,-4.1588,-4.1588,-4.1588,-4.1588,-4.1588,-4.1588,-4.1588,-4.1588,-4.1588,-4.167,-4.1784,-4.1752,-4.1818,-4.2142,-4.2174,-4.2318,-4.2602,-4.2602,-4.2602,-4.2602,-4.2602,-4.2602,-4.2602,-4.2602,-4.2602,-4.2602,-4.2602,-4.2476,-4.2238,-4.1785,-4.1357,-3.6816,-3.7636,-3.81,-3.8177,-3.8752,-3.9284,0.0,-3.9269,-3.9284,-3.9284,-3.9269,-3.9305,-3.9269,-3.9269,-3.9305,-3.9305,0.0,0.0,0.0,0.0,0.0,0.0,0.0,0.0,0.0,0.0,0.0,0.0,0.0,0.0,-4.5807,-4.5807,-4.5807,-4.5807,-4.5807,-4.5807,-4.5807,-4.5807,-4.5807,-4.5807,-4.5807,-4.5428,-4.4717,-4.4717,-4.399,-4.271,-4.2695,-4.2284,0.0,-4.1588,-4.1588,-4.1588,-4.1588,-4.1588,-4.1604,-4.1604,-4.1604,-4.1604,-4.1604,-4.1588,-4.1588,-4.1588,-4.1588,-4.1588,-4.1588,-4.1752,-4.1931,-4.2061,-4.2238,-4.2413,-4.2571,-4.2602,-4.2602,-4.2602,-4.2333,-4.2109,-4.2109,-4.1851,-4.1588,-4.1588,-4.1588,-4.1588,-4.1588,-4.1588,-4.1588,-4.1588,-4.1588,-4.1588,-4.1588,-4.1588,-4.1588,-4.1588,-4.1784,-4.2028,-4.2381,-4.2413,-4.2445,-4.2602,-4.2602,-4.2602,-4.2602,-4.2602,-4.2602,-4.2602,-4.2602,-4.2602,-4.2602,-4.2602,-4.2602,-4.2571,-4.1916,-4.1189,-3.6473,-3.7466,-3.8247,-3.7739,-3.8477,-3.9362,-3.9322,-3.9713,-3.996,-3.9427,-4.0135,-4.0737,-4.022,-4.0531,-4.0873,-4.0873,-4.0873,0.0,0.0,0.0,0.0,0.0,0.0,0.0,0.0,0.0,0.0,0.0,0.0,0.0,-4.5807,-4.5807,-4.5807,-4.5807,-4.5807,-4.5807,-4.5807,-4.5807,-4.5807,-4.5807,-4.5302,-4.4938,-4.4685,-4.3753,-4.309,-4.2663,-4.2157,-4.181,-4.1588,-4.1588,-4.1588,-4.1588,-4.1588,-4.1588,-4.1588,-4.1588,-4.1588,-4.1588,-4.1588,-4.1588,-4.1588,-4.1588,-4.1588,-4.1621,-4.1752,-4.1866,-4.1963,-4.2222,-4.2349,-4.2445,-4.2571,-4.2602,-4.2602,-4.2602,-4.2539,-4.2365,-4.2142,-4.2013,-4.1883,-4.1654,-4.1588,-4.1588,-4.1588,-4.1588,-4.1588,-4.1588,-4.1588,-4.1588,-4.1588,-4.1588,-4.1588,-4.1588,-4.167,-4.1834,-4.219,-4.2318,-4.2476,-4.2602,-4.2602,-4.2602,-4.2602,-4.2602,-4.2602,-4.2602,-4.2602,-4.2602,-4.2602,-4.2602,-4.246,-4.2238,-4.2045,-4.1687,0.0,-3.7927,-3.8702,-3.8223,-3.899,0.0,0.0,-4.0566,-4.0786,-4.0274,-4.094,-4.1456,-4.099,-4.1274,-4.1588,-4.1588,-4.1588,0.0,0.0,0.0,0.0,0.0,0.0,0.0,0.0,0.0,0.0,0.0,0.0,0.0,-4.5807,-4.5807,-4.5807,-4.5807,-4.5807,-4.5807,-4.5807,-4.5807,-4.5665,-4.5396,-4.4938,-4.4448,-4.3927,-4.3074,-4.2537,-4.2252,-4.1794,-4.1588,0.0,-4.1588,-4.1588,-4.1588,-4.1588,-4.1588,-4.1588,-4.1588,-4.1588,-4.1588,-4.1588,-4.1588,-4.1588,-4.1588,-4.1588,-4.1654,-4.1915,-4.2012,-4.2141,-4.2349,-4.2445,-4.2508,-4.2571,-4.2602,-4.2602,-4.2602,-4.2508,-4.2365,-4.2142,-4.2013,-4.1851,-4.1654,-4.1588,-4.1588,-4.1588,-4.1588,-4.1588,-4.1588,-4.1588,-4.1588,-4.1588,-4.1588,-4.1621,-4.1703,-4.1768,-4.1916,-4.2174,-4.2254,-4.2381,-4.2602,-4.2602,-4.2602,-4.2602,-4.2602,-4.2602,-4.2602,-4.2602,-4.2602,-4.2602,-4.2602,-4.2445,-4.2109,-4.2109,-4.1916,0.0,-3.8774,0.0,0.0,0.0,0.0,-4.1367,-4.1557,0.0,-4.1588,-4.1588,-4.1588,-4.1588,-4.1588,-4.1588,-4.1588,0.0,0.0,0.0,0.0,0.0,0.0,0.0,0.0,0.0,0.0,0.0,0.0,0.0,0.0,-4.5807,-4.5771,-4.5771,-4.5807,-4.5771,-4.5771,-4.5807,-4.576,-4.5396,-4.4717,-4.4606,-4.3911,-4.2695,-4.2631,-4.2236,0.0,-4.1588,-4.1588,-4.1588,-4.1588,-4.1588,-4.1588,-4.1588,-4.1588,-4.1588,-4.1588,-4.1588,-4.1588,-4.1588,-4.1588,-4.1588,-4.1588,-4.1588,-4.1654,-4.198,-4.2206,-4.2381,-4.2413,-4.2508,-4.2602,-4.2602,-4.2602,-4.2602,-4.2602,-4.2365,-4.2142,-4.2109,-4.1851,-4.1621,-4.1588,-4.1588,-4.1588,-4.1588,-4.1588,-4.1588,-4.1588,-4.1588,-4.1588,-4.1588,-4.1588,-4.167,-4.1866,-4.1996,-4.2142,-4.2349,-4.2254,-4.227,-4.2571,-4.2602,-4.2602,-4.2602,-4.2602,-4.2602,-4.2602,-4.2602,-4.2602,-4.2602,-4.2602,-4.2429,-4.2142,-4.2142,-4.198,-3.7726,0.0,-3.8699,-3.8732,-3.9251,-3.9945,0.0,-4.1225,-4.1588,-4.1588,-4.1588,-4.1588,-4.1588,-4.1588,-4.1588,0.0,0.0,0.0,0.0,0.0,0.0,0.0,0.0,0.0,0.0,0.0,0.0,0.0,0.0,-4.5807,-4.5807,-4.5662,-4.5625,-4.5823,-4.5515,-4.5478,-4.5807,-4.5254,-4.4875,-4.4701,-4.3658,-4.2995,-4.2679,-4.211,-4.1746,-4.1588,-4.1588,-4.1588,-4.1588,-4.1588,-4.1588,-4.1588,-4.1588,-4.1588,-4.1588,-4.1588,-4.1588,-4.1588,-4.1588,-4.1588,-4.1588,-4.1588,-4.1588,-4.1621,-4.1687,-4.1916,-4.2206,-4.2476,-4.2571,-4.2602,-4.2602,-4.2602,-4.2602,-4.2602,-4.2539,-4.2397,-4.2142,-4.2045,-4.1916,-4.1654,-4.1588,-4.1588,-4.1588,-4.1588,-4.1588,-4.1588,-4.1588,-4.1588,-4.1588,-4.1588,-4.1621,-4.167,-4.1687,-4.1851,-4.2142,-4.2365,-4.2508,-4.2602,-4.2602,-4.2602,-4.2602,-4.2602,-4.2602,-4.2602,-4.2602,-4.2602,-4.2602,-4.2602,-4.2571,-4.246,-4.246,-4.2429,-3.751,-3.7986,-3.8586,-3.8886,-3.9234,-3.9692,-4.0435,0.0,-4.113,-4.113,0.0,-4.1588,-4.1588,0.0,0.0,0.0,0.0,0.0,0.0,0.0,0.0,0.0,0.0,0.0,0.0,0.0,0.0,0.0,0.0,-4.5662,-4.5662,-4.5478,-4.5405,-4.5515,-4.5331,-4.5405,-4.5823,-4.4973,-4.4453,-4.4243,-4.3184,-4.2505,-4.2173,-4.1762,-4.1588,-4.1588,-4.1588,-4.1588,-4.1588,-4.1588,-4.1588,-4.1588,-4.1588,-4.1588,-4.1588,-4.1588,-4.1588,-4.1588,-4.1588,-4.1588,-4.1588,-4.1588,-4.1588,-4.1621,-4.1703,-4.1866,-4.2061,-4.2318,-4.2476,-4.2602,-4.2602,-4.2602,-4.2602,-4.2602,-4.2539,-4.2476,-4.2286,-4.2125,-4.1931,-4.1768,-4.167,-4.1588,-4.1588,-4.1588,-4.1588,-4.1588,-4.1588,-4.1588,-4.1588,-4.1588,-4.1621,-4.1736,-4.1752,-4.1834,-4.2077,-4.2333,-4.2539,-4.2602,-4.2602,-4.2602,-4.2602,-4.2602,-4.2602,-4.2602,-4.2602,-4.2602,-4.2602,-4.2602,-4.2602,-4.2602,-4.2602,-4.2602,-3.751,-3.7986,-3.8649,-3.9218,-3.9345,-3.9534,-4.0277,0.0,0.0,0.0,0.0,0.0,0.0,-4.2173,0.0,0.0,0.0,0.0,0.0,0.0,0.0,0.0,0.0,0.0,0.0,0.0,0.0,0.0,0.0,-4.5478,-4.5442,-4.5257,-4.512,-4.5064,-4.4989,-4.5112,-4.5383,-4.4645,-4.4016,-4.3479,-4.2853,-4.2189,-4.1588,-4.1588,-4.1588,-4.1588,0.0,0.0,-4.1588,-4.1588,-4.1588,-4.1588,-4.1588,-4.1588,-4.1588,-4.1588,-4.1588,-4.1588,-4.1588,-4.1588,-4.1588,-4.1588,-4.1588,-4.1621,-4.1784,-4.1866,-4.1931,-4.2029,-4.2286,-4.2539,-4.2539,-4.2539,-4.2539,-4.2539,-4.2445,-4.2349,-4.2318,-4.2109,-4.1898,-4.1866,-4.1703,-4.1588,-4.1588,-4.1588,-4.1588,-4.1588,-4.1588,-4.1588,-4.1588,-4.1588,-4.167,-4.1833,-4.1866,-4.1915,-4.2077,-4.2254,-4.2413,-4.2602,-4.2602,-4.2602,-4.2602,-4.2602,-4.2602,-4.2602,-4.2602,-4.2602,-4.2602,-4.2602,-4.2602,-4.2602,-4.2602,-4.2602,-3.751,-3.7986,-3.8508,-3.8634,-3.8665,-3.8839,-3.9518,-3.9677,0.0,0.0,0.0,0.0,0.0,-4.2094,0.0,0.0,0.0,0.0,0.0,0.0,0.0,0.0,0.0,0.0,0.0,0.0,0.0,0.0,0.0,-4.5442,-4.5257,-4.5055,-4.4775,-4.4377,-4.4037,-4.3758,-4.3595,-4.3561,-4.3223,-4.2598,-4.2043,-4.1699,-4.1588,-4.1588,-4.1588,-4.1588,0.0,-4.1588,-4.1588,-4.1588,-4.1588,-4.1588,-4.1588,-4.1588,-4.1588,-4.1588,-4.1588,-4.1588,-4.1588,-4.1588,-4.1588,-4.1588,-4.1588,-4.1621,-4.1621,-4.1752,-4.1898,-4.1931,-4.2029,-4.2174,-4.2174,-4.2174,-4.2174,-4.2174,-4.2142,-4.2109,-4.1996,-4.1931,-4.1866,-4.167,-4.1621,-4.1588,-4.1588,-4.1588,-4.1588,-4.1588,-4.1588,-4.1588,-4.1588,-4.1588,-4.1621,-4.1621,-4.167,-4.1753,-4.2077,-4.2142,-4.2286,-4.2571,-4.2602,-4.2602,-4.2602,-4.2602,-4.2602,-4.2602,-4.2602,-4.2602,-4.2602,-4.2602,-4.2602,-4.2602,-4.2602,-4.2602,-3.751,-3.7701,-3.8049,-3.8428,-3.8507,-3.8602,-3.8902,-3.8965,0.0,0.0,0.0,0.0,0.0,0.0,0.0,0.0,0.0,0.0,0.0,0.0,0.0,0.0,0.0,0.0,0.0,0.0,0.0,0.0,0.0,0.0,-4.4489,-4.3969,-4.3555,-4.3335,-4.3215,-4.2948,-4.2459,-4.2723,-4.2705,-4.2406,-4.1869,-4.1588,-4.1588,-4.1588,-4.1588,-4.1588,0.0,-4.1588,-4.1588,-4.1588,-4.1588,-4.1588,-4.1588,-4.1588,-4.1588,-4.1588,-4.1588,-4.1588,-4.1588,-4.1588,-4.1588,-4.1588,-4.1588,-4.1588,-4.1588,-4.167,-4.1752,-4.1752,-4.1931,-4.2109,-4.2109,-4.2109,-4.2109,-4.2109,-4.2109,-4.2109,-4.2174,-4.2028,-4.1882,-4.1883,-4.172,-4.1588,-4.1588,-4.1588,-4.1588,-4.1588,-4.1588,-4.1588,-4.1588,-4.1588,-4.1588,-4.1588,-4.1588,-4.1654,-4.1818,-4.198,-4.2238,-4.2571,-4.2602,-4.2602,-4.2602,-4.2602,-4.2602,-4.2602,-4.2602,-4.2602,-4.2602,-4.2602,-4.2602,-4.2602,-4.2602,-4.2602,-3.751,-3.751,-3.7636,-3.8144,-3.827,-3.8318,-3.8476,-3.8381,-3.8318,0.0,0.0,0.0,0.0,0.0,0.0,0.0,0.0,0.0,0.0,0.0,0.0,0.0,0.0,0.0,0.0,0.0,0.0,0.0,0.0,0.0,-4.3592,-4.2952,-4.254,-4.2371,-4.2484,-4.22,-4.1573,-4.1916,-4.2087,-4.2155,-4.1791,-4.1588,-4.1588,-4.1588,-4.1588,-4.1588,-4.1588,-4.1588,-4.1588,-4.1588,-4.1588,-4.1588,-4.1588,-4.1588,-4.1588,-4.1588,-4.1588,-4.1588,-4.1588,-4.1588,-4.1588,-4.1588,-4.1588,-4.1588,-4.1588,-4.1588,-4.1588,-4.1588,-4.1785,-4.198,-4.198,-4.198,-4.198,-4.198,-4.198,-4.2013,-4.2174,-4.2012,-4.185,-4.1948,-4.1785,-4.1588,-4.1588,-4.1588,-4.1588,-4.1588,-4.1588,-4.1588,-4.1588,-4.1588,-4.1588,-4.1588,-4.1588,-4.1621,-4.172,-4.2013,-4.2333,-4.2602,-4.2602,-4.2602,-4.2602,-4.2602,-4.2602,-4.2602,-4.2602,-4.2602,-4.2602,-4.2602,-4.2602,-4.2602,-4.2602,-4.2602,-3.751,-3.751,-3.7526,-3.7573,-3.7589,-3.7717,-3.8365,-3.8017,0.0,-3.8381,0.0,0.0,0.0,0.0,0.0,0.0,0.0,0.0,0.0,0.0,0.0,0.0,0.0,0.0,0.0,0.0,0.0,0.0,0.0,0.0,-4.2715,-4.2633,-4.2309,-4.1694,-4.1663,-4.143,-4.0876,-4.1078,-4.1265,-4.1402,-4.1521,-4.1588,-4.1588,-4.1588,-4.1588,-4.1588,-4.1588,-4.1588,-4.1588,-4.1588,-4.1588,-4.1588,-4.1588,-4.1588,-4.1588,-4.1588,-4.1588,-4.1588,-4.1588,-4.1588,-4.1588,-4.1588,-4.1588,-4.1588,-4.1588,-4.1588,-4.1588,-4.1588,-4.1621,-4.1621,-4.1621,-4.1621,-4.1621,-4.1621,-4.1621,-4.1654,-4.1654,-4.1621,-4.1621,-4.1621,-4.1621,-4.1588,-4.1588,-4.1588,-4.1588,-4.1588,-4.1588,-4.1588,-4.1588,-4.1588,-4.1588,-4.1588,-4.1588,-4.172,-4.2045,-4.2365,-4.2571,-4.2602,-4.2602,-4.2602,-4.2602,-4.2602,-4.2602,-4.2602,-4.2602,-4.2602,-4.2602,-4.2602,-4.2602,-4.2602,-4.2602,-4.2602,-3.751,-3.751,-3.751,-3.751,-3.751,0.0,0.0,-3.767,-3.7589,-3.7812,-3.8207,0.0,0.0,0.0,0.0,0.0,0.0,0.0,0.0,0.0,0.0,0.0,0.0,0.0,0.0,0.0,0.0,0.0,0.0,0.0,-4.1986,-4.1555,-4.1166,-4.0905,-4.1029,-4.1059,-4.1,-4.1138,-4.1305,-4.1489,-4.1555,-4.1588,-4.1588,-4.1588,-4.1588,-4.1588,-4.1588,-4.1588,-4.1588,-4.1588,-4.1588,-4.1588,-4.1588,-4.1588,-4.1588,-4.1588,-4.1588,-4.1588,-4.1588,-4.1588,-4.1588,-4.1588,-4.1588,-4.1588,-4.1588,-4.1588,-4.1588,-4.1588,-4.1588,-4.1588,-4.1588,-4.1588,-4.1588,-4.1588,-4.1588,-4.1621,-4.1752,-4.1703,-4.1621,-4.1752,-4.1703,-4.1588,-4.1588,-4.1588,-4.1588,-4.1588,-4.1588,-4.1588,-4.1588,-4.1588,-4.1588,-4.1588,-4.1588,-4.1703,-4.1947,-4.2158,-4.2333,-4.2476,-4.2539,-4.2602,-4.2602,-4.2602,-4.2602,-4.2602,-4.2602,-4.2602,-4.2602,-4.2602,-4.2602,-4.2602,-4.2602,-4.2602,-3.7749,-3.7668,-3.7557,-3.7749,0.0,0.0,-3.751,-3.751,-3.751,-3.751,-3.7859,-3.846,-3.9345,0.0,0.0,0.0,0.0,0.0,0.0,0.0,0.0,0.0,0.0,0.0,0.0,0.0,0.0,0.0,0.0,0.0,0.0,-4.0978,-4.072,-4.1005,-4.0923,-4.0984,-4.1169,-4.1256,-4.139,-4.1588,-4.1588,-4.1588,-4.1588,-4.1588,-4.1588,-4.1588,-4.1588,-4.1588,-4.1588,-4.1588,-4.1588,-4.1588,-4.1588,-4.1588,-4.1588,-4.1588,-4.1588,-4.1588,-4.1588,-4.1588,-4.1588,-4.1588,-4.1588,-4.1588,-4.1588,-4.1588,-4.1588,-4.1588,-4.1588,-4.1588,-4.1588,-4.1588,-4.1588,-4.1588,-4.1588,-4.1621,-4.1784,-4.1703,-4.1621,-4.1784,-4.1703,-4.1588,-4.1588,-4.1588,-4.1588,-4.1588,-4.1588,-4.1588,-4.1588,-4.1588,-4.1588,-4.1588,-4.167,-4.1752,-4.1898,-4.2029,-4.219,-4.2381,-4.2476,-4.2571,-4.2602,-4.2602,-4.2602,-4.2602,-4.2602,-4.2602,-4.2602,-4.2602,-4.2602,-4.2602,-4.2602,-4.2602,-3.8318,-3.8002,-3.7668,0.0,0.0,0.0,-3.751,-3.751,-3.751,-3.751,-3.751,-3.7921,-3.9234,0.0,0.0,0.0,0.0,0.0,0.0,0.0,0.0,0.0,0.0,0.0,0.0,0.0,0.0,0.0,0.0,0.0,0.0,-4.1171,-4.1212,-4.2053,-4.146,-4.1169,-4.129,-4.129,-4.139,-4.1588,-4.1588,-4.1588,-4.1588,-4.1588,-4.1588,-4.1588,-4.1588,-4.1588,-4.1588,-4.1588,-4.1588,-4.1604,-4.1604,-4.1604,-4.1604,-4.1604,-4.1604,-4.1604,-4.1588,-4.1588,-4.1604,-4.1588,-4.1588,-4.1588,-4.1604,-4.1604,-4.1604,-4.1604,-4.1604,-4.1604,-4.1604,-4.1588,-4.1588,-4.1588,-4.1588,-4.1588,-4.1588,-4.1588,-4.1588,-4.1588,-4.1588,-4.1588,-4.1588,-4.1588,-4.1588,-4.1588,-4.1588,-4.1588,-4.1588,-4.1588,-4.1588,-4.1588,-4.1784,-4.1898,-4.1898,-4.2029,-4.2174,-4.2381,-4.2413,-4.2476,-4.2602,-4.2602,-4.2602,-4.2602,-4.2602,-4.2602,-4.2602,-4.2602,-4.2602,-4.2602,-4.2602,-4.2602,-3.7733,-3.7668,0.0,-3.7733,0.0,0.0,0.0,-3.751,0.0,0.0,-3.751,-3.7779,-3.8649,0.0,0.0,0.0,0.0,0.0,0.0,0.0,0.0,0.0,0.0,0.0,0.0,0.0,0.0,0.0,0.0,0.0,0.0,-4.1109,-4.1127,-4.1398,-4.1663,-4.1622,-4.129,-4.1826,-4.1893,-4.1588,-4.1588,-4.1588,-4.1588,-4.1588,-4.1588,-4.1588,-4.1588,-4.1588,-4.1588,-4.1588,-4.1889,-4.2363,-4.2363,-4.2663,-4.3026,-4.2537,-4.2647,-4.295,-4.1936,-4.1936,-4.2284,-4.1762,-4.1588,-4.165,-4.2037,-4.216,-4.216,-4.216,-4.216,-4.2194,-4.2329,-4.1983,-4.1588,-4.1588,-4.1588,-4.1588,-4.1588,-4.1588,-4.1588,-4.1588,-4.1588,-4.1588,-4.1588,-4.1588,-4.1588,-4.1588,-4.1588,-4.1588,-4.1588,-4.1588,-4.1588,-4.1588,-4.167,-4.1703,-4.1703,-4.185,-4.2012,-4.2174,-4.2318,-4.2476,-4.2602,-4.2602,-4.2602,-4.2602,-4.2602,-4.2602,-4.2602,-4.2602,-4.2602,-4.2602,-4.2602,-4.2602,-3.8144,-3.7921,0.0,-3.7812,-3.7789,-3.7655,-3.7655,0.0,0.0,0.0,0.0,-3.781,-3.8728,0.0,0.0,0.0,0.0,0.0,0.0,0.0,0.0,0.0,0.0,0.0,0.0,0.0,0.0,0.0,0.0,0.0,0.0,-4.1343,-4.1362,-4.1711,-4.1821,-4.1747,-4.1423,-4.1864,-4.2073,-4.2031,-4.2031,-4.2173,-4.2426,-4.1841,-4.1588,-4.1604,-4.1904,-4.2173,-4.241,-4.241,-4.2695,-4.3105,-4.3105,-4.3358,-4.364,-4.3263,-4.3358,-4.3579,-4.2726,-4.2552,-4.2663,-4.2489,-4.2252,-4.2157,-4.2748,-4.2729,-4.2509,-4.2509,-4.2304,-4.2118,-4.2219,-4.192,-4.1652,-4.1952,-4.181,-4.1588,-4.1588,-4.1588,-4.1588,-4.1588,-4.1588,-4.1588,-4.1588,-4.1588,-4.1588,-4.1588,-4.1588,-4.1588,-4.1588,-4.1588,-4.1588,-4.1588,-4.1588,-4.1588,-4.1588,-4.1703,-4.185,-4.1996,-4.219,-4.2349,-4.2508,-4.2571,-4.2602,-4.2602,-4.2602,-4.2602,-4.2602,-4.2602,-4.2602,-4.2602,-4.2602,-4.2602,-3.8981,0.0,0.0,-3.827,-3.8146,0.0,-3.7943,-3.7743,-3.7569,-3.751,0.0,-3.7951,0.0,0.0,0.0,0.0,0.0,0.0,0.0,0.0,0.0,0.0,0.0,0.0,0.0,0.0,0.0,0.0,0.0,0.0,0.0,-4.1684,-4.1722,-4.2568,-4.1999,-4.1652,-4.1588,-4.1652,-4.1983,-4.2584,-4.2584,-4.2916,-4.345,-4.2315,-4.1778,-4.181,-4.2489,-4.3121,-4.3709,-4.3709,-4.3737,-4.3782,-4.3782,-4.3813,-4.3876,-4.3813,-4.3813,-4.3861,-4.3734,-4.3311,-4.2868,-4.3437,-4.32,-4.2821,-4.3466,-4.3292,-4.2853,-4.2789,-4.2299,-4.1762,-4.1699,-4.1636,-4.1778,-4.2505,-4.2126,-4.1588,-4.1588,-4.1588,-4.1588,-4.1588,-4.1588,-4.1588,-4.1588,-4.1588,-4.1588,-4.1588,-4.1588,-4.1588,-4.1588,-4.1588,-4.1588,-4.1588,-4.1588,-4.1588,-4.1588,-4.1588,-4.1703,-4.1898,-4.1996,-4.219,-4.2381,-4.2539,-4.2602,-4.2602,-4.2602,-4.2602,-4.2602,-4.2602,-4.2602,-4.2602,-4.2602,-4.2602,-3.7858,-3.7731,0.0,0.0,-3.7825,-3.7972,-3.8234,-3.825,-3.8078,0.0,0.0,0.0,0.0,0.0,0.0,0.0,0.0,0.0,0.0,0.0,0.0,0.0,0.0,0.0,0.0,0.0,0.0,0.0,0.0,0.0,-4.1743,-4.1601,-4.1634,-4.1825,-4.2236,-4.2173,-4.1588,-4.2157,-4.2236,-4.1825,-4.1825,-4.1904,-4.2078,-4.29,-4.3248,-4.3282,-4.3421,-4.3579,-4.3722,-4.3722,-4.4022,-4.4496,-4.4496,-4.4859,-4.5302,-4.4717,-4.4859,-4.5207,-4.4066,-4.3611,-4.344,-4.3026,-4.2805,-4.2821,-4.3312,-4.3713,-4.3902,-4.3403,-4.3135,-4.2934,-4.255,-4.2015,-4.1778,-4.2505,-4.2126,-4.1588,-4.1588,-4.1588,-4.1588,-4.1588,-4.1588,-4.1588,-4.1588,-4.1588,-4.1588,-4.1588,-4.1588,-4.1588,-4.1588,-4.1588,-4.1588,-4.1588,-4.1588,-4.1588,-4.1588,-4.1588,-4.1703,-4.1898,-4.1931,-4.2077,-4.2381,-4.2539,-4.2602,-4.2602,-4.2602,-4.2602,-4.2602,-4.2602,-4.2602,-4.2602,-4.2602,-4.2602,-3.8082,0.0,0.0,-3.8091,0.0,0.0,-3.8544,0.0,0.0,0.0,0.0,0.0,0.0,0.0,0.0,0.0,0.0,0.0,0.0,0.0,0.0,0.0,0.0,0.0,0.0,0.0,0.0,0.0,0.0,-4.1588,-4.1588,-4.1588,-4.1588,-4.1588,-4.1952,-4.1983,-4.1588,-4.1968,-4.2157,-4.211,-4.211,-4.2284,-4.2616,-4.2679,-4.2884,-4.3216,-4.3564,-4.3876,-4.4192,-4.4575,-4.4922,-4.5238,-4.5238,-4.5476,-4.576,-4.5381,-4.5476,-4.5713,-4.497,-4.448,-4.418,-4.418,-4.3943,-4.375,-4.4374,-4.4339,-4.3988,-4.3646,-4.3047,-4.2498,-4.2252,-4.1873,-4.1683,-4.2062,-4.1873,-4.1588,-4.1588,-4.1588,-4.1588,-4.1588,-4.1588,-4.1588,-4.1588,-4.1588,-4.1588,-4.1588,-4.1588,-4.1588,-4.1588,-4.1588,-4.1588,-4.1588,-4.1588,-4.1588,-4.1588,-4.1703,-4.1752,-4.1752,-4.2012,-4.2158,-4.2238,-4.2476,-4.2602,-4.2602,-4.2602,-4.2602,-4.2602,-4.2602,-4.2602,-4.2602,-4.2602,-4.2424,-3.859,0.0,-3.8448,-3.8722,-3.8805,0.0,0.0,0.0,0.0,0.0,0.0,0.0,0.0,0.0,0.0,0.0,0.0,0.0,0.0,0.0,0.0,0.0,0.0,0.0,0.0,0.0,0.0,0.0,0.0,-4.1588,-4.1588,-4.1588,-4.1588,-4.1588,-4.1588,-4.1588,-4.1588,-4.1588,-4.1889,-4.2505,-4.2505,-4.2789,-4.3311,-4.2126,-4.2062,-4.29,-4.3469,-4.4003,-4.4591,-4.5207,-4.546,-4.546,-4.546,-4.5523,-4.5618,-4.5618,-4.5618,-4.5649,-4.5776,-4.5254,-4.4638,-4.5254,-4.5033,-4.4638,-4.5128,-4.4543,-4.369,-4.3548,-4.2713,-4.1746,-4.162,-4.1588,-4.1588,-4.1588,-4.1588,-4.1588,-4.1588,-4.1588,-4.1588,-4.1588,-4.1588,-4.1588,-4.1588,-4.1588,-4.1588,-4.1588,-4.1588,-4.1588,-4.1588,-4.1588,-4.1588,-4.1588,-4.1588,-4.1588,-4.1588,-4.1752,-4.1784,-4.167,-4.2061,-4.2254,-4.2142,-4.2413,-4.2571,-4.2602,-4.2602,-4.2602,-4.2602,-4.2602,-4.2602,-4.2602,-4.2473,-4.2132,0.0,0.0,-3.8448,0.0,0.0,0.0,0.0,0.0,0.0,0.0,0.0,0.0,0.0,0.0,0.0,0.0,0.0,0.0,0.0,0.0,0.0,0.0,0.0,0.0,0.0,0.0,0.0,0.0,-4.1588,-4.1588,-4.1588,-4.1588,-4.1588,-4.1588,-4.1588,-4.1588,-4.1588,-4.1588,-4.1636,-4.1746,-4.1746,-4.1778,-4.1873,-4.1683,-4.2315,-4.3561,-4.3655,-4.3734,-4.3829,-4.3924,-4.3971,-4.3971,-4.3971,-4.4354,-4.4859,-4.4859,-4.4859,-4.4954,-4.5586,-4.4954,-4.3845,-4.394,-4.3892,-4.3718,-4.3263,-4.3374,-4.3564,-4.2979,-4.2695,-4.2394,-4.1762,-4.1588,-4.1588,-4.1588,-4.1588,-4.1588,-4.1588,-4.1588,-4.1588,-4.1588,-4.1588,-4.1588,-4.1588,-4.1588,-4.1588,-4.1588,-4.1588,-4.1588,-4.1588,-4.1588,-4.1588,-4.1588,-4.1588,-4.1588,-4.1588,-4.1621,-4.1703,-4.1866,-4.1931,-4.2093,-4.2349,-4.2413,-4.2476,-4.2602,-4.2602,-4.2602,-4.2602,-4.2602,-4.2602,-4.2586,-4.2002,-4.1693,-3.8639,-3.8958,-3.9202,0.0,0.0,0.0,0.0,0.0,0.0,0.0,0.0,0.0,0.0,0.0,0.0,0.0,0.0,0.0,0.0,0.0,0.0,0.0,0.0,0.0,0.0,0.0,0.0,0.0,-4.1883,-4.1785,-4.1621,-4.1588,-4.1588,-4.1588,-4.1588,-4.1588,-4.1588,-4.1588,-4.1588,-4.1588,-4.1588,-4.1588,-4.1588,-4.1588,-4.1936,-4.2552,-4.2963,-4.3137,-4.3184,-4.3529,-4.3687,-4.3687,-4.3687,-4.3876,-4.4148,-4.4132,-4.4148,-4.4211,-4.4492,-4.4208,-4.3687,-4.3706,-4.3706,-4.3624,-4.3358,-4.32,-4.3092,-4.2774,-4.2394,-4.1999,-4.1667,-4.1588,-4.1588,-4.1588,-4.1588,-4.1588,-4.1588,-4.1588,-4.1588,-4.1588,-4.1588,-4.1588,-4.1588,-4.1588,-4.1588,-4.1588,-4.1588,-4.1588,-4.1588,-4.1588,-4.1588,-4.1588,-4.1588,-4.1588,-4.1588,-4.1703,-4.1752,-4.1736,-4.1915,-4.2045,-4.2109,-4.219,-4.227,-4.2302,-4.2492,-4.2602,-4.2602,-4.2539,-4.2283,-4.1927,-4.1511,-4.0945,0.0,0.0,0.0,0.0,0.0,0.0,0.0,0.0,0.0,0.0,0.0,0.0,0.0,0.0,0.0,0.0,0.0,0.0,0.0,0.0,0.0,0.0,0.0,0.0,0.0,0.0,0.0,0.0,-4.1614,-4.1596,-4.1368,-4.1494,-4.1588,-4.1588,-4.1588,-4.1588,-4.1588,-4.1588,-4.1588,-4.1588,-4.1588,-4.1588,-4.1588,-4.1588,-4.1588,-4.162,-4.2173,-4.241,-4.2457,-4.2963,-4.3184,-4.3184,-4.3184,-4.3295,-4.3453,-4.3437,-4.3437,-4.345,-4.3624,-4.3576,-4.3453,-4.3437,-4.3453,-4.3421,-4.3232,-4.2821,-4.241,-4.241,-4.2015,-4.1588,-4.1588,-4.1588,-4.1588,-4.1588,-4.1588,-4.1588,-4.1588,-4.1588,-4.1588,-4.1588,-4.1588,-4.1588,-4.1588,-4.1588,-4.1588,-4.1588,-4.1588,-4.1588,-4.1588,-4.1588,-4.1588,-4.1588,-4.1588,-4.1588,-4.1588,-4.1752,-4.1784,-4.167,-4.1899,-4.2029,-4.1947,-4.2222,-4.2349,-4.2349,-4.2564,-4.259,-4.2436,-4.2311,-4.2017,-4.1504,-4.1186,-4.0491,0.0,0.0,0.0,0.0,0.0,0.0,0.0,0.0,0.0,0.0,0.0,0.0,0.0,0.0,0.0,0.0,0.0,0.0,0.0,0.0,0.0,0.0,0.0,0.0,0.0,0.0,0.0,0.0,-4.0293,-4.0688,-4.0656,-4.1241,-4.1588,-4.1588,-4.1588,-4.1588,-4.1588,-4.1588,-4.1588,-4.1588,-4.1588,-4.1588,-4.1588,-4.1588,-4.1588,-4.1588,-4.1636,-4.1652,-4.1652,-4.1683,-4.1699,-4.1699,-4.1699,-4.2126,-4.2742,-4.2742,-4.2742,-4.2837,-4.35,-4.3295,-4.2742,-4.2742,-4.2742,-4.2616,-4.1904,-4.1667,-4.1652,-4.1652,-4.162,-4.1588,-4.1588,-4.1588,-4.1588,-4.1588,-4.1588,-4.1588,-4.1588,-4.1588,-4.1588,-4.1588,-4.1588,-4.1588,-4.1588,-4.1588,-4.1588,-4.1588,-4.1588,-4.1588,-4.1588,-4.1588,-4.1588,-4.1588,-4.1588,-4.1588,-4.1588,-4.1621,-4.1703,-4.1866,-4.1898,-4.1947,-4.2077,-4.2695,-4.3052,-4.3052,-4.2928,-4.2564,-4.1929,-4.1929,-4.1864,-4.1783,-4.1184,-4.06,0.0,0.0,0.0,0.0,0.0,0.0,0.0,0.0,0.0,0.0,0.0,0.0,0.0,0.0,0.0,0.0,0.0,0.0,0.0,0.0,0.0,0.0,0.0,0.0,0.0,0.0,0.0,0.0,0.0,-4.0367,-3.9929,-4.0119,-4.0245,-4.0245,-4.0245,-4.0482,-4.0956,-4.1367,-4.1588,-4.1588,-4.1588,-4.1588,-4.1588,-4.1588,-4.1588,-4.1588,-4.1588,-4.1588,-4.1588,-4.1588,-4.1588,-4.1588,-4.1588,-4.1746,-4.1983,-4.1983,-4.1983,-4.2015,-4.2268,-4.2189,-4.1983,-4.1983,-4.1983,-4.1936,-4.1667,-4.1588,-4.1588,-4.1588,-4.1588,-4.1588,-4.1588,-4.1588,-4.1588,-4.1588,-4.1588,-4.1588,-4.1588,-4.1588,-4.1588,-4.1588,-4.1588,-4.1588,-4.1588,-4.1588,-4.1588,-4.1588,-4.1588,-4.1588,-4.1588,-4.1588,-4.1588,-4.1588,-4.1588,-4.1588,-4.1588,-4.1588,-4.1621,-4.1703,-4.2109,-4.2349,-4.2412,-4.3033,-4.3135,-4.266,-4.2601,-4.2555,-4.2526,-4.1931,-4.142,-4.0961,-4.0265,-3.9842,-4.0468,0.0,0.0,0.0,0.0,0.0,0.0,0.0,0.0,0.0,0.0,0.0,0.0,0.0,0.0,0.0,0.0,0.0,0.0,0.0,0.0,0.0,0.0,0.0,0.0,0.0,0.0,0.0,0.0,0.0,-3.9478,-3.9686,-3.9752,-3.9675,-3.9565,-3.974,-4.023,-4.0672,-4.0893,-4.0893,-4.0893,-4.102,-4.1257,-4.1257,-4.1383,-4.1588,-4.1588,-4.1588,-4.1588,-4.1588,-4.1588,-4.1588,-4.1588,-4.1588,-4.1588,-4.1588,-4.1687,-4.1753,-4.1753,-4.1753,-4.1753,-4.1753,-4.1687,-4.1588,-4.1588,-4.1737,-4.1932,-4.1932,-4.1932,-4.1932,-4.1932,-4.1785,-4.1588,-4.1588,-4.1588,-4.1588,-4.1588,-4.1588,-4.1588,-4.1588,-4.1588,-4.1588,-4.1588,-4.1588,-4.1588,-4.1588,-4.1588,-4.1588,-4.1588,-4.1588,-4.1588,-4.1588,-4.1802,-4.1932,-4.1932,-4.2142,-4.2253,-4.2253,-4.2663,-4.2796,-4.2537,-4.3118,-4.3077,-4.236,-4.2289,-4.2364,-4.2588,-4.1768,-4.1094,-4.06,-4.0188,-3.9894,0.0,0.0,0.0,0.0,0.0,0.0,0.0,0.0,0.0,0.0,0.0,0.0,0.0,0.0,0.0,0.0,0.0,0.0,0.0,0.0,0.0,0.0,0.0,0.0,0.0,0.0,0.0,0.0,-3.9035,-3.9379,-3.9379,-3.9997,-4.0236,-3.9982,-3.9658,-3.9502,-3.9502,-3.9518,-3.9534,-3.9534,-3.9534,-3.9898,-4.0593,-4.0593,-4.0957,-4.1558,-4.1591,-4.1591,-4.1591,-4.1606,-4.1588,-4.1588,-4.1621,-4.1654,-4.1654,-4.1638,-4.1867,-4.2142,-4.2142,-4.2142,-4.2142,-4.2142,-4.1916,-4.1654,-4.1654,-4.211,-4.2617,-4.2617,-4.2585,-4.2585,-4.2585,-4.2093,-4.1588,-4.1588,-4.1588,-4.1588,-4.1588,-4.1588,-4.1588,-4.1588,-4.1588,-4.1588,-4.1588,-4.1588,-4.1588,-4.1588,-4.1588,-4.1588,-4.1588,-4.1621,-4.1621,-4.1621,-4.2238,-4.2617,-4.2617,-4.3152,-4.3512,-4.3512,-4.3479,-4.3194,-4.2469,-4.2987,-4.298,-4.2209,-4.2063,-4.1999,-4.1981,-4.1367,-4.1035,-4.0912,-4.1047,-4.0847,-3.961,0.0,0.0,0.0,0.0,0.0,0.0,0.0,0.0,0.0,0.0,0.0,0.0,0.0,0.0,0.0,0.0,0.0,0.0,0.0,0.0,0.0,0.0,0.0,0.0,0.0,0.0,0.0,-3.9263,-3.9039,-3.9177,-3.9039,-3.9028,-3.9217,-3.9353,-3.9438,-3.9438,-3.9923,-4.0134,-4.0134,-4.0134,-4.0246,-4.0455,-4.0455,-4.0551,-4.0759,-4.1119,-4.1311,-4.1349,-4.1534,-4.1588,-4.1654,-4.2253,-4.2459,-4.2537,-4.3073,-4.3254,-4.3257,-4.3257,-4.3196,-4.3092,-4.3092,-4.3061,-4.2939,-4.288,-4.2972,-4.3019,-4.257,-4.246,-4.2365,-4.1964,-4.1753,-4.1588,-4.1588,-4.1588,-4.1588,-4.1588,-4.1588,-4.1588,-4.1588,-4.1588,-4.1588,-4.1588,-4.1588,-4.1588,-4.1588,-4.1588,-4.1588,-4.1588,-4.2013,-4.2333,-4.2333,-4.2863,-4.3243,-4.3243,-4.3393,-4.3512,-4.3512,-4.3603,-4.3532,-4.3345,-4.3409,-4.3111,-4.2368,-4.212,-4.1757,-4.1205,-4.1037,-4.0934,-4.0912,-4.0935,-4.0645,0.0,0.0,0.0,0.0,0.0,0.0,-4.0968,-4.092,-4.0754,0.0,0.0,0.0,0.0,0.0,0.0,0.0,0.0,0.0,0.0,0.0,0.0,0.0,0.0,0.0,0.0,-4.04,-4.0228,-4.0153,-3.9636,-3.9216,-3.8995,-3.8772,-3.8745,-3.8881,-3.9054,-3.9226,-3.9445,-3.9674,-3.9842,-4.0041,-4.0081,-4.0257,-4.0536,-4.0593,-4.0786,-4.1082,-4.1281,-4.1365,-4.1375,-4.1427,-4.1538,-4.1797,-4.2097,-4.2427,-4.2795,-4.3032,-4.3377,-4.3731,-4.3731,-4.3689,-4.3647,-4.3676,-4.3601,-4.3482,-4.341,-4.3439,-4.3426,-4.308,-4.2988,-4.2803,-4.2077,-4.2126,-4.2349,-4.2077,-4.2029,-4.1932,-4.1654,-4.172,-4.1753,-4.1621,-4.1588,-4.1588,-4.1588,-4.167,-4.1703,-4.1621,-4.19,-4.2077,-4.2013,-4.2569,-4.2986,-4.2986,-4.366,-4.4095,-4.4095,-4.4418,-4.4487,-4.4153,-4.4181,-4.3914,-4.3184,-4.3148,-4.2765,-4.1922,-4.1858,-4.1609,-4.1198,-4.1006,-4.0912,-4.0912,-4.0912,-4.0758,0.0,0.0,0.0,0.0,0.0,0.0,-4.0618,-4.0661,-4.0706,0.0,0.0,0.0,0.0,0.0,0.0,0.0,0.0,0.0,0.0,0.0,0.0,0.0,0.0,0.0,-4.0497,-4.0618,-4.0514,-4.0163,-4.0137,-3.9774,-3.9007,-3.9017,-3.9065,-3.9043,-3.8947,-3.9135,-3.9595,-3.9256,-3.9256,-3.9604,-3.9716,-4.0104,-4.0667,-4.0788,-4.1212,-4.1827,-4.1631,-4.154,-4.154,-4.1366,-4.1542,-4.1876,-4.1638,-4.2011,-4.2652,-4.2431,-4.3012,-4.3908,-4.3937,-4.3937,-4.392,-4.3967,-4.3774,-4.3556,-4.351,-4.3643,-4.3762,-4.3676,-4.3589,-4.3297,-4.2326,-4.2698,-4.3158,-4.258,-4.2583,-4.2522,-4.1835,-4.2045,-4.2238,-4.1835,-4.1785,-4.1785,-4.1785,-4.1931,-4.2029,-4.1835,-4.2427,-4.2863,-4.2756,-4.3273,-4.3689,-4.3702,-4.4518,-4.5028,-4.5028,-4.5751,-4.5852,-4.5032,-4.4916,-4.4137,-4.2492,-4.252,-4.2158,-4.13,-4.1475,-4.1604,-4.1604,-4.1175,-4.0965,-4.0965,-4.0965,-4.1065,0.0,0.0,0.0,0.0,0.0,0.0,-3.9741,-3.9805,-3.9712,0.0,0.0,0.0,0.0,0.0,0.0,0.0,0.0,0.0,0.0,0.0,0.0,0.0,0.0,0.0,-4.1197,-4.1123,-4.1232,-4.156,-4.1209,-4.0659,-3.9969,-3.962,-3.9636,-3.9927,-3.962,-3.9697,-4.0211,-4.0161,-4.0161,-4.0211,-4.026,-4.0328,-4.0464,-4.0489,-4.0574,-4.0736,-4.1095,-4.1281,-4.1304,-4.169,-4.1635,-4.1433,-4.2105,-4.2471,-4.2781,-4.4043,-4.4566,-4.4705,-4.4754,-4.4703,-4.4524,-4.4076,-4.3885,-4.3776,-4.3617,-4.3617,-4.3475,-4.2794,-4.2161,-4.1556,-4.0929,-4.1501,-4.2076,-4.1527,-4.2395,-4.3169,-4.2554,-4.3164,-4.3664,-4.2958,-4.282,-4.282,-4.282,-4.3003,-4.3152,-4.3152,-4.3257,-4.3436,-4.361,-4.422,-4.4712,-4.4912,-4.5554,-4.5945,-4.5945,-4.6112,-4.5797,-4.483,-4.4347,-4.367,-4.2689,-4.2103,-4.1789,-4.1766,-4.1653,-4.1604,-4.1604,-4.1515,-4.1471,-4.1471,-4.1471,-4.1475,0.0,0.0,0.0,-3.7708,0.0,0.0,0.0,-3.9287,-3.9494,-3.9317,0.0,0.0,0.0,0.0,0.0,0.0,0.0,0.0,0.0,0.0,0.0,0.0,0.0,0.0,-4.0514,-4.0492,-4.0531,-4.0595,-4.0043,-3.9679,-3.96,-3.9593,-3.9836,-4.0383,-4.0277,-4.0449,-4.1007,-4.0819,-4.0819,-4.1007,-4.1076,-4.11,-4.11,-4.1169,-4.1209,-4.1209,-4.1346,-4.1408,-4.1408,-4.156,-4.144,-4.1265,-4.1783,-4.2262,-4.2715,-4.3312,-4.3802,-4.4115,-4.4129,-4.4154,-4.4101,-4.3896,-4.3757,-4.3668,-4.3578,-4.335,-4.2943,-4.2071,-4.1726,-4.1494,-4.1144,-4.151,-4.1934,-4.1688,-4.2268,-4.2745,-4.2386,-4.2892,-4.3396,-4.3355,-4.3609,-4.3715,-4.336,-4.3499,-4.366,-4.3685,-4.4033,-4.439,-4.4578,-4.5153,-4.5597,-4.5734,-4.6144,-4.6222,-4.5834,-4.5918,-4.5464,-4.4177,-4.385,-4.3284,-4.2339,-4.2082,-4.2016,-4.2103,-4.1998,-4.1952,-4.1952,-4.1952,-4.1845,-4.1604,-4.1604,-4.1653,0.0,0.0,0.0,0.0,0.0,-3.8098,0.0,0.0,0.0,-3.929,0.0,0.0,0.0,0.0,0.0,0.0,0.0,0.0,0.0,0.0,0.0,0.0,0.0,0.0,-3.9476,-3.9613,-3.9593,-3.9314,-3.8729,-3.8563,-3.8952,-3.9261,-3.9692,-4.0249,-4.0491,-4.0851,-4.1398,-4.1208,-4.1295,-4.1604,-4.1714,-4.1758,-4.1758,-4.188,-4.1923,-4.1902,-4.1688,-4.1604,-4.1582,-4.1386,-4.1277,-4.1277,-4.1368,-4.1821,-4.2421,-4.2222,-4.2601,-4.3218,-4.3225,-4.3315,-4.3417,-4.3419,-4.3349,-4.3261,-4.3261,-4.2874,-4.232,-4.1649,-4.1656,-4.1769,-4.1513,-4.1765,-4.2085,-4.2025,-4.2258,-4.2448,-4.224,-4.2569,-4.3013,-4.3485,-4.4092,-4.4421,-4.4012,-4.4123,-4.4277,-4.4339,-4.4895,-4.5372,-4.5528,-4.5995,-4.6231,-4.6121,-4.6312,-4.6111,-4.529,-4.5441,-4.4959,-4.3526,-4.3437,-4.2956,-4.1931,-4.2145,-4.2308,-4.2308,-4.2308,-4.2308,-4.2308,-4.2308,-4.21,-4.1736,-4.1736,-4.1805,0.0,0.0,0.0,0.0,-3.7179,0.0,0.0,0.0,-3.7543,-3.7581,0.0,0.0,0.0,0.0,0.0,0.0,0.0,0.0,0.0,0.0,0.0,0.0,0.0,0.0,0.0,-3.9245,-3.9409,-3.9537,-3.9329,-3.9072,-3.8851,-3.8873,-3.8925,-3.8994,-3.9604,-4.0165,-4.0697,-4.1253,-4.1542,-4.1604,-4.1626,-4.1626,-4.1626,-4.1626,-4.1648,-4.1648,-4.1604,-4.1604,-4.1604,-4.156,-4.1542,-4.1542,-4.1448,-4.1455,-4.1635,-4.2421,-4.2759,-4.2852,-4.2914,-4.3027,-4.3054,-4.2473,-4.2349,-4.2451,-4.2451,-4.2178,-4.1872,-4.1788,-4.1521,-4.1196,-4.0681,-4.1324,-4.197,-4.1444,-4.2484,-4.3478,-4.2994,-4.3652,-4.4185,-4.3534,-4.3933,-4.4572,-4.5398,-4.5751,-4.5945,-4.5928,-4.602,-4.6186,-4.6429,-4.6501,-4.6371,-4.5886,-4.586,-4.5579,-4.4755,-4.4728,-4.4266,-4.32,-4.3146,-4.277,-4.1931,-4.2145,-4.2308,-4.2308,-4.2308,-4.2308,-4.2308,-4.2308,-4.2267,-4.2225,-4.2225,-4.2246,0.0,0.0,0.0,0.0,0.0,0.0,-3.7048,0.0,-3.7166,0.0,0.0,0.0,0.0,0.0,0.0,0.0,-3.7752,0.0,0.0,0.0,0.0,0.0,0.0,0.0,0.0,0.0,0.0,0.0,-3.8272,-3.8349,-3.8672,-3.869,-3.886,-3.9238,-3.9529,-3.9786,-4.0029,-4.0747,-4.1131,-4.1131,-4.1525,-4.1714,-4.1714,-4.1626,-4.1604,-4.1604,-4.1604,-4.1604,-4.1604,-4.1604,-4.1604,-4.1604,-4.1538,-4.1515,-4.155,-4.1968,-4.2113,-4.2113,-4.214,-4.2234,-4.229,-4.2015,-4.1977,-4.204,-4.1931,-4.1801,-4.1692,-4.1692,-4.1346,-4.0919,-4.0795,-4.0875,-4.105,-4.1274,-4.1864,-4.2449,-4.2562,-4.2955,-4.3309,-4.3443,-4.366,-4.4121,-4.4963,-4.534,-4.5708,-4.6352,-4.6017,-4.5829,-4.6102,-4.5734,-4.5347,-4.5138,-4.5084,-4.4803,-4.4014,-4.3961,-4.3583,-4.2697,-4.2622,-4.248,-4.2142,-4.2246,-4.2308,-4.2308,-4.2308,-4.2308,-4.2308,-4.2308,-4.2308,-4.2308,-4.2308,-4.2308,-3.7007,0.0,0.0,0.0,0.0,0.0,0.0,0.0,0.0,0.0,0.0,0.0,0.0,0.0,0.0,0.0,0.0,-3.7069,0.0,0.0,0.0,0.0,0.0,0.0,0.0,0.0,0.0,-3.7522,-3.7393,-3.7604,-3.8285,-3.832,-3.8549,-3.9039,-3.923,-3.9337,-3.9337,-4.0096,-4.0465,-4.0483,-4.1156,-4.1462,-4.1462,-4.1561,-4.1604,-4.1604,-4.1604,-4.1604,-4.1604,-4.1604,-4.1604,-4.1604,-4.1604,-4.1604,-4.1604,-4.1604,-4.1604,-4.1604,-4.1604,-4.1692,-4.1801,-4.1866,-4.1931,-4.1917,-4.1805,-4.178,-4.1736,-4.1714,-4.1408,-4.11,-4.114,-4.089,-4.0819,-4.1413,-4.1569,-4.1723,-4.2205,-4.2308,-4.2465,-4.3054,-4.3179,-4.3411,-4.4157,-4.4635,-4.5164,-4.5934,-4.5549,-4.5262,-4.5459,-4.4942,-4.4514,-4.4317,-4.43,-4.3979,-4.3251,-4.3179,-4.2912,-4.2343,-4.2308,-4.2308,-4.2308,-4.2308,-4.2308,-4.2308,-4.2308,-4.2308,-4.2308,-4.2308,-4.2308,-4.2308,-4.2308,-4.2308,0.0,0.0,0.0,-3.7007,0.0,0.0,0.0,0.0,-3.6989,0.0,0.0,0.0,0.0,0.0,0.0,0.0,0.0,0.0,0.0,0.0,0.0,0.0,0.0,0.0,0.0,0.0,-3.7126,-3.7392,-3.7223,-3.7242,-3.7612,-3.7612,-3.763,-3.7666,-3.8304,-3.8638,-3.8638,-3.9301,-3.9631,-3.9648,-4.0323,-4.063,-4.0648,-4.1315,-4.1604,-4.1604,-4.1604,-4.1604,-4.1604,-4.1604,-4.1604,-4.1604,-4.1604,-4.1604,-4.1604,-4.1604,-4.1604,-4.1604,-4.1604,-4.1692,-4.1823,-4.2019,-4.2082,-4.2103,-4.2246,-4.2205,-4.2079,-4.2009,-4.1862,-4.1736,-4.1604,-4.167,-4.1797,-4.1945,-4.2034,-4.2124,-4.2267,-4.2308,-4.2308,-4.2323,-4.2343,-4.259,-4.3411,-4.4139,-4.4617,-4.4674,-4.4638,-4.4638,-4.4638,-4.4621,-4.4317,-4.3604,-4.3533,-4.3215,-4.2415,-4.2343,-4.2343,-4.2308,-4.2308,-4.2308,-4.2308,-4.2308,-4.2308,-4.2308,-4.2308,-4.2308,-4.2308,-4.2308,-4.2308,-4.2308,-4.2308,-4.2308,0.0,0.0,-3.7007,-3.7007,0.0,0.0,0.0,0.0,0.0,0.0,0.0,0.0,0.0,0.0,0.0,0.0,0.0,0.0,0.0,0.0,0.0,0.0,0.0,0.0,0.0,0.0,0.0,-3.7392,-3.7354,-3.7392,-3.7577,-3.7595,-3.7595,-3.7595,-3.7826,-3.795,-3.795,-3.8695,-3.9067,-3.9085,-3.9749,-4.0061,-4.0078,-4.0206,-4.0528,-4.094,-4.094,-4.1196,-4.1604,-4.1604,-4.1604,-4.1604,-4.1604,-4.1604,-4.1604,-4.1604,-4.1604,-4.1604,-4.1604,-4.1692,-4.1801,-4.1888,-4.1977,-4.2103,-4.2145,-4.21,-4.203,-4.2005,-4.1858,-4.1648,-4.1604,-4.1626,-4.1714,-4.1962,-4.2009,-4.2076,-4.2246,-4.2308,-4.2308,-4.2308,-4.2308,-4.2397,-4.2662,-4.2912,-4.3429,-4.4442,-4.4175,-4.3854,-4.3854,-4.3411,-4.2983,-4.2733,-4.2697,-4.259,-4.2325,-4.2308,-4.2308,-4.2308,-4.2308,-4.2308,-4.2308,-4.2308,-4.2308,-4.2308,-4.2308,-4.2308,-4.2308,-4.2308,-4.2308,-4.2308,-4.2308,-4.2308,-3.7007,-3.7007,0.0,-3.7007,-3.7007,0.0,-3.7007,0.0,-3.7007,0.0,0.0,0.0,0.0,0.0,0.0,0.0,0.0,0.0,0.0,-3.7007,0.0,0.0,0.0,0.0,0.0,0.0,-3.7203,-3.728,-3.7336,-3.7411,0.0,0.0,-3.7595,-3.7595,-3.7595,-3.7595,-3.7595,-3.8112,-3.838,-3.838,-3.905,-3.9365,-3.9382,-3.9532,-3.9858,-4.0253,-4.0493,-4.0856,-4.1262,-4.1503,-4.1604,-4.1604,-4.1604,-4.1604,-4.1604,-4.1604,-4.1604,-4.1604,-4.1604,-4.1648,-4.1736,-4.178,-4.1888,-4.2016,-4.2037,-4.2055,-4.203,-4.2005,-4.188,-4.1732,-4.167,-4.1626,-4.1666,-4.188,-4.1923,-4.1987,-4.216,-4.2205,-4.2246,-4.2246,-4.2267,-4.2308,-4.2308,-4.2308,-4.2626,-4.3643,-4.3375,-4.3072,-4.3072,-4.2608,-4.2308,-4.2308,-4.2308,-4.2308,-4.2308,-4.2308,-4.2308,-4.2308,-4.2308,-4.2308,-4.2308,-4.2308,-4.2308,-4.2308,-4.2308,-4.2308,-4.2308,-4.2308,-4.2308,-4.2308,-4.2308,-4.2308]},{"header":{"parameterUnit":"m.s-1","parameterCategory":1,"la1":30.6,"la2":29.2853,"lo1":-89.7004,"lo2":-87.6739,"dy":0.0162,"dx":0.0183,"nx":112,"ny":82,"refTime":"2023-08-02T18:00:00:Z","depth":0,"parameterNumber":3,"parameterNumberName":"V-component_of_WINDS"},"data":[0.0,0.0,0.0,0.0,0.0,0.0,0.0,0.0,0.0,0.0,0.0,0.0,0.0,0.0,0.0,0.0,0.0,0.0,0.0,0.0,0.0,0.0,0.0,0.0,0.0,0.0,0.0,0.0,0.0,0.0,0.0,0.0,0.0,0.0,0.0,0.0,0.0,0.0,0.0,0.0,0.0,0.0,0.0,0.0,0.0,0.0,0.0,0.0,0.0,0.0,0.0,0.0,0.0,0.0,0.0,0.0,0.0,0.0,0.0,0.0,0.0,0.0,0.0,0.0,0.0,0.0,0.0,0.0,0.0,0.0,0.0,0.0,0.0,0.0,0.0,0.0,0.0,0.0,0.0,0.0,0.0,0.0,0.0,0.0,0.0,0.0,0.0,0.0,0.0,0.0,-2.1374,-2.097,-2.1472,-2.1799,-2.1766,-2.1834,-2.1531,-2.073,0.0,0.0,0.0,0.0,0.0,0.0,0.0,0.0,0.0,0.0,0.0,0.0,0.0,0.0,0.0,0.0,0.0,0.0,0.0,0.0,0.0,0.0,0.0,0.0,0.0,0.0,0.0,0.0,0.0,0.0,0.0,0.0,0.0,0.0,0.0,0.0,0.0,0.0,0.0,0.0,0.0,0.0,0.0,0.0,0.0,0.0,0.0,0.0,0.0,0.0,0.0,0.0,0.0,0.0,0.0,0.0,0.0,0.0,0.0,0.0,0.0,0.0,0.0,0.0,0.0,0.0,0.0,0.0,0.0,0.0,0.0,0.0,0.0,0.0,0.0,0.0,0.0,0.0,0.0,0.0,0.0,0.0,0.0,0.0,0.0,0.0,0.0,0.0,0.0,0.0,0.0,0.0,0.0,0.0,0.0,0.0,0.0,0.0,0.0,0.0,0.0,0.0,0.0,0.0,-2.2036,-2.1969,-2.2185,-2.2264,-2.2138,-2.2475,-2.2498,-2.1957,0.0,0.0,0.0,0.0,0.0,0.0,0.0,0.0,0.0,0.0,0.0,0.0,0.0,0.0,0.0,0.0,0.0,0.0,0.0,0.0,0.0,0.0,0.0,0.0,0.0,0.0,0.0,0.0,0.0,0.0,0.0,0.0,0.0,0.0,0.0,0.0,0.0,0.0,0.0,0.0,0.0,0.0,0.0,0.0,0.0,0.0,0.0,0.0,0.0,0.0,0.0,0.0,0.0,0.0,0.0,0.0,0.0,0.0,0.0,0.0,0.0,0.0,0.0,0.0,0.0,0.0,0.0,0.0,0.0,0.0,0.0,0.0,0.0,0.0,0.0,0.0,0.0,0.0,0.0,0.0,0.0,0.0,0.0,0.0,0.0,0.0,0.0,0.0,0.0,0.0,0.0,0.0,0.0,0.0,0.0,0.0,0.0,0.0,0.0,0.0,0.0,0.0,0.0,-2.2355,-2.2617,-2.3669,-2.3202,-2.3133,-2.3875,-2.3779,-2.3525,-2.3248,-2.27,0.0,0.0,0.0,0.0,0.0,0.0,0.0,0.0,0.0,0.0,0.0,0.0,0.0,0.0,0.0,0.0,0.0,0.0,0.0,0.0,0.0,0.0,0.0,0.0,0.0,0.0,0.0,0.0,0.0,0.0,0.0,0.0,0.0,0.0,0.0,0.0,0.0,0.0,0.0,0.0,0.0,0.0,0.0,0.0,0.0,0.0,0.0,0.0,0.0,0.0,0.0,0.0,0.0,0.0,0.0,0.0,0.0,0.0,0.0,0.0,0.0,0.0,0.0,0.0,0.0,0.0,0.0,0.0,0.0,0.0,0.0,0.0,0.0,0.0,0.0,0.0,0.0,0.0,0.0,0.0,0.0,0.0,0.0,0.0,0.0,0.0,0.0,0.0,0.0,0.0,0.0,0.0,0.0,0.0,0.0,0.0,0.0,0.0,0.0,0.0,0.0,0.0,-2.3612,-2.3674,-2.5127,-2.4398,-2.4271,-2.5425,-2.4983,-2.4643,-2.4532,-2.4517,0.0,0.0,0.0,0.0,0.0,0.0,0.0,0.0,0.0,0.0,0.0,0.0,0.0,0.0,0.0,0.0,0.0,0.0,0.0,0.0,0.0,0.0,0.0,0.0,0.0,0.0,0.0,0.0,0.0,0.0,0.0,0.0,0.0,0.0,0.0,0.0,0.0,0.0,0.0,0.0,0.0,0.0,0.0,0.0,0.0,0.0,0.0,0.0,0.0,0.0,0.0,0.0,0.0,0.0,0.0,0.0,0.0,0.0,0.0,0.0,0.0,0.0,0.0,0.0,0.0,0.0,0.0,0.0,0.0,0.0,0.0,0.0,0.0,0.0,0.0,0.0,0.0,0.0,0.0,0.0,0.0,0.0,0.0,0.0,0.0,0.0,0.0,0.0,0.0,0.0,0.0,0.0,0.0,0.0,0.0,0.0,0.0,0.0,0.0,0.0,0.0,0.0,-2.5807,-2.582,-2.5822,-2.5765,-2.5765,-2.5869,-2.58,-2.5787,-2.5773,-2.5711,0.0,0.0,0.0,0.0,0.0,0.0,0.0,0.0,0.0,0.0,0.0,0.0,0.0,0.0,0.0,0.0,0.0,0.0,0.0,0.0,0.0,0.0,0.0,0.0,0.0,0.0,0.0,0.0,0.0,0.0,0.0,0.0,0.0,0.0,0.0,0.0,0.0,0.0,0.0,0.0,0.0,0.0,0.0,0.0,0.0,0.0,0.0,0.0,0.0,0.0,0.0,0.0,0.0,0.0,0.0,0.0,0.0,0.0,0.0,0.0,0.0,0.0,0.0,0.0,0.0,0.0,0.0,0.0,0.0,0.0,0.0,0.0,0.0,0.0,0.0,0.0,0.0,0.0,0.0,0.0,0.0,0.0,0.0,0.0,0.0,0.0,0.0,0.0,0.0,0.0,0.0,0.0,0.0,0.0,0.0,0.0,0.0,0.0,0.0,0.0,0.0,0.0,-2.6346,-2.6264,0.0,-2.6368,-2.6277,-2.7175,-2.6858,-2.6722,-2.7061,0.0,0.0,0.0,0.0,0.0,0.0,0.0,0.0,0.0,0.0,0.0,0.0,0.0,0.0,0.0,0.0,0.0,0.0,0.0,0.0,0.0,0.0,0.0,0.0,0.0,0.0,0.0,0.0,0.0,0.0,0.0,0.0,0.0,0.0,0.0,0.0,0.0,0.0,0.0,0.0,0.0,0.0,0.0,0.0,0.0,0.0,0.0,0.0,0.0,0.0,0.0,0.0,0.0,0.0,0.0,0.0,0.0,0.0,0.0,0.0,0.0,0.0,0.0,0.0,0.0,0.0,0.0,0.0,0.0,0.0,0.0,0.0,0.0,0.0,0.0,0.0,0.0,0.0,0.0,0.0,0.0,0.0,0.0,0.0,0.0,0.0,0.0,0.0,0.0,0.0,0.0,0.0,0.0,0.0,0.0,0.0,0.0,0.0,0.0,0.0,0.0,0.0,-2.7423,-2.6926,-2.6824,0.0,-2.6926,-2.6837,-2.7802,-2.7456,-2.731,-2.7689,0.0,0.0,0.0,0.0,0.0,0.0,0.0,0.0,0.0,0.0,0.0,0.0,0.0,0.0,0.0,0.0,0.0,0.0,0.0,0.0,0.0,0.0,0.0,0.0,0.0,0.0,0.0,0.0,0.0,0.0,0.0,0.0,0.0,0.0,0.0,0.0,0.0,0.0,0.0,0.0,0.0,0.0,0.0,0.0,0.0,0.0,0.0,0.0,0.0,0.0,0.0,0.0,0.0,0.0,0.0,0.0,0.0,0.0,0.0,0.0,0.0,0.0,0.0,0.0,0.0,0.0,0.0,0.0,0.0,0.0,0.0,0.0,0.0,0.0,0.0,0.0,0.0,0.0,0.0,0.0,0.0,0.0,0.0,0.0,0.0,0.0,0.0,0.0,0.0,0.0,0.0,0.0,0.0,0.0,0.0,0.0,0.0,0.0,0.0,0.0,0.0,0.0,-2.7523,-2.7656,-2.7723,-2.7523,-2.749,-2.749,-2.749,-2.749,-2.749,0.0,0.0,0.0,0.0,0.0,0.0,0.0,0.0,0.0,0.0,0.0,0.0,0.0,0.0,0.0,0.0,0.0,0.0,0.0,0.0,0.0,0.0,0.0,0.0,0.0,0.0,0.0,0.0,0.0,0.0,0.0,0.0,0.0,0.0,0.0,0.0,0.0,0.0,0.0,0.0,0.0,0.0,0.0,0.0,0.0,0.0,0.0,0.0,0.0,0.0,0.0,0.0,0.0,0.0,0.0,0.0,0.0,0.0,0.0,0.0,0.0,0.0,0.0,0.0,0.0,0.0,0.0,0.0,0.0,0.0,0.0,0.0,0.0,0.0,0.0,0.0,0.0,0.0,0.0,0.0,0.0,0.0,0.0,0.0,0.0,0.0,0.0,0.0,0.0,0.0,0.0,0.0,0.0,0.0,0.0,0.0,0.0,0.0,0.0,0.0,0.0,0.0,0.0,-2.7523,-2.7556,-2.7556,-2.749,-2.749,-2.749,-2.749,-2.749,-2.749,-2.749,0.0,0.0,0.0,0.0,0.0,0.0,0.0,0.0,0.0,0.0,0.0,0.0,0.0,0.0,0.0,0.0,0.0,0.0,0.0,0.0,0.0,0.0,0.0,0.0,0.0,0.0,0.0,0.0,0.0,0.0,0.0,0.0,0.0,0.0,0.0,0.0,0.0,0.0,0.0,0.0,0.0,0.0,0.0,0.0,0.0,0.0,0.0,0.0,0.0,0.0,0.0,0.0,0.0,0.0,0.0,0.0,0.0,0.0,0.0,0.0,0.0,0.0,0.0,0.0,0.0,0.0,0.0,0.0,0.0,0.0,0.0,0.0,0.0,0.0,0.0,0.0,0.0,0.0,0.0,0.0,0.0,0.0,0.0,0.0,0.0,0.0,0.0,0.0,0.0,0.0,0.0,0.0,0.0,0.0,0.0,0.0,0.0,0.0,0.0,0.0,0.0,0.0,-2.7523,-2.749,-2.749,-2.749,-2.749,-2.749,-2.749,-2.749,-2.749,-2.749,0.0,0.0,0.0,0.0,0.0,0.0,0.0,0.0,0.0,0.0,0.0,0.0,0.0,0.0,0.0,0.0,0.0,0.0,0.0,0.0,0.0,0.0,0.0,0.0,0.0,0.0,0.0,0.0,0.0,0.0,0.0,0.0,0.0,0.0,0.0,0.0,0.0,0.0,0.0,0.0,0.0,0.0,0.0,0.0,0.0,0.0,0.0,0.0,0.0,0.0,0.0,0.0,0.0,0.0,0.0,0.0,0.0,0.0,0.0,0.0,0.0,0.0,0.0,0.0,0.0,0.0,0.0,0.0,0.0,0.0,0.0,0.0,0.0,0.0,0.0,0.0,0.0,0.0,0.0,0.0,0.0,0.0,0.0,0.0,0.0,0.0,0.0,0.0,0.0,0.0,0.0,0.0,0.0,0.0,0.0,0.0,0.0,0.0,0.0,0.0,0.0,0.0,-2.7648,-2.7687,-2.7727,-2.7727,-2.7727,-2.7727,-2.7727,-2.7641,-2.7602,-2.7602,0.0,0.0,0.0,0.0,0.0,0.0,0.0,0.0,0.0,0.0,0.0,0.0,0.0,0.0,0.0,0.0,0.0,0.0,0.0,0.0,0.0,0.0,0.0,0.0,0.0,0.0,0.0,0.0,0.0,0.0,0.0,0.0,0.0,0.0,0.0,0.0,0.0,0.0,0.0,0.0,0.0,0.0,0.0,0.0,0.0,0.0,0.0,0.0,0.0,0.0,0.0,0.0,0.0,0.0,0.0,0.0,0.0,0.0,0.0,0.0,-2.6876,0.0,0.0,0.0,0.0,0.0,0.0,0.0,0.0,0.0,0.0,0.0,0.0,0.0,0.0,0.0,0.0,0.0,0.0,0.0,0.0,0.0,0.0,0.0,0.0,0.0,0.0,0.0,0.0,0.0,0.0,0.0,0.0,0.0,0.0,0.0,0.0,0.0,0.0,0.0,0.0,0.0,-2.8691,-2.909,-2.9403,-2.9403,-2.9403,-2.9403,-2.9403,-2.882,-2.8433,-2.8433,-2.7852,0.0,0.0,0.0,0.0,0.0,0.0,0.0,0.0,0.0,0.0,0.0,0.0,0.0,0.0,0.0,0.0,0.0,0.0,0.0,0.0,0.0,0.0,0.0,0.0,0.0,0.0,0.0,0.0,0.0,0.0,0.0,0.0,0.0,0.0,0.0,0.0,0.0,0.0,0.0,0.0,0.0,0.0,0.0,0.0,0.0,0.0,0.0,0.0,0.0,0.0,0.0,0.0,0.0,0.0,0.0,0.0,0.0,0.0,0.0,0.0,-2.7291,0.0,0.0,0.0,0.0,0.0,0.0,0.0,0.0,0.0,0.0,0.0,0.0,0.0,0.0,0.0,0.0,0.0,0.0,0.0,0.0,0.0,0.0,0.0,0.0,0.0,0.0,0.0,0.0,0.0,0.0,0.0,0.0,0.0,0.0,0.0,0.0,0.0,0.0,0.0,0.0,-2.94,-2.9707,-2.9894,-2.9894,-2.9894,-2.9894,-2.9894,-2.951,-2.9268,-2.9268,-2.8873,0.0,0.0,0.0,0.0,0.0,0.0,0.0,0.0,0.0,0.0,0.0,0.0,0.0,0.0,0.0,0.0,0.0,0.0,0.0,0.0,0.0,0.0,0.0,0.0,0.0,0.0,0.0,0.0,0.0,0.0,0.0,0.0,0.0,0.0,0.0,0.0,0.0,0.0,0.0,0.0,0.0,0.0,0.0,0.0,0.0,0.0,0.0,0.0,0.0,0.0,0.0,0.0,0.0,-2.9021,-2.8802,-2.8398,-2.8398,-2.8398,-2.8398,-2.8398,-2.8285,-2.8109,-2.8182,0.0,0.0,0.0,0.0,0.0,0.0,0.0,0.0,0.0,0.0,0.0,0.0,0.0,0.0,0.0,0.0,0.0,0.0,0.0,0.0,0.0,0.0,0.0,0.0,-2.9244,-2.9393,-2.6854,0.0,0.0,0.0,0.0,0.0,0.0,0.0,0.0,0.0,0.0,0.0,-3.0078,-3.0239,-3.0306,-3.0306,-3.0306,-3.0306,-3.0306,-3.0164,-3.0111,-3.0111,-2.9982,-2.9598,0.0,0.0,0.0,0.0,0.0,0.0,0.0,0.0,0.0,0.0,0.0,0.0,0.0,0.0,0.0,0.0,0.0,0.0,0.0,0.0,0.0,0.0,0.0,0.0,0.0,0.0,0.0,0.0,0.0,0.0,0.0,0.0,-2.8479,-2.8996,0.0,0.0,0.0,0.0,0.0,0.0,0.0,0.0,0.0,0.0,0.0,0.0,0.0,-3.173,-3.1589,-3.1402,-3.1035,-3.044,-3.0264,-2.9974,-2.9578,-2.9578,-2.9578,-2.9578,-2.9578,0.0,-2.8146,-2.8473,0.0,0.0,0.0,0.0,0.0,0.0,0.0,0.0,0.0,0.0,0.0,0.0,0.0,0.0,0.0,0.0,0.0,0.0,0.0,0.0,0.0,0.0,-2.9138,-2.9553,-2.928,-2.8812,0.0,-2.9114,-2.9757,-2.9502,-2.9638,0.0,0.0,0.0,0.0,0.0,0.0,0.0,-3.1026,-3.1577,-3.1902,-3.1902,-3.1902,-3.1902,-3.1902,-3.1271,-3.0855,-3.0855,-3.0231,-2.9854,-2.9739,-2.9565,0.0,0.0,0.0,0.0,0.0,0.0,0.0,0.0,0.0,0.0,0.0,0.0,0.0,0.0,0.0,0.0,0.0,0.0,0.0,0.0,0.0,0.0,0.0,0.0,0.0,0.0,0.0,0.0,0.0,-2.9014,-2.9304,-3.0451,-3.0383,-3.0245,0.0,0.0,0.0,0.0,0.0,0.0,0.0,0.0,0.0,-3.2092,-3.2417,-3.2525,-3.2359,-3.2591,-3.2422,-3.1836,-3.2129,-3.2043,-3.1669,-3.1772,-3.1811,-3.1798,-3.1332,-3.0866,-3.0374,-2.9865,-2.9921,-3.0361,0.0,0.0,0.0,0.0,-3.1395,-3.1395,-3.1395,-3.1059,-3.0621,-3.0564,0.0,0.0,0.0,0.0,0.0,0.0,0.0,0.0,0.0,0.0,-3.0603,-3.0504,-3.0467,-3.0358,-2.9857,-2.998,-3.003,0.0,-2.9644,-2.987,-2.9512,0.0,0.0,0.0,0.0,-3.111,-3.1721,-3.2055,-3.2218,-3.2218,-3.2218,-3.2218,-3.2218,-3.1888,-3.1654,-3.1654,-3.1281,-3.0878,-3.0529,-3.021,-2.9861,0.0,0.0,0.0,0.0,0.0,0.0,0.0,0.0,0.0,0.0,0.0,0.0,0.0,0.0,0.0,0.0,0.0,0.0,0.0,0.0,0.0,0.0,0.0,0.0,0.0,0.0,0.0,0.0,-2.999,-3.0211,-3.1609,-3.1568,-3.1402,0.0,0.0,0.0,0.0,0.0,0.0,-3.2309,-3.2626,-3.2758,-3.2663,-3.3162,-3.3354,-3.3187,-3.3569,-3.3455,-3.2876,-3.3371,-3.3392,-3.3014,-3.317,-3.3209,-3.3183,-3.2603,-3.238,-3.2404,-3.1185,-3.1073,-3.1593,-3.1716,-3.1813,-3.19,-3.2132,-3.2059,-3.19,-3.2132,-3.1762,-3.1204,-3.1061,-3.0623,-3.0122,-2.9813,0.0,0.0,0.0,0.0,-3.088,-3.1087,-3.1495,-3.1693,-3.1196,-3.1445,-3.1656,-3.1022,-3.0629,-3.0206,0.0,-2.9833,-3.014,-3.0029,0.0,0.0,0.0,0.0,-3.1204,-3.2101,-3.2218,-3.2218,-3.2218,-3.2218,-3.2218,-3.2218,-3.2218,-3.2218,-3.2218,-3.2,-3.1688,-3.1267,-3.0844,-3.0506,-3.0191,0.0,0.0,0.0,0.0,0.0,0.0,0.0,0.0,0.0,0.0,0.0,0.0,0.0,0.0,0.0,0.0,0.0,0.0,0.0,0.0,0.0,0.0,0.0,0.0,0.0,0.0,0.0,0.0,0.0,-3.2132,-3.2439,0.0,0.0,0.0,0.0,-3.2668,-3.2668,-3.2739,-3.2952,-3.3495,-3.3902,-3.4074,-3.4487,-3.4659,-3.4499,-3.4272,-3.3892,-3.3247,-3.3313,-3.3092,-3.2725,-3.2725,-3.2725,-3.2725,-3.2686,-3.2883,-3.3167,-3.2022,-3.1556,-3.1629,-3.2023,-3.169,-3.1057,-3.1886,-3.169,-3.1095,-3.19,-3.2046,-3.185,-3.185,-3.1553,-3.118,-3.097,-3.0932,0.0,0.0,-3.1244,-3.1307,-3.1519,-3.1582,-3.1609,-3.1559,-3.1596,-3.1596,-3.1572,-3.1106,-3.0817,0.0,-3.0831,-3.0374,-3.0622,0.0,-2.9839,-3.086,-3.0303,-3.0354,-3.1978,-3.2218,-3.2218,-3.2218,-3.2218,-3.2218,-3.2218,-3.2218,-3.2218,-3.2218,-3.2,-3.1877,-3.185,-3.1455,-3.0993,-3.0388,-3.0851,0.0,0.0,0.0,0.0,0.0,0.0,0.0,0.0,0.0,0.0,0.0,0.0,0.0,0.0,0.0,0.0,0.0,0.0,0.0,0.0,0.0,0.0,0.0,0.0,0.0,0.0,0.0,0.0,-3.2286,-3.2668,0.0,-3.2596,-3.304,-3.3384,-3.3465,-3.3876,-3.4186,-3.4419,-3.4615,-3.4705,-3.4608,-3.4743,-3.4705,-3.453,-3.4712,-3.4671,-3.4463,-3.4909,-3.502,-3.4887,-3.5006,-3.5086,-3.5058,-3.4522,-3.4399,-3.4461,-3.3482,-3.3082,-3.3082,-3.3233,-3.2877,-3.2289,-3.2027,-3.1875,-3.169,-3.1307,-3.1482,-3.1853,-3.1582,-3.1323,-3.1099,-3.1024,-3.0986,-3.1024,-3.1099,-3.1099,-3.1161,-3.136,-3.1397,-3.1434,-3.1572,-3.1485,-3.1397,-3.1397,-3.0716,-3.0124,-3.0342,-3.0022,-2.9842,-3.0209,-2.9631,-2.9428,-3.0235,-3.021,-3.055,-3.185,-3.2,-3.2073,-3.2182,-3.2218,-3.2218,-3.2218,-3.2218,-3.2146,-3.2036,-3.1817,-3.172,-3.172,-3.1323,-3.1068,-3.0969,-3.1043,-3.0842,0.0,0.0,0.0,0.0,0.0,0.0,0.0,0.0,0.0,0.0,0.0,0.0,0.0,0.0,0.0,0.0,0.0,0.0,0.0,0.0,0.0,0.0,0.0,0.0,0.0,0.0,-3.2341,-3.2704,-3.3079,-3.3342,-3.3442,-3.3895,-3.4242,-3.4323,-3.4766,-3.5078,-3.5189,-3.5386,-3.5424,-3.5236,-3.5294,-3.5291,-3.5137,-3.5251,-3.5285,-3.5298,-3.5747,-3.5992,-3.5992,-3.6098,-3.6138,-3.6125,-3.5608,-3.5351,-3.5285,-3.443,-3.4072,-3.4071,-3.3954,-3.3331,-3.2471,-3.2149,-3.199,-3.1889,-3.1775,-3.2066,-3.2482,-3.2206,-3.198,-3.179,-3.179,-3.179,-3.179,-3.179,-3.16,-3.1447,-3.1891,-3.1777,-3.1587,-3.1714,-3.1866,-3.1853,-3.1216,-3.0738,-3.0387,-3.0072,-2.9487,-2.9163,-2.9513,-2.8966,-2.8876,-2.9948,-2.9807,-3.0012,-3.1296,-3.1259,-3.1296,-3.174,-3.1776,-3.19,-3.2169,-3.1942,-3.182,-3.1877,-3.1446,-3.1285,-3.1471,-3.1323,-3.1272,-3.1421,-3.1519,-3.1402,-3.1021,0.0,0.0,0.0,0.0,0.0,0.0,0.0,0.0,0.0,0.0,0.0,0.0,0.0,0.0,0.0,0.0,0.0,0.0,0.0,0.0,0.0,0.0,0.0,-3.188,-3.2159,-3.2691,-3.3381,-3.373,-3.4208,-3.4859,-3.5092,-3.5217,-3.5217,-3.5245,-3.5245,-3.5245,-3.5808,-3.6145,-3.6159,-3.6337,-3.6432,-3.646,-3.5993,-3.5778,-3.5778,-3.575,-3.575,-3.575,-3.5723,-3.571,-3.571,-3.571,-3.571,-3.5629,-3.4771,-3.4397,-3.4376,-3.4057,-3.283,-3.1417,-3.2302,-3.2036,-3.1542,-3.3209,-3.3754,-3.3677,-3.3599,-3.3522,-3.338,-3.3341,-3.3341,-3.3341,-3.3341,-3.2646,-3.2167,-3.3093,-3.2646,-3.1966,-3.1966,-3.2646,-3.2804,-3.0993,-3.1292,-3.1671,-3.0745,-2.9399,-2.8514,-2.8736,-2.8047,-2.8103,-2.9935,-2.9003,0.0,-3.0342,-3.0037,-2.9999,-3.0782,-3.0857,-3.122,-3.2059,-3.1397,-3.1209,-3.1813,-3.094,-3.0642,-3.1246,-3.1482,-3.1593,-3.1593,-3.2295,-3.259,-3.2392,0.0,0.0,0.0,0.0,0.0,0.0,0.0,0.0,0.0,0.0,0.0,0.0,0.0,0.0,0.0,0.0,0.0,0.0,0.0,0.0,0.0,0.0,-3.4052,-3.3612,-3.3796,-3.414,-3.4441,-3.4701,-3.4918,-3.5101,-3.5559,-3.585,-3.585,-3.6272,-3.6525,-3.6525,-3.668,-3.6897,-3.7174,-3.7104,-3.718,-3.7497,-3.7165,-3.6997,-3.6984,-3.6564,-3.6347,-3.6347,-3.5913,-3.571,-3.571,-3.571,-3.571,-3.5629,-3.4771,-3.4397,-3.4413,-3.4291,-3.3271,-3.1926,-3.2187,-3.1798,-3.1148,-3.158,-3.2488,-3.3249,-3.1888,-3.2354,-3.3132,-3.1767,-3.186,-3.2235,-3.1577,-3.1198,-3.1034,-3.1279,-3.1198,-3.0993,-3.0993,-3.1198,-3.1238,-3.0704,-3.0787,-3.0704,-2.9815,-2.9337,-2.8976,-2.8715,-2.7643,-2.7226,-2.8319,-2.8159,0.0,-2.9549,-2.96,-2.9626,-2.9999,-2.9909,-2.9948,-3.0355,-2.9859,-2.9872,-3.0696,-3.0327,-3.039,-3.1048,-3.1123,-3.131,-3.1593,-3.1886,-3.2228,0.0,0.0,0.0,0.0,0.0,0.0,0.0,0.0,0.0,0.0,0.0,0.0,0.0,0.0,0.0,0.0,0.0,0.0,0.0,0.0,0.0,0.0,-3.4646,-3.5096,-3.5289,-3.49,-3.4778,-3.5203,-3.5381,-3.5592,-3.5934,-3.6286,-3.6497,-3.6497,-3.7021,-3.7372,-3.7372,-3.7625,-3.7854,-3.7961,-3.7785,-3.7759,-3.7838,-3.7612,-3.7485,-3.7485,-3.7119,-3.6999,-3.6985,-3.6591,-3.6334,-3.609,-3.609,-3.594,-3.5588,-3.433,-3.3827,0.0,0.0,0.0,0.0,0.0,-3.1638,-3.1313,-3.165,-3.2329,-3.2918,-3.1914,-3.2247,-3.2877,-3.1914,-3.201,-3.2301,-3.1746,-3.1338,-3.1126,-3.1494,-3.1325,-3.0998,-3.0998,-3.1338,-3.141,-3.0613,-3.0742,-3.0742,-2.9834,-2.9509,0.0,-2.904,-2.8057,-2.763,-2.848,-2.8345,-2.8427,-2.9092,-2.896,-2.8915,-2.9184,-2.9069,-2.9186,-2.9537,-2.9029,0.0,0.0,0.0,-3.0023,-3.1185,-3.1384,0.0,0.0,0.0,-3.2618,-3.2931,0.0,0.0,0.0,-3.1991,-3.1527,0.0,0.0,0.0,0.0,0.0,0.0,0.0,0.0,0.0,0.0,0.0,0.0,0.0,0.0,0.0,0.0,-3.573,-3.6246,-3.6642,-3.5645,-3.5145,-3.584,-3.5948,-3.6235,-3.6936,-3.6978,-3.7021,-3.7091,-3.7597,-3.7934,-3.8004,0.0,0.0,0.0,0.0,-3.8199,-3.803,-3.7803,-3.7689,-3.7689,-3.7621,-3.7594,-3.7594,-3.7526,-3.7187,-3.67,-3.67,-3.6402,-3.5791,-3.4014,-3.3086,-3.2809,-3.2735,-3.2258,-3.1581,-3.1492,-3.1492,-3.1713,-3.2432,0.0,0.0,-3.2593,-3.2593,-3.2581,-3.2593,-3.2679,-3.2722,-3.2636,-3.1996,-3.1524,-3.2376,-3.1996,-3.1415,-3.1415,-3.2052,-3.2246,-3.0566,-3.0836,-3.1193,-3.034,-2.9871,-2.9573,-2.9573,-2.8939,-2.868,-2.9494,-2.9087,-2.8742,-2.8864,-2.8412,-2.8208,-2.849,0.0,0.0,-2.9143,-2.8446,-2.8142,-2.8524,-2.8782,-2.9691,-3.1468,-3.185,-3.2237,-3.2632,-3.3016,-3.3241,-3.329,-3.329,-3.329,-3.3276,-3.2764,-3.2188,0.0,0.0,0.0,0.0,0.0,0.0,0.0,0.0,0.0,0.0,0.0,0.0,0.0,0.0,0.0,-3.5587,-3.603,-3.6365,-3.6445,-3.6484,-3.6592,-3.6757,-3.6771,-3.6813,-3.6964,-3.6978,-3.7189,-3.7681,-3.7835,-3.8131,-3.8691,-3.8846,-3.9017,-3.9201,-3.9003,-3.9039,-3.933,-3.9098,-3.8952,-3.8952,0.0,0.0,-3.8233,-3.7702,-3.7431,-3.7309,-3.7309,-3.7241,-3.7008,-3.5486,-3.3667,-3.1801,-3.1048,-3.1092,-3.1492,-3.0746,-3.097,-3.1492,-3.0758,-3.1436,-3.2321,-3.0711,-3.1178,-3.2091,-3.0621,-3.0722,0.0,-3.0407,-3.0057,-2.9932,-3.0147,-3.0216,-3.0239,-3.0239,-3.0487,-3.0644,-3.0261,-3.0352,-3.0442,-3.0261,-3.0147,-3.0078,-3.0078,-2.9265,-2.87,-2.8872,-2.8786,-2.8709,-2.8734,-2.8637,-2.8602,-2.8669,-2.8119,-2.7824,-2.7937,-2.7117,-2.6919,-2.7689,-2.8854,-3.0012,-3.1086,-3.1482,-3.185,-3.22,-3.2596,-3.298,-3.329,-3.329,-3.329,-3.329,-3.3164,-3.2806,0.0,0.0,0.0,0.0,0.0,0.0,0.0,0.0,0.0,0.0,0.0,-3.5277,0.0,0.0,-3.5723,-3.5898,-3.6192,-3.6445,-3.6563,-3.6811,-3.6978,-3.6978,-3.6978,-3.7105,-3.7414,-3.7442,-3.7695,-3.8341,-3.8664,-3.8988,-3.9352,-3.962,-3.976,-3.9712,-3.9597,-3.9532,-3.9496,-3.9349,-3.9305,-3.9305,-3.8993,-3.8857,-3.8844,-3.8559,-3.7987,-3.7213,-3.7213,-3.6722,-3.5926,-3.4692,-3.3224,-3.1667,-3.1159,-3.0939,-3.0836,-3.0385,-3.0487,-3.0791,-3.0148,-3.0385,-3.089,-2.984,-3.0045,-3.0564,-2.9749,-2.984,-3.0102,-2.9623,-2.9485,-2.9485,-2.9485,-2.9588,-2.9691,-2.9691,-2.9772,-2.9897,-3.0,-3.0057,-3.0091,-3.017,-3.0216,-3.0216,-3.0216,-2.9791,-2.9458,-2.9458,-2.9458,-2.9378,-2.9125,-2.9102,-2.8999,-2.8723,-2.8385,-2.8066,-2.7809,-2.6956,-2.6652,-2.733,-2.8398,-2.942,-3.0305,-3.1134,-3.1666,-3.185,-3.2417,-3.281,-3.3016,-3.3206,-3.329,-3.329,-3.329,-3.3122,0.0,0.0,0.0,0.0,0.0,0.0,0.0,0.0,-3.5318,-3.5642,-3.571,-3.571,-3.571,-3.571,-3.5804,-3.6072,-3.6286,-3.6484,-3.6682,-3.6889,-3.7035,-3.7122,-3.7136,-3.7318,-3.785,-3.7978,-3.8315,-3.9029,-3.9549,-3.9831,-3.9957,-4.0435,-4.0487,-3.9996,-3.9996,-3.9777,-3.9305,-3.9305,-3.9305,-3.9305,-3.9305,-3.9305,-3.9305,-3.9114,-3.8296,-3.7071,-3.689,-3.5954,-3.462,-3.3645,-3.2782,-3.2028,-3.179,-3.1237,-3.0503,-3.0399,-3.0308,-3.017,-2.9977,-2.9737,-2.9542,-2.9451,-2.9266,-2.9128,-2.9301,-2.9347,-2.9347,-2.9347,-2.9347,-2.9347,-2.9347,-2.9393,-2.9439,-2.9439,-2.9439,-2.9577,-2.984,-2.9886,-2.9977,-3.017,-3.0216,-3.0216,-3.0216,-3.0216,-3.0216,-3.0216,-3.0216,-3.0078,-2.9688,-2.9642,-2.947,-2.9045,-2.8907,-2.8642,-2.8061,-2.7227,-2.6925,-2.7316,-2.7951,-2.8733,-2.9665,-3.0709,-3.1394,-3.1703,-3.2273,-3.2668,-3.281,-3.3122,-3.329,-3.329,-3.329,-3.329,-3.1407,-3.2316,-3.3526,-3.4351,-3.5008,-3.5494,0.0,0.0,-3.5642,-3.5669,-3.571,-3.571,-3.571,-3.571,-3.5804,-3.6072,-3.6286,-3.6484,-3.6682,-3.6889,-3.7125,-3.7486,-3.7515,-3.761,-3.7906,-3.8209,-3.8768,-3.9634,-3.9746,-4.0013,-4.0561,-4.0659,-4.0487,-3.9996,-3.9996,-3.9777,-3.9305,-3.9305,-3.9305,-3.9305,-3.9305,-3.9305,-3.9261,-3.8368,-3.7874,-3.7671,-3.6756,-3.5961,-3.5228,-3.431,-3.3515,-3.2863,-3.2064,-3.1744,-3.1536,-3.1088,-3.0629,-3.017,-2.9977,-2.9886,-2.9794,-2.9312,-2.9128,-2.9082,-2.8932,-2.8896,-2.8896,-2.8896,-2.8896,-2.8896,-2.8896,-2.8989,-2.9128,-2.9128,-2.9312,-2.9577,-2.984,-2.9886,-2.9977,-3.017,-3.0216,-3.0216,-3.0216,-3.0216,-3.0216,-3.0216,-3.0216,-3.0193,-3.0147,-3.0135,-3.0112,-3.0055,-2.9665,-2.9041,-2.8095,-2.7525,-2.7369,-2.7813,-2.7904,-2.8497,-2.9639,-2.9858,-3.057,-3.2019,-3.2128,-3.2538,-3.3241,-3.329,-3.329,-3.329,-3.329,-3.329,-3.3006,0.0,0.0,0.0,-3.5791,-3.571,-3.571,-3.571,-3.571,-3.571,-3.571,-3.571,-3.571,-3.571,-3.5723,0.0,-3.6152,-3.6445,-3.6524,-3.7014,-3.74,-3.7599,-3.7965,-3.838,-3.8754,-3.8825,-3.927,-4.0266,-4.0209,-4.0321,-4.0688,-4.0702,-4.0573,-4.0241,-4.0097,-3.9834,-3.9554,-3.9394,-3.9305,-3.9305,-3.9305,-3.9305,-3.9261,-3.8277,-3.715,-3.6011,-3.4969,-3.4424,-3.4125,-3.376,-3.3436,-3.3188,-3.2834,-3.2454,-3.2121,-3.1639,-3.1306,-3.1123,-3.0853,-3.0566,-3.0213,-2.9736,-2.936,-2.9082,-2.885,-2.8803,-2.8803,-2.8803,-2.8803,-2.8803,-2.8803,-2.885,-2.8943,-2.8943,-2.9024,-2.9174,-2.937,-2.9554,-2.9737,-2.9966,-3.0136,-3.0216,-3.0216,-3.0216,-3.0216,-3.0216,-3.0216,-3.0216,-3.0216,-3.0216,-3.0216,-3.0216,-2.9761,-2.9218,-2.85,-2.801,-2.7656,-2.7565,-2.8037,-2.8433,-2.8648,-2.9588,-3.0303,-3.0696,-3.164,-3.2286,-3.261,-3.3065,-3.329,-3.329,-3.329,-3.329,-3.4121,0.0,0.0,-3.6047,-3.6035,-3.571,-3.571,-3.571,-3.571,-3.571,-3.571,-3.571,-3.571,-3.571,-3.575,-3.5884,-3.6192,-3.6445,-3.6484,-3.7117,-3.7602,-3.7632,-3.8252,-3.891,-3.9432,-3.936,-3.9626,-4.0445,-4.0428,-4.0471,-4.063,-4.0659,-4.0573,-4.0298,-4.0097,-3.9878,-3.9598,-3.9127,-3.889,-3.8877,-3.8594,-3.8445,-3.8445,-3.7428,-3.6011,-3.436,-3.3618,-3.3281,-3.3281,-3.3281,-3.3281,-3.3281,-3.3281,-3.304,-3.2661,-3.2365,-3.2055,-3.1766,-3.1586,-3.1287,-3.0863,-3.0438,-2.9925,-2.9385,-2.9187,-2.8948,-2.8803,-2.8803,-2.8803,-2.8803,-2.8803,-2.8803,-2.8803,-2.8803,-2.8803,-2.885,-2.9082,-2.9266,-2.9497,-2.984,-3.0011,-3.0136,-3.017,-3.0216,-3.0216,-3.0216,-3.0216,-3.0216,-3.0216,-3.0216,-3.0216,-3.0216,-2.976,-2.9351,-2.9004,-2.8517,-2.8025,-2.75,-2.8109,-2.8321,-2.8076,-2.9111,-2.9816,-3.0046,-3.1174,-3.1932,-3.2273,-3.2945,-3.329,-3.329,-3.329,-3.329,0.0,0.0,-3.5195,-3.5616,-3.5723,-3.571,-3.571,-3.571,-3.571,-3.571,-3.571,-3.571,-3.571,-3.571,-3.5844,-3.6312,-3.6405,-3.6484,-3.6682,-3.7197,-3.7673,-3.777,-3.8316,-3.8958,0.0,-3.9672,-3.9791,-3.9996,-4.0255,-4.0399,-4.0399,-4.0587,-4.0487,-4.0053,-3.9996,-3.9777,-3.9305,-3.8323,-3.7854,-3.7808,-3.6845,-3.6411,-3.6364,-3.5343,-3.4311,-3.3331,-3.3331,-3.3281,-3.3281,-3.3281,-3.3281,-3.3281,-3.3281,-3.3281,-3.3258,-3.3247,-3.2664,-3.1813,-3.1766,-3.1802,-3.1695,-3.1456,-3.0841,-3.0189,-2.993,-2.9363,-2.8803,-2.8803,-2.8803,-2.8803,-2.8803,-2.8803,-2.8803,-2.8803,-2.8803,-2.885,-2.9082,-2.9128,-2.9266,-2.9794,-2.9886,-2.9977,-3.017,-3.0216,-3.0216,-3.0216,-3.0216,-3.0216,-3.0216,-3.0216,-3.0216,-3.0216,-2.976,-2.9474,-2.9463,-2.9059,-2.8528,-2.8002,-2.8014,-2.8188,-2.858,-2.8195,-2.8933,-3.0942,-3.0942,-3.1489,-3.2668,-3.3086,-3.329,-3.329,-3.329,-3.329,-3.5246,0.0,-3.5396,-3.6589,-3.6279,-3.5818,-3.6212,-3.5995,-3.571,-3.571,-3.571,-3.571,-3.571,-3.571,-3.5764,-3.5924,-3.6072,-3.6206,-3.6286,-3.7125,-3.7772,-3.7797,-3.8556,0.0,0.0,0.0,0.0,-3.9952,-4.0097,-4.0198,-4.0399,-4.0587,-4.0573,-4.0255,-4.0097,-3.9878,-3.9554,-3.9069,-3.8459,-3.7808,-3.6798,-3.5939,-3.5295,-3.4969,-3.4274,-3.3281,-3.3281,-3.3281,-3.3281,-3.3281,-3.3281,-3.3281,-3.3281,-3.3281,-3.3281,-3.3281,-3.3074,-3.2825,-3.2825,-3.2535,-3.2199,-3.1957,-3.1482,-3.0886,-3.0147,-2.9736,-2.9443,-2.8937,-2.8803,-2.8803,-2.8803,-2.8803,-2.8803,-2.8803,-2.8803,-2.885,-2.9082,-2.922,-2.9451,-2.984,-3.0011,-3.0136,-3.017,-3.0216,-3.0216,-3.0216,-3.0216,-3.0216,-3.0216,-3.0216,-3.0136,-3.0011,-2.968,-2.9439,-2.9266,-2.8989,-2.8727,-2.8528,-2.8517,-2.8424,-2.8199,-2.8584,-2.9016,-2.9392,-3.0164,-3.0752,-3.1163,-3.1527,-3.1723,-3.1723,-3.1723,-3.1723,-3.5484,-3.5636,-3.5843,-3.6658,-3.6456,-3.6076,-3.6252,-3.5995,-3.571,-3.571,-3.571,-3.571,-3.571,-3.571,-3.5723,-3.5844,-3.5992,-3.6086,-3.6086,-3.7085,-3.7782,-3.7712,-3.8646,-3.9305,0.0,0.0,0.0,-3.9733,-3.9908,-4.0097,-4.0255,-4.0457,-4.0314,-3.9733,-3.9441,-3.9029,-3.8504,-3.7933,-3.7183,-3.6153,-3.5534,-3.4872,-3.4262,-3.4262,-3.3892,-3.3281,-3.3281,-3.3281,-3.3281,-3.3281,-3.3281,-3.3281,-3.3281,-3.3281,-3.3281,-3.3281,-3.3281,-3.3281,-3.3281,-3.3063,-3.2764,-3.2567,-3.2139,-3.1493,-3.0555,-3.0133,-2.9747,-2.9028,-2.8803,-2.8803,-2.8803,-2.8803,-2.8803,-2.8803,-2.8803,-2.885,-2.8943,-2.9163,-2.9451,-2.9691,-2.992,-3.0136,-3.017,-3.0216,-3.0216,-3.0216,-3.0216,-3.0216,-3.0216,-3.0216,-3.0136,-2.9931,-2.9634,-2.9393,-2.9128,-2.8943,-2.8803,-2.8803,-2.8803,-2.8661,-2.8309,-2.8656,-2.8844,-2.8854,-2.9582,-3.0109,-3.0403,-3.0753,-3.0927,-3.0895,-3.0895,-3.0895,-3.5127,-3.587,-3.6456,-3.59,-3.6185,-3.6456,-3.5886,-3.5737,-3.571,-3.571,-3.571,-3.571,0.0,0.0,-3.5764,-3.6032,-3.6086,-3.6086,-3.6086,-3.7058,-3.7671,0.0,0.0,0.0,0.0,0.0,0.0,-3.9305,0.0,-3.9996,-3.9996,-4.0255,-3.9791,-3.8509,-3.8211,-3.7514,-3.6317,-3.5295,-3.4311,-3.3381,-3.3331,-3.3281,-3.3281,-3.3281,-3.3281,-3.3281,-3.3281,-3.3281,-3.3281,-3.3281,-3.3281,-3.3281,-3.3281,-3.3281,-3.3281,-3.3281,-3.3281,-3.3281,-3.3281,-3.3281,-3.3281,-3.3281,-3.2777,-3.1958,-3.1218,-3.0474,-2.9747,-2.9028,-2.8803,-2.8803,-2.8803,-2.8803,-2.8803,-2.8803,-2.8803,-2.8803,-2.8803,-2.8989,-2.922,-2.9485,-2.9737,-2.9977,-3.017,-3.0216,-3.0216,-3.0216,-3.0216,-3.0216,-3.0216,-3.0216,-3.0136,-2.9931,-2.968,-2.9393,-2.9128,-2.8943,-2.8803,-2.8803,-2.8803,-2.8803,-2.8803,-2.832,-2.842,-2.9248,-2.9202,-2.9565,-3.0371,-3.0743,-3.0868,-3.0822,-3.0822,-3.0809,-3.5562,-3.6062,-3.6564,-3.6415,-3.6497,-3.6564,-3.6415,-3.6035,-3.571,-3.571,-3.571,-3.571,0.0,0.0,0.0,-3.5804,-3.5804,0.0,-3.5804,-3.6443,0.0,-3.7431,0.0,-3.8817,-3.9264,-3.9305,0.0,0.0,-3.9584,-3.9774,-3.9774,-3.998,-3.953,-3.8257,-3.8153,-3.7514,-3.6317,-3.5295,-3.469,-3.4409,-3.3656,-3.3281,-3.3281,-3.3281,-3.3281,-3.3281,-3.3281,-3.3281,-3.3281,-3.3281,-3.3281,-3.3281,-3.3281,-3.3281,-3.3281,-3.3281,-3.3281,-3.3281,-3.3281,-3.3281,-3.3281,-3.3281,-3.2876,-3.2239,-3.1255,-3.0639,-3.0005,-2.9075,-2.8803,-2.8803,-2.8803,-2.8803,-2.8803,-2.8803,-2.8803,-2.885,-2.8989,-2.922,-2.9497,-2.9737,-2.9954,-3.0136,-3.017,-3.0216,-3.0216,-3.0216,-3.0216,-3.0216,-3.0216,-3.0216,-3.0136,-2.9931,-2.984,-2.96,-2.9128,-2.9035,-2.8943,-2.8803,-2.8803,-2.8803,-2.8803,-2.8683,-2.871,-2.8929,-2.8847,-2.9095,-2.9652,-2.9773,-2.9774,-2.9708,-2.9708,-2.9487,-3.571,-3.6144,-3.6537,-3.628,-3.6402,-3.6537,-3.628,-3.5954,-3.571,-3.571,-3.571,0.0,-3.571,0.0,0.0,0.0,0.0,0.0,-3.571,-3.6225,-3.6836,0.0,-3.8014,0.0,-3.9397,-3.898,-3.8684,0.0,-3.8908,-3.9203,-3.9656,-3.9042,-3.836,-3.7652,-3.7099,-3.6223,-3.5017,-3.4409,-3.4127,-3.4127,-3.3568,-3.3281,-3.3281,-3.3281,-3.3281,-3.3281,0.0,-3.3281,-3.3281,-3.3281,-3.3281,-3.3281,-3.3281,-3.3281,-3.3281,-3.3281,-3.3281,-3.3281,-3.3281,-3.3132,-3.2937,-3.2937,-3.273,-3.2302,-3.1199,-3.0566,-3.0111,-2.9179,-2.8896,-2.8803,-2.8803,-2.8803,-2.8803,-2.8803,-2.8803,-2.885,-2.9082,-2.9301,-2.9623,-2.9966,-3.0136,-3.0216,-3.0216,-3.0216,-3.0216,-3.0216,-3.0216,-3.0216,-3.0216,-3.0216,-3.0136,-2.9931,-2.9783,-2.9542,-2.9128,-2.9035,-2.8943,-2.8803,-2.8803,-2.8803,-2.8803,-2.8803,-2.8803,-2.8803,-2.876,-2.897,-2.9425,-2.9401,-2.951,-2.9641,-2.9412,-2.9136,-3.5696,-3.6144,-3.6456,-3.5859,-3.6157,-3.6442,-3.5859,-3.571,-3.571,-3.571,0.0,-3.571,-3.571,-3.571,-3.571,-3.571,0.0,-3.571,-3.571,-3.6157,-3.6741,-3.7404,-3.7946,-3.8659,-3.9543,-3.8517,-3.7887,-3.803,-3.7789,-3.8134,-3.923,-3.7782,-3.6832,-3.6692,-3.5534,-3.4421,-3.3331,-3.3281,-3.3281,-3.3281,-3.3281,-3.3281,-3.3281,-3.3281,-3.3281,-3.3281,-3.3281,-3.3247,-3.3178,-3.3258,-3.3247,-3.3178,-3.3258,-3.3281,-3.3281,-3.3281,-3.3281,-3.3281,-3.3201,-3.2879,-3.2489,-3.2489,-3.2397,-3.2073,-3.0955,-3.0426,-3.0079,-2.9296,-2.8989,-2.885,-2.8803,-2.8803,-2.8803,-2.8803,-2.8803,-2.885,-2.9035,-2.9301,-2.9623,-3.0125,-3.0216,-3.0216,-3.0216,-3.0216,-3.0216,-3.0216,-3.0216,-3.0216,-3.0216,-3.0216,-3.0136,-2.9977,-2.9737,-2.9439,-2.9174,-2.8943,-2.885,-2.8803,-2.8803,-2.8803,-2.8803,-2.8803,-2.8803,-2.8803,-2.8803,-2.9044,-2.9517,-2.9517,-2.9747,-3.0182,-2.9725,-2.9436,-3.5574,-3.6144,-3.6456,-3.5859,-3.6157,-3.6442,-3.5859,-3.571,0.0,0.0,-3.571,-3.571,-3.571,-3.571,-3.571,-3.571,0.0,0.0,0.0,0.0,-3.628,0.0,0.0,0.0,0.0,0.0,0.0,0.0,0.0,-3.5904,-3.7137,-3.6705,-3.6046,-3.5198,-3.4176,-3.3519,-3.3281,-3.3281,-3.3281,-3.3281,-3.3281,-3.3281,-3.3281,-3.3281,-3.3281,-3.3281,-3.3281,0.0,-3.2661,-3.3097,-3.3028,-3.2661,-3.3109,-3.3281,-3.3281,-3.3281,-3.3281,-3.3224,-3.2776,-3.2569,-3.2489,-3.2489,-3.1938,-3.1191,-3.0751,-3.0282,-2.9861,-2.9254,-2.9082,-2.8989,-2.885,-2.8803,-2.8803,-2.8803,-2.8803,-2.8803,-2.885,-2.9209,-2.9623,-3.0125,-3.0216,-3.0216,-3.0216,-3.0216,-3.0216,-3.0216,-3.0216,-3.0216,-3.0216,-3.0216,-3.017,-3.0136,-2.9966,-2.9737,-2.9439,-2.922,-2.8989,-2.8803,-2.8803,-2.8803,-2.8803,-2.8803,-2.8803,-2.8803,-2.8803,-2.9211,-3.0044,-3.0044,-3.0316,-3.0778,-3.0694,-3.0134,-3.5642,-3.5927,-3.6076,-3.5791,-3.5927,-3.6076,-3.5791,0.0,0.0,0.0,-3.571,-3.571,-3.571,0.0,0.0,0.0,0.0,0.0,0.0,0.0,0.0,0.0,0.0,0.0,0.0,0.0,0.0,0.0,0.0,-3.4739,-3.6424,-3.6011,-3.5259,-3.4274,-3.3767,-3.3431,-3.3281,-3.3281,-3.3281,-3.3281,-3.3281,-3.3281,-3.3281,-3.3281,-3.3281,-3.3269,-3.2982,-3.273,-3.2489,-3.2489,-3.234,-3.2121,-3.2397,-3.265,-3.2868,-3.2868,-3.2868,-3.2833,-3.2569,-3.2144,-3.172,-3.172,-3.1398,-3.0915,-3.0525,-3.0148,-2.984,-2.96,-2.9324,-2.9082,-2.8989,-2.8896,-2.8803,-2.8803,-2.8896,-2.8989,-2.9117,-2.9451,-2.9829,-3.0125,-3.0216,-3.0216,-3.0216,-3.0216,-3.0216,-3.0216,-3.0216,-3.0216,-3.0216,-3.0216,-3.0216,-3.0216,-3.0011,-2.9783,-2.9531,-2.9255,-2.8989,-2.8803,-2.8803,-2.8803,-2.8803,-2.8803,-2.8803,-2.8803,-2.8803,-2.9117,-2.9852,-2.9852,-3.018,-3.0882,-3.0664,-3.04,-3.5452,-3.5533,-3.556,-3.5683,-3.571,-3.571,-3.571,-3.571,0.0,0.0,-3.571,-3.571,-3.571,0.0,-3.571,0.0,0.0,0.0,0.0,0.0,0.0,0.0,0.0,0.0,0.0,0.0,0.0,0.0,0.0,0.0,-3.557,-3.5174,-3.447,-3.363,-3.363,-3.353,-3.3281,-3.3281,-3.3281,-3.3281,-3.3281,-3.3281,-3.3281,-3.3281,-3.3224,-3.3086,-3.2661,-3.2363,-3.2144,-3.188,-3.1697,-3.1593,-3.172,-3.2043,-3.2328,-3.2328,-3.2328,-3.2317,-3.2202,-3.1662,-3.0996,-3.0882,-3.0847,-3.0767,-3.0342,-3.0091,-2.9977,-2.9886,-2.9554,-2.9174,-2.9128,-2.8943,-2.8803,-2.8803,-2.8943,-2.9163,-2.9439,-2.9737,-2.9977,-3.017,-3.0216,-3.0216,-3.0216,-3.0216,-3.0216,-3.0216,-3.0216,-3.0216,-3.0216,-3.0216,-3.0216,-3.0216,-2.9966,-2.9691,-2.9439,-2.9174,-2.8989,-2.8803,-2.8803,-2.8803,-2.8803,-2.8803,-2.8803,-2.8803,-2.8803,-2.9035,-2.9485,-2.9485,-2.9943,-3.0746,-3.0461,-3.0477,-3.4585,-3.487,-3.4992,-3.5574,-3.571,-3.571,-3.571,0.0,0.0,-3.571,-3.571,-3.571,-3.571,-3.571,-3.571,0.0,0.0,-3.571,0.0,0.0,0.0,0.0,0.0,0.0,0.0,0.0,0.0,0.0,0.0,0.0,-3.3568,-3.3717,-3.3668,-3.3331,-3.3331,-3.3331,-3.3281,-3.3281,-3.3281,-3.3281,-3.3281,-3.3281,-3.3281,-3.3281,-3.3017,-3.2558,-3.25,-3.1972,0.0,-3.1641,-3.149,-3.1123,-3.1582,-3.1848,-3.1882,-3.1812,-3.1812,-3.1813,-3.1318,-3.1088,-3.0939,-3.0445,-3.0285,-3.0285,-3.0227,-3.017,-3.0136,-2.9931,-2.9691,-2.9393,-2.9174,-2.8943,-2.8803,-2.8803,-2.8943,-2.9163,-2.9439,-2.9737,-2.9977,-3.017,-3.0216,-3.0216,-3.0216,-3.0216,-3.0216,-3.0216,-3.0216,-3.0216,-3.0216,-3.0216,-3.0216,-3.0216,-2.9806,-2.9439,-2.9174,-2.8943,-2.8803,-2.8803,-2.8803,-2.8803,-2.8803,-2.8803,-2.8803,-2.8803,-2.8803,-2.9035,-2.9485,-2.9485,-2.976,-3.0261,-3.0678,-3.0631,-3.4572,-3.4419,-3.422,-3.4954,-3.5049,-3.5059,-3.5588,0.0,-3.5059,-3.5588,-3.4814,-3.4233,-3.4799,-3.4454,-3.4095,0.0,0.0,0.0,0.0,0.0,0.0,0.0,0.0,0.0,0.0,0.0,0.0,0.0,0.0,0.0,-3.3281,-3.3381,-3.3431,-3.3281,-3.3281,-3.3281,-3.3281,-3.3281,-3.3281,-3.3281,-3.3281,-3.3281,-3.3269,-3.2948,-3.2684,-3.2454,-3.1857,-3.1375,0.0,-3.0882,-3.0721,-3.0549,-3.0755,-3.1031,-3.1318,-3.1306,-3.1306,-3.1283,-3.1077,-3.0801,-3.0503,-3.0285,-3.0216,-3.0216,-3.0216,-3.0216,-3.017,-3.0091,-2.9817,-2.9485,-2.9347,-2.9082,-2.8803,-2.8803,-2.885,-2.9035,-2.9439,-2.9588,-2.9772,-3.0125,-3.0216,-3.0216,-3.0216,-3.0216,-3.0216,-3.0216,-3.0216,-3.0216,-3.0216,-3.0216,-3.0136,-3.0011,-2.9954,-2.976,-2.9347,-2.9255,-2.9128,-2.8803,-2.8803,-2.8803,-2.8803,-2.8803,-2.8803,-2.8803,-2.8803,-2.8885,-2.9071,-2.9071,-2.9301,-2.9806,-3.0261,-3.0518,-3.4204,-3.3832,-3.3426,-3.4433,-3.4331,-3.4163,0.0,0.0,-3.4163,-3.4786,-3.3885,-3.3207,-3.3869,-3.3433,-3.298,0.0,0.0,-3.298,0.0,0.0,0.0,0.0,0.0,0.0,0.0,0.0,0.0,0.0,0.0,0.0,-3.3281,-3.3281,-3.3281,-3.3281,-3.3281,-3.3281,-3.3281,-3.3281,-3.3281,-3.3281,-3.3281,-3.3201,-3.304,-3.2661,-3.2328,-3.2018,-3.1318,-3.0928,0.0,-3.0376,-3.0216,-3.0216,-3.0216,-3.0445,-3.0778,-3.0778,-3.0778,-3.0778,-3.0778,-3.0526,-3.0216,-3.0216,-3.0216,-3.0216,-3.0216,-3.017,-3.0091,-3.0034,-2.9715,-2.9347,-2.9301,-2.9024,-2.8803,-2.8803,-2.8896,-2.9128,-2.9439,-2.9623,-2.9806,-3.0125,-3.0216,-3.0216,-3.0216,-3.0216,-3.0216,-3.0216,-3.0216,-3.0216,-3.0216,-3.0216,-3.0136,-3.0011,-3.0057,-2.9897,-2.9439,-2.9393,-2.922,-2.8803,-2.8803,-2.8803,-2.8803,-2.8803,-2.8803,-2.8803,-2.8803,-2.8803,-2.8803,-2.8803,-2.8989,-2.9301,-2.9943,-3.0532,-3.3222,-3.3006,-3.2829,-3.4074,-3.3687,-3.3036,0.0,-3.3023,-3.3036,-3.3036,-3.3023,-3.298,-3.3023,-3.3023,-3.298,-3.298,0.0,0.0,0.0,0.0,0.0,0.0,0.0,0.0,0.0,0.0,0.0,0.0,0.0,0.0,-3.3281,-3.3281,-3.3281,-3.3281,-3.3281,-3.3281,-3.3281,-3.3281,-3.3281,-3.3281,-3.3281,-3.3005,-3.2489,-3.2489,-3.1961,-3.1031,-3.1019,-3.0721,0.0,-3.0216,-3.0216,-3.0216,-3.0216,-3.0216,-3.0227,-3.0227,-3.0227,-3.0227,-3.0227,-3.0216,-3.0216,-3.0216,-3.0216,-3.0216,-3.0216,-3.0057,-2.984,-2.9588,-2.9301,-2.9082,-2.885,-2.8803,-2.8803,-2.8803,-2.9163,-2.9485,-2.9485,-2.9852,-3.0216,-3.0216,-3.0216,-3.0216,-3.0216,-3.0216,-3.0216,-3.0216,-3.0216,-3.0216,-3.0216,-3.0216,-3.0216,-3.0216,-3.0011,-2.9703,-2.9128,-2.9082,-2.9035,-2.8803,-2.8803,-2.8803,-2.8803,-2.8803,-2.8803,-2.8803,-2.8803,-2.8803,-2.8803,-2.8803,-2.8803,-2.885,-2.976,-3.0758,-3.1427,-3.116,-3.1041,-3.2019,-3.193,-3.1804,-3.2777,-3.2519,-3.2215,-3.2864,-3.1996,-3.1258,-3.1921,-3.1524,-3.108,-3.108,-3.108,0.0,0.0,0.0,0.0,0.0,0.0,0.0,0.0,0.0,0.0,0.0,0.0,0.0,-3.3281,-3.3281,-3.3281,-3.3281,-3.3281,-3.3281,-3.3281,-3.3281,-3.3281,-3.3281,-3.2914,-3.265,-3.2466,-3.1789,-3.1306,-3.0996,-3.0629,-3.0376,-3.0216,-3.0216,-3.0216,-3.0216,-3.0216,-3.0216,-3.0216,-3.0216,-3.0216,-3.0216,-3.0216,-3.0216,-3.0216,-3.0216,-3.0216,-3.017,-3.0057,-2.9931,-2.9794,-2.9359,-2.9174,-2.9035,-2.885,-2.8803,-2.8803,-2.8803,-2.8896,-2.9117,-2.9439,-2.9623,-2.9806,-3.0125,-3.0216,-3.0216,-3.0216,-3.0216,-3.0216,-3.0216,-3.0216,-3.0216,-3.0216,-3.0216,-3.0216,-3.0216,-3.0136,-2.9909,-2.9405,-2.922,-2.8989,-2.8803,-2.8803,-2.8803,-2.8803,-2.8803,-2.8803,-2.8803,-2.8803,-2.8803,-2.8803,-2.8803,-2.8978,-2.9301,-2.9577,-3.008,0.0,-3.0034,-2.9899,-3.0883,-3.0737,0.0,0.0,-3.148,-3.1226,-3.1821,-3.0991,-3.0397,-3.0958,-3.0611,-3.0216,-3.0216,-3.0216,0.0,0.0,0.0,0.0,0.0,0.0,0.0,0.0,0.0,0.0,0.0,0.0,0.0,-3.3281,-3.3281,-3.3281,-3.3281,-3.3281,-3.3281,-3.3281,-3.3281,-3.3178,-3.2982,-3.265,-3.2294,-3.1915,-3.1295,-3.0905,-3.0698,-3.0365,-3.0216,0.0,-3.0216,-3.0216,-3.0216,-3.0216,-3.0216,-3.0216,-3.0216,-3.0216,-3.0216,-3.0216,-3.0216,-3.0216,-3.0216,-3.0216,-3.0125,-2.9829,-2.9691,-2.9508,-2.9174,-2.9035,-2.8943,-2.885,-2.8803,-2.8803,-2.8803,-2.8943,-2.9117,-2.9439,-2.9623,-2.9852,-3.0125,-3.0216,-3.0216,-3.0216,-3.0216,-3.0216,-3.0216,-3.0216,-3.0216,-3.0216,-3.0216,-3.017,-3.0091,-3.0,-2.976,-2.9393,-2.9312,-2.9128,-2.8803,-2.8803,-2.8803,-2.8803,-2.8803,-2.8803,-2.8803,-2.8803,-2.8803,-2.8803,-2.8803,-2.9035,-2.9485,-2.9485,-2.976,0.0,-2.9484,0.0,0.0,0.0,0.0,-3.0055,-3.0193,0.0,-3.0216,-3.0216,-3.0216,-3.0216,-3.0216,-3.0216,-3.0216,0.0,0.0,0.0,0.0,0.0,0.0,0.0,0.0,0.0,0.0,0.0,0.0,0.0,0.0,-3.3281,-3.3331,-3.3331,-3.3281,-3.3331,-3.3331,-3.3281,-3.3247,-3.2982,-3.2489,-3.2408,-3.1903,-3.1019,-3.0973,-3.0686,0.0,-3.0216,-3.0216,-3.0216,-3.0216,-3.0216,-3.0216,-3.0216,-3.0216,-3.0216,-3.0216,-3.0216,-3.0216,-3.0216,-3.0216,-3.0216,-3.0216,-3.0216,-3.0125,-2.9669,-2.9347,-2.9128,-2.9082,-2.8943,-2.8803,-2.8803,-2.8803,-2.8803,-2.8803,-2.9117,-2.9439,-2.9485,-2.9852,-3.017,-3.0216,-3.0216,-3.0216,-3.0216,-3.0216,-3.0216,-3.0216,-3.0216,-3.0216,-3.0216,-3.0216,-3.0136,-2.9931,-2.968,-2.9439,-2.9174,-2.9312,-2.9255,-2.885,-2.8803,-2.8803,-2.8803,-2.8803,-2.8803,-2.8803,-2.8803,-2.8803,-2.8803,-2.8803,-2.9024,-2.9439,-2.9439,-2.9669,-2.7788,0.0,-2.8311,-2.8595,-2.878,-2.9022,0.0,-2.9952,-3.0216,-3.0216,-3.0216,-3.0216,-3.0216,-3.0216,-3.0216,0.0,0.0,0.0,0.0,0.0,0.0,0.0,0.0,0.0,0.0,0.0,0.0,0.0,0.0,-3.3281,-3.3281,-3.3481,-3.353,-3.3292,-3.3679,-3.3729,-3.3281,-3.2879,-3.2604,-3.2477,-3.172,-3.1237,-3.1008,-3.0595,-3.0331,-3.0216,-3.0216,-3.0216,-3.0216,-3.0216,-3.0216,-3.0216,-3.0216,-3.0216,-3.0216,-3.0216,-3.0216,-3.0216,-3.0216,-3.0216,-3.0216,-3.0216,-3.0216,-3.017,-3.008,-2.976,-2.9347,-2.8989,-2.885,-2.8803,-2.8803,-2.8803,-2.8803,-2.8803,-2.8896,-2.9071,-2.9439,-2.9577,-2.976,-3.0125,-3.0216,-3.0216,-3.0216,-3.0216,-3.0216,-3.0216,-3.0216,-3.0216,-3.0216,-3.0216,-3.017,-3.0136,-3.008,-2.9852,-2.9439,-2.9117,-2.8943,-2.8803,-2.8803,-2.8803,-2.8803,-2.8803,-2.8803,-2.8803,-2.8803,-2.8803,-2.8803,-2.8803,-2.885,-2.8978,-2.8978,-2.9024,-2.719,-2.7598,-2.8035,-2.8253,-2.8505,-2.8838,-2.9378,0.0,-2.9883,-2.9883,0.0,-3.0216,-3.0216,0.0,0.0,0.0,0.0,0.0,0.0,0.0,0.0,0.0,0.0,0.0,0.0,0.0,0.0,0.0,0.0,-3.3481,-3.3481,-3.3729,-3.3828,-3.3679,-3.3927,-3.3828,-3.3292,-3.29,-3.252,-3.2144,-3.1375,-3.0882,-3.0641,-3.0342,-3.0216,-3.0216,-3.0216,-3.0216,-3.0216,-3.0216,-3.0216,-3.0216,-3.0216,-3.0216,-3.0216,-3.0216,-3.0216,-3.0216,-3.0216,-3.0216,-3.0216,-3.0216,-3.0216,-3.017,-3.0091,-2.9863,-2.9588,-2.922,-2.8989,-2.8803,-2.8803,-2.8803,-2.8803,-2.8803,-2.8896,-2.8989,-2.9266,-2.9497,-2.9772,-3.0,-3.0136,-3.0216,-3.0216,-3.0216,-3.0216,-3.0216,-3.0216,-3.0216,-3.0216,-3.0216,-3.017,-3.0045,-3.0057,-2.9909,-2.9531,-2.9163,-2.8896,-2.8803,-2.8803,-2.8803,-2.8803,-2.8803,-2.8803,-2.8803,-2.8803,-2.8803,-2.8803,-2.8803,-2.8803,-2.8803,-2.8803,-2.8803,-2.719,-2.7598,-2.808,-2.8494,-2.8586,-2.8723,-2.9263,0.0,0.0,0.0,0.0,0.0,0.0,-3.0641,0.0,0.0,0.0,0.0,0.0,0.0,0.0,0.0,0.0,0.0,0.0,0.0,0.0,0.0,0.0,-3.3729,-3.3779,-3.4026,-3.4078,-3.3958,-3.4056,-3.3763,-3.32,-3.2885,-3.2422,-3.1734,-3.1134,-3.0652,-3.0216,-3.0216,-3.0216,-3.0216,0.0,0.0,-3.0216,-3.0216,-3.0216,-3.0216,-3.0216,-3.0216,-3.0216,-3.0216,-3.0216,-3.0216,-3.0216,-3.0216,-3.0216,-3.0216,-3.0216,-3.017,-3.0011,-2.9931,-2.984,-2.9634,-2.9266,-2.8896,-2.8896,-2.8896,-2.8896,-2.8896,-2.9035,-2.9174,-2.922,-2.9554,-2.9886,-2.9931,-3.0091,-3.0216,-3.0216,-3.0216,-3.0216,-3.0216,-3.0216,-3.0216,-3.0216,-3.0216,-3.0136,-2.9977,-2.9931,-2.9829,-2.9531,-2.9312,-2.9082,-2.8803,-2.8803,-2.8803,-2.8803,-2.8803,-2.8803,-2.8803,-2.8803,-2.8803,-2.8803,-2.8803,-2.8803,-2.8803,-2.8803,-2.8803,-2.719,-2.7598,-2.8042,-2.8069,-2.8092,-2.8218,-2.8712,-2.8827,0.0,0.0,0.0,0.0,0.0,-3.0583,0.0,0.0,0.0,0.0,0.0,0.0,0.0,0.0,0.0,0.0,0.0,0.0,0.0,0.0,0.0,-3.3779,-3.4026,-3.4261,-3.4048,-3.3441,-3.3791,-3.3577,-3.2628,-3.238,-3.1983,-3.1449,-3.0686,-3.0296,-3.0216,-3.0216,-3.0216,-3.0216,0.0,-3.0216,-3.0216,-3.0216,-3.0216,-3.0216,-3.0216,-3.0216,-3.0216,-3.0216,-3.0216,-3.0216,-3.0216,-3.0216,-3.0216,-3.0216,-3.0216,-3.017,-3.017,-3.0057,-2.9886,-2.984,-2.9634,-2.9393,-2.9393,-2.9393,-2.9393,-2.9393,-2.9439,-2.9485,-2.9748,-2.984,-2.9931,-3.0136,-3.017,-3.0216,-3.0216,-3.0216,-3.0216,-3.0216,-3.0216,-3.0216,-3.0216,-3.0216,-3.017,-3.017,-3.0136,-2.9988,-2.9531,-2.9439,-2.9266,-2.885,-2.8803,-2.8803,-2.8803,-2.8803,-2.8803,-2.8803,-2.8803,-2.8803,-2.8803,-2.8803,-2.8803,-2.8803,-2.8803,-2.8803,-2.719,-2.7392,-2.7644,-2.792,-2.7977,-2.8046,-2.8264,-2.831,0.0,0.0,0.0,0.0,0.0,0.0,0.0,0.0,0.0,0.0,0.0,0.0,0.0,0.0,0.0,0.0,0.0,0.0,0.0,0.0,0.0,0.0,-3.3907,-3.3815,-3.3648,-3.3327,-3.3386,-3.3029,-3.2286,-3.1903,-3.16,-3.1379,-3.056,-3.0216,-3.0216,-3.0216,-3.0216,-3.0216,0.0,-3.0216,-3.0216,-3.0216,-3.0216,-3.0216,-3.0216,-3.0216,-3.0216,-3.0216,-3.0216,-3.0216,-3.0216,-3.0216,-3.0216,-3.0216,-3.0216,-3.0216,-3.0216,-3.0136,-3.0057,-3.0057,-2.9772,-2.9485,-2.9485,-2.9485,-2.9485,-2.9485,-2.9485,-2.9485,-2.9462,-2.9703,-2.9874,-2.9806,-3.0034,-3.0216,-3.0216,-3.0216,-3.0216,-3.0216,-3.0216,-3.0216,-3.0216,-3.0216,-3.0216,-3.0216,-3.0216,-3.0125,-2.9897,-2.9669,-2.9301,-2.885,-2.8803,-2.8803,-2.8803,-2.8803,-2.8803,-2.8803,-2.8803,-2.8803,-2.8803,-2.8803,-2.8803,-2.8803,-2.8803,-2.8803,-2.719,-2.719,-2.7282,-2.7713,-2.7805,-2.7839,-2.7954,-2.7885,-2.7839,0.0,0.0,0.0,0.0,0.0,0.0,0.0,0.0,0.0,0.0,0.0,0.0,0.0,0.0,0.0,0.0,0.0,0.0,0.0,0.0,0.0,-3.3601,-3.3407,-3.3236,-3.3104,-3.2895,-3.2528,-3.19,-3.1514,-3.1285,-3.1193,-3.0502,-3.0216,-3.0216,-3.0216,-3.0216,-3.0216,-3.0216,-3.0216,-3.0216,-3.0216,-3.0216,-3.0216,-3.0216,-3.0216,-3.0216,-3.0216,-3.0216,-3.0216,-3.0216,-3.0216,-3.0216,-3.0216,-3.0216,-3.0216,-3.0216,-3.0216,-3.0216,-3.0216,-2.9943,-2.9669,-2.9669,-2.9669,-2.9669,-2.9669,-2.9669,-2.9623,-2.9393,-2.9691,-2.992,-2.9715,-2.9943,-3.0216,-3.0216,-3.0216,-3.0216,-3.0216,-3.0216,-3.0216,-3.0216,-3.0216,-3.0216,-3.0216,-3.0216,-3.017,-3.0034,-2.9623,-2.9163,-2.8803,-2.8803,-2.8803,-2.8803,-2.8803,-2.8803,-2.8803,-2.8803,-2.8803,-2.8803,-2.8803,-2.8803,-2.8803,-2.8803,-2.8803,-2.719,-2.719,-2.7201,-2.7236,-2.7247,-2.7403,-2.7874,-2.7621,0.0,-2.7885,0.0,0.0,0.0,0.0,0.0,0.0,0.0,0.0,0.0,0.0,0.0,0.0,0.0,0.0,0.0,0.0,0.0,0.0,0.0,0.0,-3.3298,-3.3308,-3.3056,-3.2575,-3.2551,-3.2151,-3.1365,-3.1166,-3.0884,-3.0636,-3.0375,-3.0216,-3.0216,-3.0216,-3.0216,-3.0216,-3.0216,-3.0216,-3.0216,-3.0216,-3.0216,-3.0216,-3.0216,-3.0216,-3.0216,-3.0216,-3.0216,-3.0216,-3.0216,-3.0216,-3.0216,-3.0216,-3.0216,-3.0216,-3.0216,-3.0216,-3.0216,-3.0216,-3.017,-3.017,-3.017,-3.017,-3.017,-3.017,-3.017,-3.0125,-3.0125,-3.017,-3.017,-3.017,-3.017,-3.0216,-3.0216,-3.0216,-3.0216,-3.0216,-3.0216,-3.0216,-3.0216,-3.0216,-3.0216,-3.0216,-3.0216,-3.0034,-2.9577,-2.9117,-2.885,-2.8803,-2.8803,-2.8803,-2.8803,-2.8803,-2.8803,-2.8803,-2.8803,-2.8803,-2.8803,-2.8803,-2.8803,-2.8803,-2.8803,-2.8803,-2.719,-2.719,-2.719,-2.719,-2.719,0.0,0.0,-2.7369,-2.7247,-2.7472,-2.7759,0.0,0.0,0.0,0.0,0.0,0.0,0.0,0.0,0.0,0.0,0.0,0.0,0.0,0.0,0.0,0.0,0.0,0.0,0.0,-3.2803,-3.2466,-3.2235,-3.203,-3.1839,-3.1577,-3.1107,-3.0859,-3.0634,-3.0352,-3.0261,-3.0216,-3.0216,-3.0216,-3.0216,-3.0216,-3.0216,-3.0216,-3.0216,-3.0216,-3.0216,-3.0216,-3.0216,-3.0216,-3.0216,-3.0216,-3.0216,-3.0216,-3.0216,-3.0216,-3.0216,-3.0216,-3.0216,-3.0216,-3.0216,-3.0216,-3.0216,-3.0216,-3.0216,-3.0216,-3.0216,-3.0216,-3.0216,-3.0216,-3.0216,-3.017,-3.0057,-3.0091,-3.017,-3.0057,-3.0091,-3.0216,-3.0216,-3.0216,-3.0216,-3.0216,-3.0216,-3.0216,-3.0216,-3.0216,-3.0216,-3.0216,-3.0216,-3.0091,-2.9783,-2.9451,-2.9163,-2.8989,-2.8896,-2.8803,-2.8803,-2.8803,-2.8803,-2.8803,-2.8803,-2.8803,-2.8803,-2.8803,-2.8803,-2.8803,-2.8803,-2.8803,-2.7426,-2.7305,-2.7224,-2.7426,0.0,0.0,-2.719,-2.719,-2.719,-2.719,-2.7506,-2.7943,-2.8586,0.0,0.0,0.0,0.0,0.0,0.0,0.0,0.0,0.0,0.0,0.0,0.0,0.0,0.0,0.0,0.0,0.0,0.0,-3.1872,-3.16,-3.1678,-3.1401,-3.1095,-3.0883,-3.0668,-3.0487,-3.0216,-3.0216,-3.0216,-3.0216,-3.0216,-3.0216,-3.0216,-3.0216,-3.0216,-3.0216,-3.0216,-3.0216,-3.0216,-3.0216,-3.0216,-3.0216,-3.0216,-3.0216,-3.0216,-3.0216,-3.0216,-3.0216,-3.0216,-3.0216,-3.0216,-3.0216,-3.0216,-3.0216,-3.0216,-3.0216,-3.0216,-3.0216,-3.0216,-3.0216,-3.0216,-3.0216,-3.017,-3.0011,-3.0091,-3.017,-3.0011,-3.0091,-3.0216,-3.0216,-3.0216,-3.0216,-3.0216,-3.0216,-3.0216,-3.0216,-3.0216,-3.0216,-3.0216,-3.0136,-3.0057,-2.9886,-2.9634,-2.9405,-2.9128,-2.8989,-2.885,-2.8803,-2.8803,-2.8803,-2.8803,-2.8803,-2.8803,-2.8803,-2.8803,-2.8803,-2.8803,-2.8803,-2.8803,-2.7839,-2.761,-2.7305,0.0,0.0,0.0,-2.719,-2.719,-2.719,-2.719,-2.719,-2.7488,-2.8505,0.0,0.0,0.0,0.0,0.0,0.0,0.0,0.0,0.0,0.0,0.0,0.0,0.0,0.0,0.0,0.0,0.0,0.0,-3.1591,-3.1409,-3.1689,-3.1243,-3.0883,-3.0623,-3.0623,-3.0487,-3.0216,-3.0216,-3.0216,-3.0216,-3.0216,-3.0216,-3.0216,-3.0216,-3.0216,-3.0216,-3.0216,-3.0216,-3.0227,-3.0227,-3.0227,-3.0227,-3.0227,-3.0227,-3.0227,-3.0216,-3.0216,-3.0227,-3.0216,-3.0216,-3.0216,-3.0227,-3.0227,-3.0227,-3.0227,-3.0227,-3.0227,-3.0227,-3.0216,-3.0216,-3.0216,-3.0216,-3.0216,-3.0216,-3.0216,-3.0216,-3.0216,-3.0216,-3.0216,-3.0216,-3.0216,-3.0216,-3.0216,-3.0216,-3.0216,-3.0216,-3.0216,-3.0216,-3.0216,-3.0011,-2.9886,-2.9886,-2.9634,-2.9393,-2.9128,-2.9082,-2.8989,-2.8803,-2.8803,-2.8803,-2.8803,-2.8803,-2.8803,-2.8803,-2.8803,-2.8803,-2.8803,-2.8803,-2.8803,-2.7415,-2.7305,0.0,-2.7415,0.0,0.0,0.0,-2.719,0.0,0.0,-2.719,-2.7385,-2.808,0.0,0.0,0.0,0.0,0.0,0.0,0.0,0.0,0.0,0.0,0.0,0.0,0.0,0.0,0.0,0.0,0.0,0.0,-3.1189,-3.1133,-3.1196,-3.1395,-3.1222,-3.0623,-3.0949,-3.0858,-3.0216,-3.0216,-3.0216,-3.0216,-3.0216,-3.0216,-3.0216,-3.0216,-3.0216,-3.0216,-3.0216,-3.0434,-3.0778,-3.0778,-3.0996,-3.126,-3.0905,-3.0985,-3.1133,-3.0468,-3.0468,-3.0721,-3.0342,-3.0216,-3.033,-3.0893,-3.1055,-3.1055,-3.1055,-3.1055,-3.1009,-3.0824,-3.0503,-3.0216,-3.0216,-3.0216,-3.0216,-3.0216,-3.0216,-3.0216,-3.0216,-3.0216,-3.0216,-3.0216,-3.0216,-3.0216,-3.0216,-3.0216,-3.0216,-3.0216,-3.0216,-3.0216,-3.0216,-3.0136,-3.0091,-3.0091,-2.992,-2.9691,-2.9393,-2.922,-2.8989,-2.8803,-2.8803,-2.8803,-2.8803,-2.8803,-2.8803,-2.8803,-2.8803,-2.8803,-2.8803,-2.8803,-2.8803,-2.7713,-2.7488,0.0,-2.7472,-2.7204,-2.6921,-2.6921,0.0,0.0,0.0,0.0,-2.7408,-2.8138,0.0,0.0,0.0,0.0,0.0,0.0,0.0,0.0,0.0,0.0,0.0,0.0,0.0,0.0,0.0,0.0,0.0,0.0,-3.0943,-3.0886,-3.1006,-3.1087,-3.0891,-3.0442,-3.0766,-3.0778,-3.0537,-3.0537,-3.0641,-3.0824,-3.0399,-3.0216,-3.0227,-3.0445,-3.0641,-3.0813,-3.0813,-3.1019,-3.1318,-3.1318,-3.1502,-3.1779,-3.1433,-3.1502,-3.1662,-3.1042,-3.0916,-3.0996,-3.087,-3.0698,-3.0629,-3.1344,-3.1402,-3.124,-3.124,-3.109,-3.0882,-3.0744,-3.0457,-3.0262,-3.048,-3.0376,-3.0216,-3.0216,-3.0216,-3.0216,-3.0216,-3.0216,-3.0216,-3.0216,-3.0216,-3.0216,-3.0216,-3.0216,-3.0216,-3.0216,-3.0216,-3.0216,-3.0216,-3.0216,-3.0216,-3.0216,-3.0091,-2.992,-2.968,-2.9405,-2.9174,-2.8943,-2.885,-2.8803,-2.8803,-2.8803,-2.8803,-2.8803,-2.8803,-2.8803,-2.8803,-2.8803,-2.8803,-2.8322,0.0,0.0,-2.7805,-2.7209,0.0,-2.6445,-2.6798,-2.7108,-2.719,0.0,-2.7447,0.0,0.0,0.0,0.0,0.0,0.0,0.0,0.0,0.0,0.0,0.0,0.0,0.0,0.0,0.0,0.0,0.0,0.0,0.0,-3.0845,-3.0662,-3.0928,-3.0514,-3.0262,-3.0216,-3.0262,-3.0503,-3.0939,-3.0939,-3.118,-3.1641,-3.0744,-3.0354,-3.0376,-3.087,-3.1329,-3.1683,-3.1683,-3.1777,-3.1882,-3.1882,-3.1905,-3.1951,-3.1905,-3.1905,-3.194,-3.1848,-3.1467,-3.1146,-3.1559,-3.1387,-3.1111,-3.1652,-3.1526,-3.1134,-3.1088,-3.0732,-3.0342,-3.0296,-3.025,-3.0354,-3.0882,-3.0606,-3.0216,-3.0216,-3.0216,-3.0216,-3.0216,-3.0216,-3.0216,-3.0216,-3.0216,-3.0216,-3.0216,-3.0216,-3.0216,-3.0216,-3.0216,-3.0216,-3.0216,-3.0216,-3.0216,-3.0216,-3.0216,-3.0091,-2.9886,-2.968,-2.9405,-2.9128,-2.8896,-2.8803,-2.8803,-2.8803,-2.8803,-2.8803,-2.8803,-2.8803,-2.8803,-2.8803,-2.8803,-2.7442,-2.7351,0.0,0.0,-2.6918,-2.6404,-2.6093,-2.6104,-2.6354,0.0,0.0,0.0,0.0,0.0,0.0,0.0,0.0,0.0,0.0,0.0,0.0,0.0,0.0,0.0,0.0,0.0,0.0,0.0,0.0,0.0,-3.0468,-3.0364,-3.0319,-3.0388,-3.0686,-3.0641,-3.0216,-3.0629,-3.0686,-3.0388,-3.0388,-3.0445,-3.0572,-3.1169,-3.1421,-3.1374,-3.1547,-3.1662,-3.1766,-3.1766,-3.1984,-3.2328,-3.2328,-3.2592,-3.2914,-3.2489,-3.2592,-3.2845,-3.2089,-3.1685,-3.1489,-3.126,-3.11,-3.1111,-3.183,-3.2273,-3.2412,-3.197,-3.1773,-3.1552,-3.0985,-3.0526,-3.0354,-3.0882,-3.0606,-3.0216,-3.0216,-3.0216,-3.0216,-3.0216,-3.0216,-3.0216,-3.0216,-3.0216,-3.0216,-3.0216,-3.0216,-3.0216,-3.0216,-3.0216,-3.0216,-3.0216,-3.0216,-3.0216,-3.0216,-3.0216,-3.0091,-2.9886,-2.984,-2.96,-2.9128,-2.8896,-2.8803,-2.8803,-2.8803,-2.8803,-2.8803,-2.8803,-2.8803,-2.8803,-2.8803,-2.8803,-2.7164,0.0,0.0,-2.6302,0.0,0.0,-2.5633,0.0,0.0,0.0,0.0,0.0,0.0,0.0,0.0,0.0,0.0,0.0,0.0,0.0,0.0,0.0,0.0,0.0,0.0,0.0,0.0,0.0,0.0,-3.0216,-3.0216,-3.0216,-3.0216,-3.0216,-3.048,-3.0503,-3.0216,-3.0491,-3.0629,-3.0595,-3.0595,-3.0721,-3.0962,-3.1008,-3.1157,-3.1398,-3.1651,-3.1951,-3.2181,-3.2386,-3.2638,-3.2868,-3.2868,-3.304,-3.3247,-3.2971,-3.304,-3.3212,-3.2673,-3.2317,-3.2099,-3.2099,-3.1926,-3.1859,-3.2462,-3.251,-3.2327,-3.2002,-3.1563,-3.109,-3.0698,-3.0422,-3.0285,-3.056,-3.0422,-3.0216,-3.0216,-3.0216,-3.0216,-3.0216,-3.0216,-3.0216,-3.0216,-3.0216,-3.0216,-3.0216,-3.0216,-3.0216,-3.0216,-3.0216,-3.0216,-3.0216,-3.0216,-3.0216,-3.0216,-3.0091,-3.0057,-3.0057,-2.9691,-2.9451,-2.9301,-2.8989,-2.8803,-2.8803,-2.8803,-2.8803,-2.8803,-2.8803,-2.8803,-2.8803,-2.8803,-2.8683,-2.7021,0.0,-2.5812,-2.5327,-2.52,0.0,0.0,0.0,0.0,0.0,0.0,0.0,0.0,0.0,0.0,0.0,0.0,0.0,0.0,0.0,0.0,0.0,0.0,0.0,0.0,0.0,0.0,0.0,0.0,-3.0216,-3.0216,-3.0216,-3.0216,-3.0216,-3.0216,-3.0216,-3.0216,-3.0216,-3.0434,-3.0882,-3.0882,-3.1088,-3.1467,-3.0606,-3.056,-3.1169,-3.1582,-3.2043,-3.2397,-3.2845,-3.3028,-3.3028,-3.3028,-3.3074,-3.3143,-3.3143,-3.3143,-3.3166,-3.3258,-3.2879,-3.2431,-3.2879,-3.2718,-3.2431,-3.2787,-3.2363,-3.1743,-3.1639,-3.0961,-3.0331,-3.0239,-3.0216,-3.0216,-3.0216,-3.0216,-3.0216,-3.0216,-3.0216,-3.0216,-3.0216,-3.0216,-3.0216,-3.0216,-3.0216,-3.0216,-3.0216,-3.0216,-3.0216,-3.0216,-3.0216,-3.0216,-3.0216,-3.0216,-3.0216,-3.0216,-3.0057,-3.0011,-3.0136,-2.9588,-2.9312,-2.9439,-2.9082,-2.885,-2.8803,-2.8803,-2.8803,-2.8803,-2.8803,-2.8803,-2.8803,-2.8716,-2.8418,0.0,0.0,-2.5812,0.0,0.0,0.0,0.0,0.0,0.0,0.0,0.0,0.0,0.0,0.0,0.0,0.0,0.0,0.0,0.0,0.0,0.0,0.0,0.0,0.0,0.0,0.0,0.0,0.0,-3.0216,-3.0216,-3.0216,-3.0216,-3.0216,-3.0216,-3.0216,-3.0216,-3.0216,-3.0216,-3.025,-3.0331,-3.0331,-3.0354,-3.0422,-3.0285,-3.0744,-3.1721,-3.179,-3.1848,-3.1917,-3.1986,-3.202,-3.202,-3.202,-3.2225,-3.2592,-3.2592,-3.2592,-3.2661,-3.312,-3.2661,-3.1928,-3.1997,-3.1963,-3.1836,-3.1433,-3.1513,-3.1651,-3.1226,-3.1019,-3.0801,-3.0342,-3.0216,-3.0216,-3.0216,-3.0216,-3.0216,-3.0216,-3.0216,-3.0216,-3.0216,-3.0216,-3.0216,-3.0216,-3.0216,-3.0216,-3.0216,-3.0216,-3.0216,-3.0216,-3.0216,-3.0216,-3.0216,-3.0216,-3.0216,-3.0216,-3.017,-3.0091,-2.9931,-2.984,-2.9611,-2.9174,-2.9082,-2.8989,-2.8803,-2.8803,-2.8803,-2.8803,-2.8803,-2.8803,-2.8792,-2.8331,-2.8056,-2.5454,-2.4999,-2.4615,0.0,0.0,0.0,0.0,0.0,0.0,0.0,0.0,0.0,0.0,0.0,0.0,0.0,0.0,0.0,0.0,0.0,0.0,0.0,0.0,0.0,0.0,0.0,0.0,0.0,-2.9806,-2.9943,-3.017,-3.0216,-3.0216,-3.0216,-3.0216,-3.0216,-3.0216,-3.0216,-3.0216,-3.0216,-3.0216,-3.0216,-3.0216,-3.0216,-3.0468,-3.0916,-3.1215,-3.1341,-3.1375,-3.1698,-3.1813,-3.1813,-3.1813,-3.1951,-3.2076,-3.2064,-3.2076,-3.2121,-3.24,-3.2193,-3.1813,-3.1754,-3.1754,-3.1767,-3.1502,-3.1387,-3.1236,-3.1077,-3.0801,-3.0514,-3.0273,-3.0216,-3.0216,-3.0216,-3.0216,-3.0216,-3.0216,-3.0216,-3.0216,-3.0216,-3.0216,-3.0216,-3.0216,-3.0216,-3.0216,-3.0216,-3.0216,-3.0216,-3.0216,-3.0216,-3.0216,-3.0216,-3.0216,-3.0216,-3.0216,-3.0091,-3.0057,-3.0045,-2.9829,-2.9646,-2.9554,-2.9405,-2.9255,-2.9209,-2.8932,-2.8803,-2.8803,-2.8896,-2.8857,-2.8547,-2.8463,-2.801,0.0,0.0,0.0,0.0,0.0,0.0,0.0,0.0,0.0,0.0,0.0,0.0,0.0,0.0,0.0,0.0,0.0,0.0,0.0,0.0,0.0,0.0,0.0,0.0,0.0,0.0,0.0,0.0,-2.941,-2.967,-2.9987,-3.0147,-3.0216,-3.0216,-3.0216,-3.0216,-3.0216,-3.0216,-3.0216,-3.0216,-3.0216,-3.0216,-3.0216,-3.0216,-3.0216,-3.0239,-3.0641,-3.0813,-3.0847,-3.1215,-3.1375,-3.1375,-3.1375,-3.1456,-3.157,-3.1559,-3.1559,-3.1641,-3.1767,-3.1733,-3.157,-3.1559,-3.157,-3.1547,-3.141,-3.1111,-3.0813,-3.0813,-3.0526,-3.0216,-3.0216,-3.0216,-3.0216,-3.0216,-3.0216,-3.0216,-3.0216,-3.0216,-3.0216,-3.0216,-3.0216,-3.0216,-3.0216,-3.0216,-3.0216,-3.0216,-3.0216,-3.0216,-3.0216,-3.0216,-3.0216,-3.0216,-3.0216,-3.0216,-3.0216,-3.0057,-3.0011,-3.0136,-2.9817,-2.9634,-2.9783,-2.9359,-2.9106,-2.9106,-2.844,-2.819,-2.8422,-2.8606,-2.8274,-2.7601,-2.7585,-2.7183,0.0,0.0,0.0,0.0,0.0,0.0,0.0,0.0,0.0,0.0,0.0,0.0,0.0,0.0,0.0,0.0,0.0,0.0,0.0,0.0,0.0,0.0,0.0,0.0,0.0,0.0,0.0,0.0,-2.9207,-2.9494,-2.9538,-2.9963,-3.0216,-3.0216,-3.0216,-3.0216,-3.0216,-3.0216,-3.0216,-3.0216,-3.0216,-3.0216,-3.0216,-3.0216,-3.0216,-3.0216,-3.025,-3.0262,-3.0262,-3.0285,-3.0296,-3.0296,-3.0296,-3.0606,-3.1054,-3.1054,-3.1054,-3.1123,-3.1605,-3.1456,-3.1054,-3.1054,-3.1054,-3.0962,-3.0445,-3.0273,-3.0262,-3.0262,-3.0239,-3.0216,-3.0216,-3.0216,-3.0216,-3.0216,-3.0216,-3.0216,-3.0216,-3.0216,-3.0216,-3.0216,-3.0216,-3.0216,-3.0216,-3.0216,-3.0216,-3.0216,-3.0216,-3.0216,-3.0216,-3.0216,-3.0216,-3.0216,-3.0216,-3.0216,-3.0216,-3.017,-3.0091,-2.9931,-2.9886,-2.9783,-2.9531,-2.8595,-2.8092,-2.8092,-2.676,-2.6532,-2.749,-2.749,-2.6799,-2.5417,-2.4746,-2.488,0.0,0.0,0.0,0.0,0.0,0.0,0.0,0.0,0.0,0.0,0.0,0.0,0.0,0.0,0.0,0.0,0.0,0.0,0.0,0.0,0.0,0.0,0.0,0.0,0.0,0.0,0.0,0.0,0.0,-2.8331,-2.8944,-2.9148,-2.924,-2.924,-2.924,-2.9412,-2.9757,-3.0055,-3.0216,-3.0216,-3.0216,-3.0216,-3.0216,-3.0216,-3.0216,-3.0216,-3.0216,-3.0216,-3.0216,-3.0216,-3.0216,-3.0216,-3.0216,-3.0331,-3.0503,-3.0503,-3.0503,-3.0526,-3.0709,-3.0652,-3.0503,-3.0503,-3.0503,-3.0468,-3.0273,-3.0216,-3.0216,-3.0216,-3.0216,-3.0216,-3.0216,-3.0216,-3.0216,-3.0216,-3.0216,-3.0216,-3.0216,-3.0216,-3.0216,-3.0216,-3.0216,-3.0216,-3.0216,-3.0216,-3.0216,-3.0216,-3.0216,-3.0216,-3.0216,-3.0216,-3.0216,-3.0216,-3.0216,-3.0216,-3.0216,-3.0216,-3.017,-3.0091,-2.9485,-2.9106,-2.9013,-2.8013,-2.7348,-2.7112,-2.662,-2.6398,-2.6445,-2.6329,-2.5819,-2.5039,-2.5528,-2.5321,-2.1574,0.0,0.0,0.0,0.0,0.0,0.0,0.0,0.0,0.0,0.0,0.0,0.0,0.0,0.0,0.0,0.0,0.0,0.0,0.0,0.0,0.0,0.0,0.0,0.0,0.0,0.0,0.0,0.0,0.0,-2.7965,-2.8177,-2.8355,-2.8496,-2.8614,-2.8873,-2.9228,-2.955,-2.9711,-2.9711,-2.9711,-2.9802,-2.9975,-2.9975,-3.0067,-3.0216,-3.0216,-3.0216,-3.0216,-3.0216,-3.0216,-3.0216,-3.0216,-3.0216,-3.0216,-3.0216,-3.008,-2.9988,-2.9988,-2.9988,-2.9988,-2.9988,-3.008,-3.0216,-3.0216,-2.9977,-2.9703,-2.9703,-2.9703,-2.9703,-2.9703,-2.9943,-3.0216,-3.0216,-3.0216,-3.0216,-3.0216,-3.0216,-3.0216,-3.0216,-3.0216,-3.0216,-3.0216,-3.0216,-3.0216,-3.0216,-3.0216,-3.0216,-3.0216,-3.0216,-3.0216,-3.0216,-2.9886,-2.9703,-2.9703,-2.9371,-2.9176,-2.9176,-2.8574,-2.8125,-2.8021,-2.7009,-2.6333,-2.5895,-2.541,-2.5017,-2.4712,-2.4911,-2.4631,-2.3856,-2.4506,-2.4387,0.0,0.0,0.0,0.0,0.0,0.0,0.0,0.0,0.0,0.0,0.0,0.0,0.0,0.0,0.0,0.0,0.0,0.0,0.0,0.0,0.0,0.0,0.0,0.0,0.0,0.0,0.0,0.0,-2.6268,-2.6562,-2.6562,-2.7042,-2.7525,-2.7995,-2.8418,-2.8634,-2.8634,-2.8646,-2.8657,-2.8657,-2.8657,-2.8921,-2.9425,-2.9425,-2.9689,-3.0125,-3.0079,-3.0079,-3.0079,-3.0159,-3.0216,-3.0216,-3.017,-3.0125,-3.0125,-3.0114,-2.9795,-2.9439,-2.9439,-2.9439,-2.9439,-2.9439,-2.976,-3.0125,-3.0125,-2.9417,-2.8678,-2.8678,-2.8724,-2.8724,-2.8724,-2.9474,-3.0216,-3.0216,-3.0216,-3.0216,-3.0216,-3.0216,-3.0216,-3.0216,-3.0216,-3.0216,-3.0216,-3.0216,-3.0216,-3.0216,-3.0216,-3.0216,-3.0216,-3.017,-3.017,-3.017,-2.9233,-2.8678,-2.8678,-2.7757,-2.7189,-2.7189,-2.7169,-2.6925,-2.6537,-2.5575,-2.4814,-2.4431,-2.3017,-2.2272,-2.2263,-2.3345,-2.3099,-2.1696,-2.1482,-2.1776,-1.948,0.0,0.0,0.0,0.0,0.0,0.0,0.0,0.0,0.0,0.0,0.0,0.0,0.0,0.0,0.0,0.0,0.0,0.0,0.0,0.0,0.0,0.0,0.0,0.0,0.0,0.0,0.0,-2.4773,-2.5413,-2.5019,-2.584,-2.6139,-2.5712,-2.6669,-2.7169,-2.7169,-2.7567,-2.7777,-2.7777,-2.7777,-2.7855,-2.7999,-2.7999,-2.8066,-2.8144,-2.7475,-2.7149,-2.7304,-2.9353,-3.0216,-3.0125,-2.9176,-2.8841,-2.8691,-2.7772,-2.7489,-2.7558,-2.7558,-2.7652,-2.7851,-2.7851,-2.7898,-2.8085,-2.8247,-2.8107,-2.807,-2.8781,-2.8978,-2.9117,-2.9658,-2.9988,-3.0216,-3.0216,-3.0216,-3.0216,-3.0216,-3.0216,-3.0216,-3.0216,-3.0216,-3.0216,-3.0216,-3.0216,-3.0216,-3.0216,-3.0216,-3.0216,-3.0216,-2.9555,-2.9095,-2.9095,-2.8236,-2.7615,-2.7615,-2.7379,-2.7189,-2.7189,-2.5877,-2.507,-2.4962,-2.3692,-2.2802,-2.2409,-2.2336,-2.2144,-2.1851,-2.2165,-2.211,-2.1696,-2.1651,-2.2069,0.0,0.0,0.0,0.0,0.0,0.0,-2.0259,-2.0962,-2.1784,0.0,0.0,0.0,0.0,0.0,0.0,0.0,0.0,0.0,0.0,0.0,0.0,0.0,0.0,0.0,0.0,-2.2394,-2.2702,-2.2833,-2.3757,-2.4445,-2.4723,-2.5179,-2.5221,-2.483,-2.5605,-2.584,-2.5433,-2.6012,-2.6184,-2.5879,-2.5781,-2.5832,-2.6011,-2.5923,-2.5983,-2.6172,-2.5858,-2.5723,-2.5854,-2.7681,-2.8216,-2.7796,-2.7338,-2.7224,-2.7264,-2.6889,-2.6777,-2.6798,-2.6798,-2.6904,-2.701,-2.6962,-2.7047,-2.7237,-2.7389,-2.7342,-2.74,-2.7977,-2.8117,-2.8398,-2.9463,-2.936,-2.9037,-2.9463,-2.9566,-2.9703,-3.0125,-3.0034,-2.9988,-3.017,-3.0216,-3.0216,-3.0216,-3.0136,-3.0091,-3.017,-2.9749,-2.9463,-2.9555,-2.8713,-2.8049,-2.8049,-2.6952,-2.6234,-2.6234,-2.5644,-2.5169,-2.5044,-2.3988,-2.3288,-2.3204,-2.2223,-2.1555,-2.1361,-2.1443,-2.1373,-2.1105,-2.1517,-2.1696,-2.1696,-2.1696,-2.19,0.0,0.0,0.0,0.0,0.0,0.0,-1.9049,-2.0218,-2.1247,0.0,0.0,0.0,0.0,0.0,0.0,0.0,0.0,0.0,0.0,0.0,0.0,0.0,0.0,0.0,-2.2217,-2.1996,-2.2227,-2.3013,-2.294,-2.3487,-2.485,-2.4797,-2.4648,-2.4575,-2.4872,-2.4573,-2.3674,-2.4233,-2.4233,-2.3621,-2.3394,-2.3505,-2.3895,-2.3727,-2.3854,-2.4271,-2.4645,-2.4836,-2.4836,-2.5163,-2.5023,-2.4729,-2.5204,-2.5493,-2.5754,-2.645,-2.6552,-2.6318,-2.627,-2.627,-2.626,-2.6028,-2.6237,-2.6561,-2.6598,-2.6418,-2.6295,-2.6438,-2.6581,-2.7055,-2.8549,-2.8061,-2.7495,-2.8451,-2.8588,-2.8817,-2.984,-2.9509,-2.9233,-2.984,-2.9943,-2.9943,-2.9943,-2.9772,-2.9634,-2.984,-2.8888,-2.8236,-2.8434,-2.7568,-2.6904,-2.6846,-2.5509,-2.4639,-2.4639,-2.3311,-2.2364,-2.2085,-2.1968,-2.1826,-2.1534,-2.1084,-2.0847,-2.0817,-2.051,-2.0292,-2.0292,-2.115,-2.1553,-2.1553,-2.1553,-2.132,0.0,0.0,0.0,0.0,0.0,0.0,-1.8849,-1.8986,-1.9315,0.0,0.0,0.0,0.0,0.0,0.0,0.0,0.0,0.0,0.0,0.0,0.0,0.0,0.0,0.0,-2.0934,-2.1123,-2.0952,-2.0382,-2.0997,-2.1961,-2.3193,-2.3747,-2.3757,-2.3226,-2.3747,-2.3617,-2.2692,-2.278,-2.278,-2.2692,-2.2604,-2.2643,-2.2719,-2.2675,-2.2723,-2.2755,-2.2139,-2.1834,-2.1789,-2.1128,-2.2783,-2.5577,-2.4493,-2.409,-2.402,-2.3295,-2.3138,-2.321,-2.2988,-2.3086,-2.3178,-2.264,-2.2542,-2.2667,-2.2888,-2.2888,-2.3116,-2.4273,-2.5395,-2.641,-2.7477,-2.7534,-2.7586,-2.8474,-2.806,-2.7767,-2.8771,-2.7631,-2.6758,-2.8164,-2.8409,-2.8409,-2.8409,-2.806,-2.7757,-2.7757,-2.7558,-2.7274,-2.6921,-2.5983,-2.5168,-2.4767,-2.3651,-2.297,-2.297,-2.2677,-2.2522,-2.2535,-2.193,-2.1358,-2.1052,-2.0649,-2.0269,-1.9866,-2.0147,-2.0292,-2.0292,-2.0473,-2.0564,-2.0564,-2.0564,-2.051,0.0,0.0,0.0,-1.7986,0.0,0.0,0.0,-1.8529,-1.8732,-1.8965,0.0,0.0,0.0,0.0,0.0,0.0,0.0,0.0,0.0,0.0,0.0,0.0,0.0,0.0,-1.9542,-1.9586,-1.955,-1.9417,-2.0403,-2.1432,-2.2462,-2.2515,-2.2481,-2.2385,-2.2614,-2.2306,-2.1347,-2.1704,-2.1704,-2.1347,-2.1212,-2.1168,-2.1168,-2.1033,-2.0997,-2.0997,-2.0727,-2.0645,-2.0645,-2.0382,-2.1572,-2.3406,-2.251,-2.2235,-2.2295,-2.2247,-2.2318,-2.2478,-2.2364,-2.2316,-2.2289,-2.1826,-2.1757,-2.1891,-2.2025,-2.2386,-2.3074,-2.4474,-2.5133,-2.5552,-2.6148,-2.6191,-2.614,-2.6494,-2.6156,-2.5939,-2.6486,-2.5581,-2.4992,-2.5986,-2.5752,-2.5879,-2.7358,-2.7247,-2.6952,-2.6836,-2.6262,-2.5693,-2.5285,-2.4325,-2.361,-2.3302,-2.2568,-2.2047,-2.1862,-2.1595,-2.1321,-2.1071,-2.0622,-2.0356,-2.0252,-1.9791,-1.9425,-1.9188,-1.9417,-1.9563,-1.9563,-1.9563,-1.9791,-2.0292,-2.0292,-2.0147,0.0,0.0,0.0,0.0,0.0,-1.8121,0.0,0.0,0.0,-1.8061,0.0,0.0,0.0,0.0,0.0,0.0,0.0,0.0,0.0,0.0,0.0,0.0,0.0,0.0,-1.8724,-1.8524,-1.8568,-1.9016,-2.0054,-2.0992,-2.1703,-2.1262,-2.116,-2.157,-2.153,-2.1096,-2.0135,-2.0827,-2.0871,-2.0292,-2.0065,-1.9973,-1.9973,-1.9808,-1.9716,-1.9762,-2.0164,-2.0292,-2.0337,-2.069,-2.0862,-2.0862,-2.0682,-2.0737,-2.0977,-2.1804,-2.2177,-2.2259,-2.2203,-2.207,-2.1825,-2.1471,-2.1436,-2.1569,-2.1569,-2.22,-2.3158,-2.4228,-2.4293,-2.4176,-2.4575,-2.4418,-2.4176,-2.4202,-2.4031,-2.3894,-2.4142,-2.3597,-2.3233,-2.3795,-2.3075,-2.3247,-2.599,-2.6186,-2.5886,-2.5664,-2.4758,-2.3998,-2.3701,-2.287,-2.2299,-2.2122,-2.1719,-2.1319,-2.0999,-2.0529,-2.0076,-1.955,-1.951,-1.9576,-1.9608,-1.9096,-1.8781,-1.8781,-1.8781,-1.8781,-1.8781,-1.8781,-1.9242,-2.0019,-2.0019,-1.9828,0.0,0.0,0.0,0.0,-1.7733,0.0,0.0,0.0,-1.7556,-1.7475,0.0,0.0,0.0,0.0,0.0,0.0,0.0,0.0,0.0,0.0,0.0,0.0,0.0,0.0,0.0,-1.9247,-1.8955,-1.8594,-1.9076,-1.964,-2.0117,-2.0074,-2.0101,-2.0137,-2.0616,-2.0465,-1.9521,-2.0121,-2.0374,-2.0292,-2.0246,-2.0246,-2.0246,-2.0246,-2.0201,-2.0201,-2.0292,-2.0292,-2.0292,-2.0382,-2.0374,-2.0374,-2.0609,-2.0725,-2.0759,-2.0977,-2.1086,-2.1074,-2.0815,-2.058,-2.0248,-1.9693,-1.9355,-1.9178,-1.9178,-1.9724,-2.0366,-2.0494,-2.0985,-2.1617,-2.2492,-2.2496,-2.2492,-2.3329,-2.2649,-2.2093,-2.2981,-2.1704,-2.078,-2.2242,-2.1665,-2.1559,-2.3444,-2.3311,-2.297,-2.2961,-2.282,-2.2526,-2.2021,-2.1869,-2.15,-2.073,-2.0598,-2.0412,-2.0102,-1.9972,-1.9999,-2.003,-2.0005,-1.9887,-1.9608,-1.9096,-1.8781,-1.8781,-1.8781,-1.8781,-1.8781,-1.8781,-1.8874,-1.8966,-1.8966,-1.892,0.0,0.0,0.0,0.0,0.0,0.0,-1.787,0.0,-1.7578,0.0,0.0,0.0,0.0,0.0,0.0,0.0,-1.8209,0.0,0.0,0.0,0.0,0.0,0.0,0.0,0.0,0.0,0.0,0.0,-1.7796,-1.8138,-1.8549,-1.8558,-1.8744,-1.9085,-1.9333,-1.9297,-1.8879,-1.9326,-1.9564,-1.9564,-1.9918,-2.0065,-2.0065,-2.0246,-2.0292,-2.0292,-2.0292,-2.0292,-2.0292,-2.0292,-2.0292,-2.0292,-2.0428,-2.0473,-2.049,-2.0526,-2.054,-2.054,-2.044,-2.0201,-1.9945,-1.9704,-1.9463,-1.9325,-1.9608,-1.9882,-2.011,-2.011,-2.0727,-2.1472,-2.1748,-2.2136,-2.2346,-2.1888,-2.1389,-2.0876,-2.0644,-1.986,-1.9509,-2.0431,-2.0243,-2.0223,-2.1146,-2.1809,-2.217,-2.2047,-2.1887,-2.1553,-2.101,-2.0782,-2.0547,-2.0156,-2.0132,-1.9948,-1.9654,-1.963,-1.9518,-1.9346,-1.9368,-1.9303,-1.915,-1.892,-1.8781,-1.8781,-1.8781,-1.8781,-1.8781,-1.8781,-1.8781,-1.8781,-1.8781,-1.8781,-1.8,0.0,0.0,0.0,0.0,0.0,0.0,0.0,0.0,0.0,0.0,0.0,0.0,0.0,0.0,0.0,0.0,-1.7781,0.0,0.0,0.0,0.0,0.0,0.0,0.0,0.0,0.0,-1.6853,-1.709,-1.7286,-1.7347,-1.7363,-1.7568,-1.7997,-1.8189,-1.8239,-1.8239,-1.8644,-1.8869,-1.8877,-1.9465,-1.9777,-1.9777,-2.0158,-2.0292,-2.0292,-2.0292,-2.0292,-2.0292,-2.0292,-2.0292,-2.0292,-2.0292,-2.0292,-2.0292,-2.0292,-2.0292,-2.0292,-2.0292,-2.011,-1.9882,-1.9745,-1.9608,-1.9546,-1.9828,-1.9928,-2.0019,-2.0065,-2.0645,-2.1168,-2.1132,-2.157,-2.1704,-2.0591,-2.0275,-1.9957,-1.9012,-1.8781,-1.8907,-1.9169,-1.9225,-1.9328,-1.9718,-2.0695,-2.1361,-2.1237,-2.0998,-2.0687,-2.0299,-2.0068,-1.9877,-1.9789,-1.9781,-1.9638,-1.9256,-1.9225,-1.9105,-1.8797,-1.8781,-1.8781,-1.8781,-1.8781,-1.8781,-1.8781,-1.8781,-1.8781,-1.8781,-1.8781,-1.8781,-1.8781,-1.8781,-1.8781,0.0,0.0,0.0,-1.8,0.0,0.0,0.0,0.0,-1.7991,0.0,0.0,0.0,0.0,0.0,0.0,0.0,0.0,0.0,0.0,0.0,0.0,0.0,0.0,0.0,0.0,0.0,-1.7708,-1.7139,-1.7456,-1.7416,-1.6746,-1.6746,-1.6754,-1.677,-1.7305,-1.7608,-1.7608,-1.8222,-1.8533,-1.8541,-1.9125,-1.9434,-1.9443,-2.0039,-2.0292,-2.0292,-2.0292,-2.0292,-2.0292,-2.0292,-2.0292,-2.0292,-2.0292,-2.0292,-2.0292,-2.0292,-2.0292,-2.0292,-2.0292,-2.011,-1.9837,-1.9371,-1.9234,-1.9188,-1.892,-1.9012,-1.9288,-1.9533,-1.9799,-2.0019,-2.0292,-2.0155,-1.9936,-1.9671,-1.9433,-1.9142,-1.8874,-1.8781,-1.8781,-1.8843,-1.8797,-1.8962,-1.9328,-1.971,-1.9981,-1.9949,-1.9933,-1.9933,-1.9933,-1.9925,-1.9789,-1.9471,-1.9439,-1.9241,-1.8829,-1.8797,-1.8797,-1.8781,-1.8781,-1.8781,-1.8781,-1.8781,-1.8781,-1.8781,-1.8781,-1.8781,-1.8781,-1.8781,-1.8781,-1.8781,-1.8781,-1.8781,0.0,0.0,-1.8,-1.8,0.0,0.0,0.0,0.0,0.0,0.0,0.0,0.0,0.0,0.0,0.0,0.0,0.0,0.0,0.0,0.0,0.0,0.0,0.0,0.0,0.0,0.0,0.0,-1.7139,-1.7221,-1.7139,-1.673,-1.6689,-1.6689,-1.6689,-1.6891,-1.6996,-1.6996,-1.7482,-1.7701,-1.7709,-1.8324,-1.8627,-1.8636,-1.8962,-1.9331,-1.9692,-1.9692,-1.9926,-2.0292,-2.0292,-2.0292,-2.0292,-2.0292,-2.0292,-2.0292,-2.0292,-2.0292,-2.0292,-2.0292,-2.011,-1.9882,-1.97,-1.9463,-1.9188,-1.9096,-1.9242,-1.9487,-1.9587,-1.9853,-2.0201,-2.0292,-2.0246,-2.0065,-1.9679,-1.9533,-1.9342,-1.892,-1.8781,-1.8781,-1.8781,-1.8781,-1.8821,-1.8994,-1.9105,-1.9336,-1.9845,-1.9726,-1.9582,-1.9582,-1.9328,-1.9137,-1.9026,-1.901,-1.8962,-1.8789,-1.8781,-1.8781,-1.8781,-1.8781,-1.8781,-1.8781,-1.8781,-1.8781,-1.8781,-1.8781,-1.8781,-1.8781,-1.8781,-1.8781,-1.8781,-1.8781,-1.8781,-1.8,-1.8,0.0,-1.8,-1.8,0.0,-1.8,0.0,-1.8,0.0,0.0,0.0,0.0,0.0,0.0,0.0,0.0,0.0,0.0,-1.8,0.0,0.0,0.0,0.0,0.0,0.0,-1.7546,-1.7335,-1.7261,-1.7098,0.0,0.0,-1.6689,-1.6689,-1.6689,-1.6689,-1.6689,-1.6969,-1.7088,-1.7088,-1.7693,-1.7991,-1.7999,-1.8329,-1.8692,-1.9092,-1.9314,-1.9597,-2.0013,-2.0187,-2.0292,-2.0292,-2.0292,-2.0292,-2.0292,-2.0292,-2.0292,-2.0292,-2.0292,-2.0201,-2.0019,-1.9928,-1.97,-1.9425,-1.9379,-1.9387,-1.9487,-1.9587,-1.9808,-2.0073,-2.0155,-2.0246,-2.0209,-1.9808,-1.9716,-1.9579,-1.9158,-1.9012,-1.892,-1.892,-1.8874,-1.8781,-1.8781,-1.8781,-1.8978,-1.9431,-1.9312,-1.9177,-1.9177,-1.897,-1.8781,-1.8781,-1.8781,-1.8781,-1.8781,-1.8781,-1.8781,-1.8781,-1.8781,-1.8781,-1.8781,-1.8781,-1.8781,-1.8781,-1.8781,-1.8781,-1.8781,-1.8781,-1.8781,-1.8781,-1.8781,-1.8781]}]]